[[{"header":{"parameterUnit":"m.s-1","parameterCategory":1,"la1":30.6,"la2":28.766,"lo1":-90.7593,"lo2":-88.6598,"dy":0.0162,"dx":0.0183,"nx":116,"ny":114,"refTime":"2024-04-29T18:00:00:Z","depth":0,"parameterNumber":2,"parameterNumberName":"U-component_of_WINDS"},"data":[0.0,0.0,0.0,0.0,0.0,0.0,0.0,0.0,0.0,0.0,0.0,0.0,0.0,0.0,0.0,0.0,0.0,0.0,0.0,0.0,0.0,0.0,0.0,0.0,0.0,0.0,0.0,0.0,0.0,0.0,0.0,0.0,0.0,0.0,0.0,0.0,0.0,0.0,0.0,0.0,0.0,0.0,0.0,0.0,0.0,0.0,0.0,0.0,0.0,0.0,0.0,0.0,0.0,0.0,0.0,0.0,0.0,0.0,0.0,0.0,0.0,0.0,0.0,0.0,0.0,0.0,0.0,0.0,0.0,0.0,0.0,0.0,0.0,0.0,0.0,0.0,0.0,0.0,0.0,0.0,0.0,0.0,0.0,0.0,0.0,0.0,0.0,0.0,0.0,0.0,0.0,0.0,0.0,0.0,0.0,0.0,0.0,0.0,0.0,0.0,0.0,0.0,0.0,0.0,0.0,0.0,0.0,0.0,0.0,0.0,0.0,0.0,0.0,0.0,0.0,0.0,0.0,0.0,0.0,0.0,0.0,0.0,0.0,0.0,0.0,0.0,0.0,0.0,0.0,0.0,0.0,0.0,0.0,0.0,0.0,0.0,0.0,0.0,0.0,0.0,0.0,0.0,0.0,0.0,0.0,0.0,0.0,0.0,0.0,0.0,0.0,0.0,0.0,0.0,0.0,0.0,0.0,0.0,0.0,0.0,0.0,0.0,0.0,0.0,0.0,0.0,0.0,0.0,0.0,0.0,0.0,0.0,0.0,0.0,0.0,0.0,0.0,0.0,0.0,0.0,0.0,0.0,0.0,0.0,0.0,0.0,0.0,0.0,0.0,0.0,0.0,0.0,0.0,0.0,0.0,0.0,0.0,0.0,0.0,0.0,0.0,0.0,0.0,0.0,0.0,0.0,0.0,0.0,0.0,0.0,0.0,0.0,0.0,0.0,0.0,0.0,0.0,0.0,0.0,0.0,0.0,0.0,0.0,0.0,0.0,0.0,0.0,0.0,0.0,0.0,0.0,0.0,0.0,0.0,0.0,0.0,0.0,0.0,0.0,0.0,0.0,0.0,0.0,0.0,0.0,0.0,0.0,0.0,0.0,0.0,0.0,0.0,0.0,0.0,0.0,0.0,0.0,0.0,0.0,0.0,0.0,0.0,0.0,0.0,0.0,0.0,0.0,0.0,0.0,0.0,0.0,0.0,0.0,0.0,0.0,0.0,0.0,0.0,0.0,0.0,0.0,0.0,0.0,0.0,0.0,0.0,0.0,0.0,0.0,0.0,0.0,0.0,0.0,0.0,0.0,0.0,0.0,0.0,0.0,0.0,0.0,0.0,0.0,0.0,0.0,0.0,0.0,0.0,0.0,0.0,0.0,0.0,0.0,0.0,0.0,0.0,0.0,0.0,0.0,0.0,0.0,0.0,0.0,0.0,0.0,0.0,0.0,0.0,0.0,0.0,0.0,0.0,0.0,0.0,0.0,0.0,0.0,0.0,0.0,0.0,0.0,0.0,0.0,0.0,0.0,0.0,0.0,0.0,0.0,0.0,0.0,0.0,0.0,0.0,0.0,0.0,0.0,0.0,0.0,0.0,0.0,0.0,0.0,0.0,0.0,0.0,0.0,0.0,0.0,0.0,0.0,0.0,0.0,0.0,0.0,0.0,0.0,0.0,0.0,0.0,0.0,0.0,0.0,0.0,0.0,0.0,0.0,0.0,0.0,0.0,0.0,0.0,0.0,0.0,0.0,0.0,0.0,0.0,0.0,0.0,0.0,0.0,0.0,0.0,0.0,0.0,0.0,0.0,0.0,0.0,0.0,0.0,0.0,0.0,0.0,0.0,0.0,0.0,0.0,0.0,0.0,0.0,0.0,0.0,0.0,0.0,0.0,0.0,0.0,0.0,0.0,0.0,0.0,0.0,0.0,0.0,0.0,0.0,0.0,0.0,0.0,0.0,0.0,0.0,0.0,0.0,0.0,0.0,0.0,0.0,0.0,0.0,0.0,0.0,0.0,0.0,0.0,0.0,0.0,0.0,0.0,0.0,0.0,0.0,0.0,0.0,0.0,0.0,0.0,0.0,0.0,0.0,0.0,0.0,0.0,0.0,0.0,0.0,0.0,0.0,0.0,0.0,0.0,0.0,0.0,0.0,0.0,0.0,0.0,0.0,0.0,0.0,0.0,0.0,0.0,0.0,0.0,0.0,0.0,0.0,0.0,0.0,0.0,0.0,0.0,0.0,0.0,0.0,0.0,0.0,0.0,0.0,0.0,0.0,0.0,0.0,0.0,0.0,0.0,0.0,0.0,0.0,0.0,0.0,0.0,0.0,0.0,0.0,0.0,0.0,0.0,0.0,0.0,0.0,0.0,0.0,0.0,0.0,0.0,0.0,0.0,0.0,0.0,0.0,0.0,0.0,0.0,0.0,0.0,0.0,0.0,0.0,0.0,0.0,0.0,0.0,0.0,0.0,0.0,0.0,0.0,0.0,0.0,0.0,0.0,0.0,0.0,0.0,0.0,0.0,0.0,0.0,0.0,0.0,0.0,0.0,0.0,0.0,0.0,0.0,0.0,0.0,0.0,0.0,0.0,0.0,0.0,0.0,0.0,0.0,0.0,0.0,0.0,0.0,0.0,0.0,0.0,0.0,0.0,0.0,0.0,0.0,0.0,0.0,0.0,0.0,0.0,0.0,0.0,0.0,0.0,0.0,0.0,0.0,0.0,0.0,0.0,0.0,0.0,0.0,0.0,0.0,0.0,0.0,0.0,0.0,0.0,0.0,0.0,0.0,0.0,0.0,0.0,0.0,0.0,0.0,0.0,0.0,0.0,0.0,0.0,0.0,0.0,0.0,0.0,0.0,0.0,0.0,0.0,0.0,0.0,0.0,0.0,0.0,0.0,0.0,0.0,0.0,0.0,0.0,0.0,0.0,0.0,0.0,0.0,0.0,0.0,0.0,0.0,0.0,0.0,0.0,0.0,0.0,0.0,0.0,0.0,0.0,0.0,0.0,0.0,0.0,0.0,0.0,0.0,0.0,0.0,0.0,0.0,0.0,0.0,0.0,0.0,0.0,0.0,0.0,0.0,0.0,0.0,0.0,0.0,0.0,0.0,0.0,0.0,0.0,0.0,0.0,0.0,0.0,0.0,0.0,0.0,0.0,0.0,0.0,0.0,0.0,0.0,0.0,0.0,0.0,0.0,0.0,0.0,0.0,0.0,0.0,0.0,0.0,0.0,0.0,0.0,0.0,0.0,0.0,0.0,0.0,0.0,0.0,0.0,0.0,0.0,0.0,0.0,0.0,0.0,0.0,0.0,0.0,0.0,0.0,0.0,0.0,0.0,0.0,0.0,0.0,0.0,0.0,0.0,0.0,0.0,0.0,0.0,0.0,0.0,0.0,0.0,0.0,0.0,0.0,0.0,0.0,0.0,0.0,0.0,0.0,0.0,0.0,0.0,0.0,0.0,0.0,0.0,0.0,0.0,0.0,0.0,0.0,0.0,0.0,0.0,0.0,0.0,0.0,0.0,0.0,0.0,0.0,0.0,0.0,0.0,0.0,0.0,0.0,0.0,0.0,0.0,0.0,0.0,0.0,0.0,0.0,0.0,0.0,0.0,0.0,0.0,0.0,0.0,0.0,0.0,0.0,0.0,0.0,0.0,0.0,0.0,0.0,0.0,0.0,0.0,0.0,0.0,0.0,0.0,0.0,0.0,0.0,0.0,0.0,0.0,0.0,0.0,0.0,0.0,0.0,0.0,0.0,0.0,0.0,0.0,0.0,0.0,0.0,0.0,0.0,0.0,0.0,0.0,0.0,0.0,0.0,0.0,0.0,0.0,0.0,0.0,0.0,0.0,0.0,0.0,0.0,0.0,0.0,0.0,0.0,0.0,0.0,0.0,0.0,0.0,0.0,0.0,0.0,0.0,0.0,0.0,0.0,0.0,0.0,0.0,0.0,0.0,0.0,0.0,0.0,0.0,0.0,0.0,0.0,0.0,0.0,0.0,0.0,0.0,0.0,0.0,0.0,0.0,0.0,0.0,0.0,0.0,0.0,0.0,0.0,0.0,0.0,0.0,0.0,0.0,0.0,0.0,0.0,0.0,0.0,0.0,0.0,0.0,0.0,0.0,0.0,0.0,0.0,0.0,0.0,0.0,0.0,0.0,0.0,0.0,0.0,0.0,0.0,0.0,0.0,0.0,0.0,0.0,0.0,0.0,0.0,0.0,0.0,0.0,0.0,0.0,0.0,0.0,0.0,0.0,0.0,0.0,0.0,0.0,0.0,0.0,0.0,0.0,0.0,0.0,0.0,0.0,0.0,0.0,0.0,0.0,0.0,0.0,0.0,0.0,0.0,0.0,0.0,0.0,0.0,0.0,0.0,0.0,0.0,0.0,0.0,0.0,0.0,0.0,0.0,0.0,0.0,0.0,0.0,0.0,0.0,0.0,0.0,0.0,0.0,0.0,0.0,0.0,0.0,0.0,0.0,0.0,0.0,0.0,0.0,0.0,0.0,0.0,0.0,0.0,0.0,0.0,0.0,0.0,0.0,0.0,0.0,0.0,0.0,0.0,0.0,0.0,0.0,0.0,0.0,0.0,0.0,0.0,0.0,0.0,0.0,0.0,0.0,0.0,0.0,0.0,0.0,0.0,0.0,0.0,0.0,0.0,0.0,0.0,0.0,0.0,0.0,0.0,0.0,0.0,0.0,0.0,0.0,0.0,0.0,0.0,0.0,0.0,0.0,0.0,0.0,0.0,0.0,0.0,0.0,0.0,0.0,0.0,0.0,0.0,0.0,0.0,0.0,0.0,0.0,0.0,0.0,0.0,0.0,0.0,0.0,0.0,0.0,0.0,0.0,0.0,0.0,0.0,0.0,0.0,0.0,0.0,0.0,0.0,0.0,0.0,0.0,0.0,0.0,0.0,0.0,0.0,0.0,0.0,0.0,0.0,0.0,0.0,0.0,0.0,0.0,0.0,0.0,0.0,0.0,0.0,0.0,0.0,0.0,0.0,0.0,0.0,0.0,0.0,0.0,0.0,0.0,0.0,0.0,0.0,0.0,0.0,0.0,0.0,0.0,0.0,0.0,0.0,0.0,0.0,0.0,0.0,0.0,0.0,0.0,0.0,0.0,0.0,0.0,0.0,0.0,0.0,0.0,0.0,0.0,0.0,0.0,0.0,0.0,0.0,0.0,0.0,0.0,0.0,0.0,0.0,0.0,0.0,0.0,0.0,0.0,0.0,0.0,0.0,0.0,0.0,0.0,0.0,0.0,0.0,0.0,0.0,0.0,0.0,0.0,0.0,0.0,0.0,0.0,0.0,0.0,0.0,0.0,0.0,0.0,0.0,0.0,0.0,0.0,0.0,0.0,0.0,0.0,0.0,0.0,0.0,0.0,0.0,0.0,0.0,0.0,0.0,0.0,0.0,0.0,0.0,0.0,0.0,0.0,0.0,0.0,0.0,0.0,0.0,0.0,0.0,0.0,0.0,0.0,0.0,0.0,0.0,0.0,0.0,0.0,0.0,0.0,0.0,0.0,0.0,0.0,0.0,0.0,0.0,0.0,0.0,0.0,0.0,0.0,0.0,0.0,0.0,0.0,0.0,0.0,0.0,0.0,0.0,0.0,0.0,0.0,0.0,0.0,0.0,0.0,0.0,0.0,0.0,0.0,0.0,0.0,0.0,0.0,0.0,0.0,0.0,0.0,0.0,0.0,0.0,0.0,0.0,0.0,0.0,0.0,0.0,0.0,0.0,0.0,0.0,0.0,0.0,0.0,0.0,0.0,0.0,0.0,0.0,0.0,0.0,0.0,0.0,0.0,0.0,0.0,0.0,0.0,0.0,0.0,0.0,0.0,0.0,0.0,0.0,0.0,0.0,0.0,0.0,0.0,0.0,0.0,0.0,0.0,0.0,0.0,0.0,0.0,0.0,0.0,0.0,0.0,0.0,0.0,0.0,0.0,0.0,0.0,0.0,0.0,0.0,0.0,0.0,0.0,0.0,0.0,0.0,0.0,0.0,0.0,0.0,0.0,0.0,0.0,0.0,0.0,0.0,0.0,0.0,0.0,0.0,0.0,0.0,0.0,0.0,0.0,0.0,0.0,1.4397,0.0,0.0,0.0,0.0,0.0,0.0,0.0,0.0,0.0,0.0,0.0,0.0,0.0,0.0,0.0,0.0,0.0,0.0,0.0,0.0,0.0,0.0,0.0,0.0,0.4505,0.4505,0.4505,0.4505,0.4505,0.4505,0.0,0.0,0.0,0.0,0.0,0.4505,0.4505,0.4505,0.4505,0.4505,0.4505,0.4505,0.4505,0.4505,0.4505,0.0,0.0,0.0,0.0,0.0,0.0,0.0,0.0,0.0,0.0,0.0,0.0,0.0,0.0,0.0,0.0,0.0,0.0,0.0,0.0,0.0,0.0,0.0,0.0,0.0,0.0,0.0,0.0,0.0,0.0,0.0,0.0,0.0,0.0,0.0,0.0,0.0,0.0,0.0,0.0,0.0,0.0,0.0,0.0,0.0,0.0,0.0,0.0,0.0,0.0,0.0,0.0,0.0,0.0,0.0,0.0,0.0,0.0,0.0,0.0,0.0,0.0,0.0,0.0,0.0,0.0,0.0,0.0,0.0,0.0,0.0,1.4289,0.0,0.0,0.0,0.0,0.0,0.0,0.0,0.0,0.0,0.0,0.0,0.0,0.0,0.0,0.0,0.0,0.0,0.0,0.0,0.0,0.0,0.4349,0.4491,0.4505,0.4505,0.4505,0.4505,0.4505,0.4505,0.4505,0.4505,0.4505,0.4505,0.4505,0.4505,0.4505,0.4505,0.4505,0.4505,0.4505,0.4505,0.4505,0.4505,0.4505,0.4505,0.0,0.0,0.0,0.0,0.0,0.0,0.0,0.0,0.0,0.0,0.0,0.0,0.0,0.0,0.0,0.0,0.0,0.0,0.0,0.0,0.0,0.0,0.0,0.0,0.0,0.0,0.0,0.0,0.0,0.0,0.0,0.0,0.0,0.0,0.0,0.0,0.0,0.0,0.0,0.0,0.0,0.0,0.0,0.0,0.0,0.0,0.0,0.0,0.0,0.0,0.0,0.0,0.0,0.0,0.0,0.0,0.0,0.0,0.0,0.0,0.0,0.0,0.0,1.5244,1.5396,1.5396,1.5396,1.5323,1.5182,1.5182,1.4436,1.3252,1.3771,0.0,0.0,0.0,0.0,0.0,0.0,0.0,0.0,0.0,0.0,0.0,0.0,0.0,0.0,0.0,0.0,0.0,0.0,0.0,0.3718,0.4422,0.4505,0.4505,0.4505,0.4505,0.4505,0.4505,0.4505,0.4505,0.4505,0.4505,0.4505,0.4505,0.4505,0.4505,0.4505,0.4505,0.4505,0.4505,0.4505,0.4505,0.4505,0.4505,0.4546,0.4639,0.0,0.0,0.0,0.0,0.0,0.0,0.0,0.0,0.0,0.0,0.0,0.0,0.0,0.0,0.0,0.0,0.0,0.0,0.0,0.0,0.0,0.0,0.0,0.0,0.0,0.0,0.0,0.0,0.0,0.0,0.0,0.0,0.0,0.0,0.0,0.0,0.0,0.0,0.0,0.0,0.0,1.1287,1.2605,0.0,0.0,0.0,0.0,0.0,0.0,0.0,0.0,0.0,0.0,0.0,0.0,0.0,1.4711,1.4711,1.5117,1.5322,1.5318,1.5366,1.5396,1.5396,1.5396,1.5021,1.4362,1.4362,0.0,1.3995,1.3394,0.0,0.0,0.0,0.0,0.0,0.0,0.0,0.0,0.0,0.0,0.0,0.0,0.0,0.0,0.0,0.0,0.0,0.0,0.0,0.0,0.0,0.4222,0.4505,0.4505,0.4505,0.4505,0.4505,0.4505,0.4505,0.4505,0.4505,0.4505,0.4505,0.4505,0.4505,0.4505,0.4505,0.4505,0.4505,0.4505,0.4505,0.4505,0.4505,0.4505,0.4505,0.4505,0.0,0.0,0.0,0.0,0.0,0.0,0.0,0.0,0.0,0.0,0.0,0.0,0.0,0.0,0.0,0.0,0.0,0.0,0.0,0.0,0.0,0.0,0.0,0.0,0.0,0.0,0.0,0.0,0.0,0.0,0.0,0.0,0.0,0.0,0.0,0.0,0.0,0.0,0.0,1.1233,1.1925,1.1742,1.2329,1.273,0.0,0.0,0.0,0.0,0.0,0.0,0.0,0.0,0.0,1.4816,1.5025,1.4912,1.447,1.4633,1.4576,1.4278,1.4278,1.4378,1.4559,1.4559,1.4371,1.4024,1.4024,1.377,1.3348,1.3263,1.2568,1.1603,0.0,0.0,0.0,0.0,1.1406,1.1406,0.0,0.0,0.0,0.0,0.0,0.0,0.0,0.0,0.0,0.0,0.0,0.0,0.3273,0.4015,0.4505,0.4505,0.4505,0.4505,0.4505,0.4308,0.4198,0.4198,0.4198,0.4198,0.4225,0.4405,0.4505,0.4505,0.4505,0.4505,0.4505,0.4505,0.4505,0.4505,0.4505,0.4505,0.4505,0.4505,0.4505,0.4505,0.0,0.0,0.0,0.0,0.0,0.0,0.0,0.0,0.0,0.0,0.0,0.0,0.0,0.0,0.0,0.0,0.0,0.0,0.0,0.0,0.0,0.0,0.0,0.0,0.0,0.0,0.0,0.0,0.0,0.0,0.0,0.0,0.0,0.0,0.0,0.0,0.0,1.143,1.2268,1.1349,1.2585,1.334,0.0,0.0,0.0,0.0,0.0,0.0,1.4922,1.4941,1.5002,1.5084,1.5184,1.4831,1.3995,1.4077,1.3929,1.3533,1.3533,1.3664,1.3908,1.3908,1.3793,1.3594,1.3594,1.3189,1.2521,1.3028,1.2509,1.1471,1.2214,1.2105,1.155,1.1606,1.1633,1.1633,0.0,0.0,0.0,0.0,0.0,0.0,0.0,0.0,0.0,0.0,0.0,0.2522,0.3218,0.4015,0.4505,0.4505,0.4505,0.4505,0.4505,0.379,0.3356,0.3356,0.3356,0.3386,0.3456,0.4139,0.4505,0.4505,0.4505,0.4505,0.4505,0.4505,0.4505,0.4505,0.4505,0.4505,0.4505,0.4505,0.4505,0.4505,0.4505,0.0,0.0,0.0,0.0,0.0,0.0,0.0,0.0,0.0,0.0,0.0,0.0,0.0,0.0,0.0,0.0,0.0,0.0,0.0,0.0,0.0,0.0,0.0,0.0,0.0,0.0,0.0,0.0,0.0,0.0,0.0,0.0,0.0,0.0,0.0,0.0,0.0,0.0,1.2373,1.3064,0.0,0.0,0.0,0.0,1.476,1.5117,1.5347,1.5366,1.5366,1.5031,1.4288,1.4568,1.4322,1.3449,1.3762,1.3892,1.3859,1.3859,1.3876,1.3908,1.3908,1.3485,1.2764,1.2764,1.2447,1.1983,1.2519,1.2209,1.1432,1.1807,1.1915,1.1913,1.2158,1.2258,1.2258,0.0,0.0,0.0,0.0783,0.0783,0.0783,0.0783,0.056,0.049,0.0755,0.1605,0.2299,0.2565,0.3735,0.4505,0.4505,0.4505,0.4505,0.4505,0.4236,0.407,0.407,0.407,0.4084,0.4111,0.4363,0.4505,0.4505,0.4505,0.4542,0.462,0.4535,0.4542,0.462,0.4535,0.4505,0.4505,0.4505,0.4505,0.4505,0.4505,0.4505,0.0,0.0,0.0,0.0,0.0,0.0,0.0,0.0,0.0,0.0,0.0,0.0,0.0,0.0,0.0,0.0,0.0,0.0,0.0,0.0,0.0,0.0,0.0,0.0,0.0,0.0,0.0,0.0,0.0,0.0,0.0,0.0,0.0,0.0,0.0,0.0,0.0,1.2476,1.3586,0.0,1.3928,1.4677,1.497,1.4444,1.4554,1.4406,1.3876,1.4013,1.3984,1.369,1.4006,1.3786,1.2958,1.3064,1.2938,1.2621,1.2621,1.2812,1.319,1.319,1.3128,1.3023,1.3023,1.2916,1.2745,1.2933,1.2622,1.1997,1.2104,1.2163,1.2164,1.2265,1.2305,1.2206,0.0,0.0,0.0,0.0,0.0,0.0,0.0,0.0,0.0,0.0,0.1062,0.1925,0.2174,0.3107,0.3929,0.446,0.4253,0.4098,0.4098,0.386,0.3611,0.3359,0.3594,0.3973,0.4491,0.4505,0.4529,0.4566,0.4566,0.463,0.4765,0.4678,0.4685,0.4762,0.4674,0.4614,0.4566,0.4566,0.4539,0.4505,0.4505,0.4505,0.4505,0.0,0.0,0.0,0.0,0.0,0.0,0.0,0.0,0.0,0.0,0.0,0.0,0.0,0.0,0.0,0.0,0.0,0.0,0.0,0.0,0.0,0.0,0.0,0.0,0.0,0.0,0.0,0.0,0.0,0.0,0.0,0.0,0.0,0.0,0.0,1.2193,1.2505,1.364,1.4374,1.4335,1.4742,1.4827,1.4403,1.41,1.3749,1.3332,1.3467,1.3437,1.3162,1.3477,1.3236,1.244,1.263,1.2561,1.2201,1.229,1.2544,1.2925,1.2925,1.3032,1.3193,1.3193,1.3193,1.3193,1.3193,1.2953,1.2605,1.2605,1.2605,1.2567,1.2176,1.1979,1.1771,0.0,0.0,0.0,0.0,0.0,0.0,0.0,0.0,0.0,0.0,0.0643,0.1369,0.2091,0.2188,0.2801,0.4294,0.3721,0.3259,0.3259,0.2591,0.1898,0.1202,0.1884,0.2968,0.446,0.4508,0.4569,0.4705,0.4712,0.4775,0.4909,0.4906,0.4906,0.4909,0.4906,0.4821,0.4712,0.4708,0.462,0.4512,0.4505,0.4505,0.4505,0.0,0.0,0.0,0.0,0.0,0.0,0.0,0.0,0.0,0.0,0.0,0.0,0.0,0.0,0.0,0.0,0.0,0.0,0.0,0.0,0.0,0.0,0.0,0.0,0.0,0.0,0.0,0.0,0.0,0.0,0.0,0.0,0.0,0.9238,1.0431,1.1622,1.2491,1.3194,1.4047,1.5221,1.4642,1.4312,1.4629,1.3862,1.3501,1.3801,1.3834,1.3484,1.2695,1.2952,1.2724,1.1933,1.2528,1.2816,1.2823,1.3086,1.3193,1.3207,1.3187,1.3167,1.3174,1.3134,1.3114,1.3114,1.3114,1.3114,1.3114,1.318,1.3174,1.3002,1.1916,1.1333,1.0933,0.0,0.0,0.0,0.0,0.0,0.0,0.0,0.0,0.0,0.0,0.0643,0.1174,0.1382,0.1884,0.2371,0.2801,0.2633,0.2508,0.2508,0.2313,0.2343,0.2676,0.3442,0.407,0.4491,0.46,0.4664,0.4705,0.4802,0.4913,0.5039,0.495,0.4957,0.5036,0.495,0.4882,0.4835,0.4738,0.4681,0.4634,0.4535,0.4505,0.4505,0.0,0.0,0.0,0.0,0.0,0.0,0.0,0.0,0.0,0.0,0.0,0.0,0.0,0.0,0.0,0.0,0.0,0.0,0.0,0.0,0.0,0.0,0.0,0.0,0.0,0.0,0.0,0.0,0.0,0.0,0.0,0.9405,0.9731,1.0215,1.0874,1.1585,1.2368,1.3055,1.3591,1.3925,1.3962,1.3786,1.3286,1.3037,1.266,1.2125,1.2327,1.235,1.213,1.2622,1.2786,1.2543,1.2912,1.308,1.3086,1.3153,1.33,1.3466,1.2641,1.2365,1.2505,1.166,1.1302,1.1302,1.1302,1.1302,1.1437,1.2717,1.2698,1.1936,1.163,1.0457,0.8967,0.0,0.0,0.0,0.0,0.0,0.0,0.0,0.0,0.0,0.0,0.0378,0.0755,0.1062,0.1202,0.1521,0.2147,0.1912,0.1744,0.1744,0.1452,0.1605,0.2343,0.2829,0.3226,0.3527,0.4004,0.426,0.4324,0.4762,0.5068,0.5223,0.5145,0.5148,0.5223,0.5142,0.5067,0.4987,0.4896,0.4802,0.4698,0.461,0.4549,0.4505,0.4505,0.4505,0.4505,0.4505,0.468,0.4921,0.4921,0.0,0.0,0.0,0.0,0.0,0.0,0.0,0.0,0.0,0.0,0.0,0.0,0.0,0.0,0.0,0.0,0.0,0.0,0.0,0.0,0.0,0.0,0.0,0.0,0.9738,1.0048,1.0581,1.0735,1.118,1.2195,1.2657,1.3084,1.3558,1.3474,1.3247,1.289,1.2561,1.2186,1.1808,1.2096,1.2275,1.2275,1.2737,1.2739,1.2252,1.2518,1.2415,1.1943,1.2057,1.2188,1.2311,1.167,1.1447,1.1552,1.0891,1.0611,1.0611,1.0611,1.0611,0.0,0.0,0.0,0.0,0.0,0.9183,0.7655,0.0,0.0,0.0,0.0,0.0,0.0,0.0,0.0,0.0,0.0,0.0,0.0252,0.0909,0.0392,0.0532,0.1842,0.1355,0.0978,0.0978,0.0448,0.042,0.1076,0.1178,0.1523,0.2182,0.3039,0.3527,0.3653,0.4437,0.4964,0.5243,0.5243,0.5292,0.5395,0.5395,0.53,0.5139,0.5106,0.4963,0.4738,0.4719,0.4613,0.4505,0.4505,0.4505,0.4505,0.4505,0.4883,0.5392,0.5392,0.0,0.0,0.0,0.0,0.0,0.0,0.0,0.0,0.0,0.0,0.0,0.0,0.0,0.0,0.0,0.0,0.0,0.0,0.0,0.0,0.0,0.0,0.0,0.0,1.0132,1.0274,1.06,1.0396,1.0659,1.1917,1.213,1.2564,1.3584,1.3059,1.2755,1.2988,1.2372,1.2114,1.2338,0.0,0.0,0.0,0.0,1.2377,1.1364,1.1611,1.1259,1.0259,1.0498,1.0611,1.0611,1.0459,1.0416,1.0394,1.0265,1.0221,1.0221,1.0221,1.0221,1.0221,1.0351,1.0416,1.024,0.8995,0.7839,0.6911,0.0,0.0,0.0,0.0,0.0,0.0,0.0,0.0,0.0,0.0,0.0,0.0056,0.0196,0.0084,0.0112,0.0406,0.0294,0.021,0.021,0.0629,0.095,0.109,0.1675,0.2053,0.2198,0.2542,0.2732,0.2747,0.3021,0.3543,0.4267,0.4267,0.4669,0.5395,0.5395,0.5378,0.5324,0.5166,0.5066,0.5011,0.4785,0.4613,0.4505,0.4505,0.4505,0.4505,0.4505,0.4584,0.4691,0.4691,0.4787,0.4911,0.4911,0.0,0.0,0.0,0.0,0.0,0.0,0.0,0.0,0.0,0.0,0.0,0.0,0.0,0.0,0.0,0.0,0.0,0.0,0.0,0.0,1.0085,1.0329,1.059,1.0885,1.0878,1.0927,1.1198,1.1659,1.2043,1.2263,1.2349,1.2406,1.2449,1.2569,1.2655,1.2697,1.2103,1.1752,1.1752,1.1109,1.0678,1.0445,1.0709,1.0738,1.0523,0.0,0.0,1.0567,0.9645,0.9235,0.917,0.8207,0.7771,0.7771,0.7771,0.7771,0.7878,0.8842,0.9235,0.9078,0.7869,0.7271,0.7051,0.0,0.0,0.0,0.0,0.0,0.0,0.0,0.0,0.0,0.0,0.0,0.0,0.0,0.0,0.0,0.0,0.0,0.0,0.0,0.035,0.0546,0.0546,0.0909,0.1095,0.1097,0.162,0.1894,0.1904,0.2443,0.2928,0.3363,0.3799,0.4251,0.4722,0.5193,0.5395,0.5388,0.5297,0.5187,0.5079,0.4879,0.4714,0.4597,0.4518,0.4505,0.4505,0.4505,0.4505,0.4505,0.4505,0.4505,0.4505,0.4505,0.4505,0.4505,0.0,0.0,0.0,0.0,0.0,0.0,0.0,0.0,0.0,0.0,0.0,0.0,0.0,0.0,0.6735,0.7672,0.0,0.95,0.9665,1.021,1.0693,1.0955,1.1122,1.1263,1.1427,1.1725,1.1942,1.2089,1.2218,1.2305,1.2305,1.2055,1.1902,1.1902,1.1227,1.0854,1.0854,1.0564,1.0129,0.9557,0.9681,0.9444,0.8856,0.8856,0.8856,0.8834,0.8251,0.7995,0.7973,0.736,0.7095,0.7095,0.7095,0.7095,0.7161,0.7775,0.7995,0.7929,0.7316,0.7095,0.7095,0.0,0.0,0.0,0.0,0.0,0.0,0.0,0.0,0.0,0.0,0.0,0.0,0.0,0.0,0.0,0.0,0.0,0.0,0.0,0.0,0.0,0.0,0.0,0.0,0.0,0.0687,0.1051,0.104,0.181,0.226,0.2444,0.3145,0.358,0.3782,0.4536,0.4974,0.5123,0.5123,0.514,0.5146,0.4974,0.4753,0.4525,0.4503,0.4505,0.4505,0.4505,0.4505,0.4505,0.4505,0.4505,0.4505,0.4505,0.4505,0.4505,0.4505,0.4505,0.0,0.0,0.0,0.0,0.0,0.0,0.0,0.0,0.0,0.4738,0.5447,0.5758,0.6191,0.7115,0.8032,0.8738,0.9003,0.9663,1.0235,1.0498,1.0731,1.101,1.1356,1.1735,1.2062,1.2278,1.2305,1.2232,1.2056,1.1457,1.1017,1.0852,1.0275,0.9947,0.9947,0.994,0.9488,0.8562,0.854,0.8061,0.7095,0.7095,0.7095,0.7095,0.7095,0.7095,0.7095,0.7095,0.7095,0.7095,0.7095,0.7095,0.7095,0.7095,0.7095,0.7095,0.7095,0.7095,0.7095,0.0,0.0,0.0,0.0,0.0,0.0,0.0,0.0,0.0,0.0,0.0,0.0,0.0,0.0,0.0,0.0,0.0,0.0,0.0,0.0,0.0,0.0,0.0,0.0,0.0,0.0098,0.0151,0.0152,0.0253,0.0706,0.1457,0.1558,0.2043,0.2845,0.2961,0.3428,0.4151,0.4151,0.4627,0.5344,0.5033,0.4494,0.395,0.4342,0.4505,0.4505,0.4505,0.4505,0.4505,0.4505,0.4505,0.4505,0.4505,0.4505,0.4505,0.4505,0.4505,0.4505,0.4505,0.4505,0.4505,0.4505,0.4505,0.4505,0.0,0.0,0.4699,0.48,0.5634,0.6368,0.6505,0.7377,0.8109,0.8135,0.8327,0.8561,0.8837,0.9002,0.9212,0.955,1.1168,1.2265,1.2298,1.2305,1.197,1.1195,1.1337,1.1114,1.0321,0.9489,0.9052,0.9052,0.8024,0.7423,0.7294,0.7294,0.7228,0.7095,0.7095,0.7095,0.7095,0.7095,0.7095,0.7095,0.7095,0.7095,0.7095,0.7095,0.7095,0.7095,0.7095,0.7095,0.7095,0.7095,0.7095,0.7095,0.0,0.0,0.0,0.0,0.0,0.0,0.0,0.0,0.0,0.0,0.0,0.0,0.0,0.0,0.0,0.0,0.0,0.0,0.0,0.0,0.0,0.0,0.0,0.0,0.0,0.0,0.0,0.0,0.0,0.0182,0.0555,0.1057,0.1507,0.1909,0.2461,0.2895,0.3276,0.3699,0.3867,0.3849,0.4059,0.3708,0.3049,0.3138,0.3165,0.3218,0.3649,0.4098,0.0,0.3959,0.4111,0.4505,0.4505,0.4505,0.4505,0.4505,0.4505,0.4505,0.4505,0.4505,0.4505,0.0,0.4505,0.4505,0.4505,0.4607,0.4714,0.4806,0.5263,0.5681,0.5794,0.6591,0.7242,0.0,0.7783,0.8291,0.8559,0.8716,0.8918,0.9252,1.0051,1.0552,1.0552,1.0552,1.0447,1.014,0.9782,0.9455,0.9164,0.833,0.7863,0.7863,0.736,0.7095,0.7095,0.7095,0.7095,0.7095,0.7095,0.7095,0.7095,0.7095,0.7095,0.7095,0.7095,0.7095,0.7095,0.7095,0.7095,0.7095,0.7095,0.7095,0.7095,0.7095,0.7095,0.7095,0.0,0.0,0.0,0.0,0.0,0.0,0.0,0.0,0.0,0.0,0.0,0.0,0.0,0.0,0.0,0.0,0.0,0.0,0.0,0.0,0.0,0.0,0.0,0.0,0.0,0.0,0.0,0.0,0.0,0.0,0.0016,0.064,0.0934,0.0967,0.1654,0.2095,0.2352,0.2877,0.2945,0.2729,0.3128,0.2842,0.2177,0.219,0.2077,0.1995,0.2732,0.3372,0.3777,0.319,0.3386,0.386,0.386,0.386,0.386,0.386,0.4029,0.4198,0.4167,0.4336,0.0,0.4505,0.4522,0.4552,0.4552,0.4688,0.4843,0.494,0.5078,0.5226,0.5375,0.5914,0.6346,0.6346,0.7013,0.7602,0.7795,0.7997,0.8193,0.8447,0.8466,0.8466,0.8466,0.9009,0.93,0.9157,0.8584,0.8196,0.8037,0.745,0.7095,0.7095,0.7095,0.7095,0.7095,0.7095,0.7095,0.7095,0.7095,0.7095,0.7095,0.7095,0.7095,0.7073,0.676,0.6628,0.6628,0.6628,0.6628,0.6672,0.6985,0.7095,0.7095,0.7095,0.7095,0.7095,0.0,0.0,0.0,0.0,0.0,0.0,0.0,0.0,0.0,0.0,0.0,0.0,0.0,0.0,0.0,0.0,0.0,0.0,0.0,0.0,0.0,0.0,0.0,0.0,0.0,0.0,0.0,0.0,0.0,0.0,0.0,0.0031,0.0046,0.0046,0.0062,0.0556,0.1342,0.1372,0.1895,0.2686,0.2586,0.2053,0.1404,0.1979,0.1758,0.1229,0.1967,0.2246,0.2272,0.2246,0.2246,0.2272,0.2272,0.2272,0.0,0.2272,0.2815,0.3414,0.3359,0.0,0.4505,0.4505,0.4604,0.4698,0.4698,0.4892,0.5086,0.5093,0.5247,0.5388,0.5395,0.5428,0.5445,0.5445,0.5689,0.5886,0.5889,0.6173,0.637,0.6393,0.6396,0.6396,0.0,0.8266,0.9142,0.8307,0.833,0.8023,0.7188,0.7114,0.7095,0.7095,0.7095,0.7095,0.7095,0.7095,0.7095,0.7095,0.7095,0.7095,0.7095,0.7095,0.7095,0.7029,0.5938,0.5447,0.5447,0.5447,0.5447,0.5558,0.6672,0.7095,0.7095,0.7095,0.7095,0.7095,0.0,0.0,0.0,0.0,0.0,0.0,0.0,0.0,0.0,0.0,0.0,0.0,0.0,0.0,0.0,0.0,-0.0448,-0.0518,-0.0028,-0.0462,-0.0518,-0.0028,0.0,0.0,0.0,0.0,0.0,0.0,0.0,0.0,0.0,0.0,0.0,0.0,0.0,0.017,0.0462,0.0964,0.1059,0.0953,0.1396,0.1122,0.0455,0.066,0.0588,0.0406,0.0,0.1369,0.212,0.1633,0.0,0.0,0.2202,0.0,0.0,0.2202,0.2774,0.3386,0.3317,0.0,0.4627,0.4627,0.4728,0.4828,0.4828,0.4977,0.51,0.51,0.4759,0.4652,0.5276,0.4891,0.4669,0.5292,0.5627,0.58,0.58,0.6086,0.63,0.63,0.63,0.0,0.0,0.0,0.0,0.7218,0.732,0.7311,0.711,0.7095,0.7095,0.7095,0.7095,0.7095,0.7095,0.7095,0.6716,0.596,0.5154,0.4772,0.4772,0.4772,0.4772,0.475,0.4372,0.4196,0.4196,0.4196,0.4196,0.4239,0.4616,0.4772,0.4772,0.4772,0.4772,0.4883,0.0,0.0,0.0,0.0,0.0,0.0,0.0,0.0,0.0,0.0,0.0,0.0,0.0,0.0,0.0,0.0,0.0,-0.1006,-0.0797,-0.1229,-0.1284,-0.0811,-0.0783,-0.0783,-0.0783,-0.0783,-0.065,-0.039,-0.039,-0.0263,0.0,0.0,0.0,0.0,0.0,0.0,0.003,0.051,0.0434,0.0043,0.0522,0.042,0.0,0.0,0.0,0.0,0.0,0.0615,0.134,0.0866,0.0,0.0,0.0,0.0,0.0,0.141,0.1966,0.2571,0.2532,0.3142,0.3803,0.3803,0.3921,0.4045,0.4045,0.4149,0.4248,0.4248,0.3866,0.3713,0.4317,0.4201,0.4201,0.4805,0.5415,0.58,0.58,0.6086,0.63,0.63,0.6344,0.6412,0.0,0.0,0.0,0.6773,0.6897,0.7001,0.7092,0.7095,0.7095,0.7095,0.7095,0.7095,0.7095,0.6694,0.5913,0.4754,0.3972,0.3592,0.3592,0.3592,0.3592,0.357,0.3148,0.2948,0.2948,0.2948,0.2948,0.2992,0.3436,0.3592,0.3592,0.3592,0.3325,0.3126,0.0,0.0,0.0,0.0,0.0,0.0,0.0,0.0,0.0,0.0,0.0,0.0,0.0,0.0,0.0,0.0,0.0,0.0,-0.216,-0.2232,-0.2246,-0.2202,-0.2202,-0.2202,-0.2202,-0.2202,-0.1856,-0.116,-0.116,-0.0783,-0.0056,-0.0056,-0.0042,0.0,0.0,0.0,0.0,0.0,0.0,0.0,0.0,0.0,0.0,0.0,0.0,0.0,0.0,0.0,0.0,0.0,0.0,0.0,0.0,0.0,0.0,0.0,0.0518,0.1101,0.1106,0.1647,0.221,0.2216,0.2364,0.2513,0.2513,0.2612,0.2694,0.2694,0.2661,0.2644,0.0,0.0,0.3949,0.3999,0.501,0.58,0.58,0.6086,0.6303,0.0,0.0,0.0,0.0,0.0,0.0,0.6832,0.0,0.7095,0.7095,0.7051,0.7007,0.7007,0.6959,0.6918,0.6918,0.578,0.4643,0.3503,0.3436,0.3414,0.3414,0.3414,0.3414,0.3349,0.2214,0.1701,0.1701,0.1701,0.1701,0.1812,0.297,0.3414,0.3414,0.3414,0.2681,0.1879,0.0,0.0,0.0,0.0,0.0,0.0,0.0,0.0,0.0,0.0,0.0,0.0,0.0,0.0,0.0,0.0,0.0,0.0,-0.2188,-0.2716,-0.2774,-0.2232,-0.2202,-0.2202,-0.2202,-0.2202,-0.2106,-0.1925,-0.1925,-0.1535,-0.0825,-0.0825,-0.0532,0.0,0.0,0.0,0.0,0.0,0.0,0.0,0.0,0.0,0.0,0.0,0.0,0.0,0.0,0.0,0.0,0.0,0.0,0.0,0.0,0.0,0.0,0.0,0.0,0.1104,0.1098,0.1746,0.2423,0.2426,0.2533,0.265,0.265,0.2681,0.2694,0.2694,0.2143,0.1876,0.0,0.0,0.0,0.3899,0.501,0.0,0.58,0.6086,0.0,0.6446,0.0,0.6583,0.6769,0.686,0.0,0.0,0.6609,0.7095,0.7095,0.6293,0.5827,0.5827,0.4952,0.4483,0.4483,0.3306,0.2571,0.2258,0.1344,0.0919,0.0919,0.0919,0.0919,0.0897,0.0583,0.0449,0.0449,0.0449,0.0449,0.0494,0.0807,0.0919,0.0919,0.0919,0.0718,0.0494,0.0,0.0,0.0,0.0,0.0,0.0,0.0,0.0,0.0,0.0,0.0,0.0,0.0,0.0,0.0,0.0,0.0,0.0,0.0,-0.3594,-0.3635,-0.3231,-0.3204,-0.3204,-0.3204,-0.3204,-0.3051,-0.2732,-0.269,-0.2299,-0.1577,-0.1577,-0.1188,-0.0476,-0.0476,-0.0308,0.0,0.0,0.0,0.0,0.0,0.0,0.0,0.0,0.0,0.0,0.0,0.0,0.0,0.0,0.0,0.0,0.0,0.0,0.0,0.0,0.0,0.0621,0.0624,0.1005,0.1404,0.1407,0.146,0.1509,0.1509,0.1509,0.1509,0.1509,0.1091,0.0,0.1427,0.0,0.0,0.0,0.0,0.0,0.4524,0.475,0.493,0.0,0.506,0.0,0.5304,0.541,0.5222,0.0,0.5692,0.6113,0.5597,0.4952,0.4619,0.4619,0.395,0.3349,0.2815,0.2147,0.1545,0.1008,0.0314,0.0,0.0,0.0,0.0,0.0,0.0,0.0,0.0,0.0,0.0,0.0,0.0,0.0,0.0,0.0,0.0,0.0,0.0,0.0,0.0,0.0,0.0,0.0,0.0,0.0,0.0,0.0,0.0,0.0,0.0,0.0,0.0,0.0,0.0,0.0,0.0,0.0,-0.4505,-0.4505,-0.4505,-0.4505,-0.4505,-0.4505,-0.4181,-0.3541,-0.3483,-0.3079,-0.2343,-0.2357,-0.1966,-0.1243,-0.1146,-0.0741,-0.014,-0.0042,0.0,0.0,0.0,0.0,0.0,0.0,0.0,0.0,0.0,0.0,0.0,0.0,0.0,0.0,0.0,0.0,0.0,0.0,0.0,0.0,0.0,0.0,0.0,0.0,0.0,0.0,0.0,0.0,0.0,0.0,0.0,0.0,0.0,0.0706,0.1307,0.1307,0.0,0.2905,0.2894,0.3007,0.3114,0.3132,0.3227,0.3321,0.3339,0.349,0.3525,0.3371,0.433,0.4532,0.3636,0.3458,0.328,0.3126,0.3126,0.2614,0.1567,0.1567,0.1031,0.0,0.0,0.0,0.0,0.0,0.0,0.0,0.0,0.0,0.0,0.0,0.0,0.0,0.0,0.0,0.0,0.0,0.0,0.0,0.0,0.0,0.0,0.0,0.0,0.0,0.0,0.0,0.0,0.0,0.0,0.0,0.0,0.0,0.0,0.0,0.0,0.0,0.0,0.0,0.0,-0.4505,-0.4505,-0.4505,-0.4505,-0.4505,-0.4436,-0.4308,-0.4294,-0.3887,-0.3107,-0.3165,-0.2774,-0.1981,-0.1369,-0.1034,-0.0866,-0.0252,0.0,0.0,0.0,0.0,0.0,0.0,0.0,0.0,0.0,0.0,0.0,0.0,0.0,0.0,0.0,0.0,0.0,0.0,0.0,0.0,0.0,0.0,0.0,0.0,0.0,0.0,0.0,0.0,0.0,0.0,0.0,0.0,0.0,0.0706,0.1307,0.1307,0.0,0.0,0.0,0.0,0.3135,0.0,0.0,0.0,0.0,0.0,0.0,0.0,0.0,0.2771,0.3547,0.2659,0.1657,0.0651,0.0628,0.0516,0.0314,0.0314,0.0202,0.0,0.0,0.0,0.0,0.0,0.0,0.0,0.0,0.0,0.0,0.0,0.0,0.0,0.0,0.0,0.0,0.0,0.0,0.0,0.0,0.0,0.0,0.0,0.0,0.0,0.0,0.0,0.0,0.0,0.0,0.0,0.0,-0.1006,-0.1675,0.0,0.0,0.0,0.0,0.0,0.0,0.0,0.0,0.0,0.0,-0.4505,0.0,0.0,0.0,0.0,0.0,0.0,0.0,0.0,0.0,-0.1813,-0.1076,-0.0727,-0.035,0.0,0.0,0.0,0.0,0.0,0.0,0.0,0.0,0.0,0.0,0.0,0.0,0.0,0.0,0.0,0.0,0.0,0.0,0.0,0.0,0.0,0.0,0.0,0.0,0.0,0.0,0.0,0.0,0.0,0.0,0.0,0.0,0.0337,0.0,0.0622,0.0,0.0,0.0,0.0,0.0,0.0,0.0,0.0,0.0,0.0,0.0,0.0,0.0,0.1121,0.1701,0.1188,0.0606,0.0022,0.0,0.0,0.0,0.0,0.0,0.0,0.0,0.0,0.0,0.0,0.0,0.0,0.0,0.0,0.0,0.0,0.0,0.0,0.0,0.0,0.0,0.0,0.0,0.0,0.0,0.0,0.0,0.0,0.0,0.0,0.0,0.0,0.0,0.0,0.0,0.0,0.0,-0.1174,-0.2023,0.0,0.0,0.0,0.0,0.0,0.0,0.0,0.0,0.0,0.0,0.0,0.0,0.0,0.0,0.0,0.0,0.0,0.0,0.0,0.0,0.0,0.0,-0.1243,-0.0769,0.0,0.0,0.0,0.0,0.0,0.0,0.0,0.0,0.0,0.0,0.0,0.0,0.0,0.0,0.0,0.0,0.0,0.0,0.0,0.0,0.0,0.0,0.0,0.0,0.0,0.0,0.0,0.0,0.0,0.0,0.0,0.0,0.0,0.0,0.0,0.0,0.0,0.0,0.0,0.0,0.0,0.0,0.0,0.0,0.0,0.0,0.0,0.0,0.0,0.0,0.0,0.0,0.0,0.0,0.0,0.0,0.0,0.0,0.0,0.0,0.0,0.0,0.0,0.0,0.0,0.0,0.0,0.0,0.0,0.0,0.0,0.0,0.0,0.0,0.0,0.0,0.0,0.0,0.0,0.0,0.0,0.0,0.0,0.0,0.0,0.0,0.0,0.0,0.0,0.0,-0.0713,-0.1466,0.0,0.0,0.0,0.0,0.0,0.0,0.0,0.0,0.0,0.0,0.0,0.0,0.0,0.0,0.0,0.0,0.0,0.0,0.0,0.0,0.0,0.0,0.0,0.0,0.0,0.0,0.0,0.0,0.0,0.0,0.0,0.0,0.0,0.0,0.0,0.0,0.0,0.0,0.0,0.0,0.0,0.0,0.0,0.0,0.0,0.0,0.0,0.0,0.0,0.0,0.0,0.0,0.0,0.0,0.0,0.0,0.0,0.0,0.0,0.0,0.0,0.0,0.0,0.0,0.0,0.0,0.0,0.0,0.0,0.0,0.0,0.0,0.0,0.0,0.0,0.0,0.0,0.0,0.0,0.0,0.0,0.0,0.0,0.0,0.0,0.0,0.0,0.0,0.0,0.0,0.0,0.0,0.0,0.0,0.0,0.0,0.0,0.0,0.0,0.0,0.0,0.0,0.0,0.0,0.0,0.0,0.0,0.0,0.0,0.0,0.0,0.0,-0.0168,-0.0615,-0.0532,-0.0909,-0.2093,-0.294,0.0,0.0,0.0,0.0,0.0,0.0,0.0,0.0,0.0,-0.4505,-0.4505,0.0,0.0,0.0,0.0,0.0,0.0,0.0,0.0,0.0,0.0,0.0,0.0,0.0,0.0,0.0,0.0,0.0,0.0,0.0,0.0,0.0,0.0,0.0,0.0,0.0,0.0,0.0,0.0,0.0,0.0,0.0,0.0,0.0,0.0,0.0,0.0,0.0,0.0,0.0,0.0,0.0,0.0,0.0,0.0,0.0,0.0,0.0,0.0,0.0,0.0,0.0,0.0,0.0,0.0,0.0,0.0,0.0,0.0,0.0,0.0,0.0,0.0,0.0,0.0,0.0,0.0,0.0,0.0,0.0,0.0,0.0,0.0,0.0,0.0,0.0,0.0,0.0,0.0,0.0,0.0,0.0,0.0,0.0,0.0,0.0,0.0,0.0,0.0,0.0,0.0,0.0,0.0,0.0,0.0,0.0,0.0,0.0,0.0,0.0,-0.0196,-0.0713,-0.0308,-0.0588,-0.2077,-0.2718,0.0,0.0,0.0,0.0,0.0,0.0,0.0,0.0,0.0,-0.4505,-0.4505,-0.4505,-0.4505,0.0,0.0,0.0,0.0,0.0,0.0,0.0,0.0,0.0,0.0,0.0,0.0,0.0,0.0,0.0,0.0,0.0,0.0,0.0,0.0,0.0,0.0,0.0,0.0,0.0,0.0,0.0,0.0,0.0,0.0,0.0,0.0,0.0,0.0,0.0,0.0,0.0,0.0,0.0,0.0,0.0,0.0,0.0,0.0,0.0,0.0,0.0,0.0,0.0,0.0,0.0,0.0,0.0,0.0,0.0,0.0,0.0,0.0,0.0,0.0,0.0,0.0,0.0,0.0,0.0,0.0,0.0,0.0,0.0,0.0,0.0,0.0,0.0,0.0,0.0,0.0,0.0,0.0,0.0,0.0,0.0,0.0,0.0,0.0,0.0,0.0,0.0,0.0,0.0,0.0,0.0,0.0,0.0,0.0,0.0,0.0,0.0,0.0,-0.0014,0.0,-0.0588,-0.2077,-0.2202,0.0,0.0,0.0,0.0,0.0,0.0,0.0,-0.4505,-0.4505,-0.4505,-0.4505,-0.4505,-0.4505,-0.4505,-0.4505,-0.4505,0.0,0.0,0.0,0.0,0.0,0.0,0.0,0.0,0.0,0.0,0.0,0.0,0.0,0.0,0.0,0.0,0.0,0.0,0.0,0.0,0.0,0.0,0.0,0.0,0.0,0.0,0.0,0.0,0.0,0.0,0.0,0.0,0.0,0.0,0.0,0.0,0.0,0.0,0.0,0.0,0.0,0.0,0.0,0.0,0.0,0.0,0.0,0.0,0.0,0.0,0.0,0.0,0.0,0.0,0.0,0.0,0.0,0.0,0.0,0.0,0.0,0.0,0.0,0.0,0.0,0.0,0.0,0.0,0.0,0.0,0.0,0.0,0.0,0.0,0.0,0.0,0.0,0.0,0.0,0.0,0.0,0.0,0.0,0.0,0.0,0.0,0.0,0.0,0.0,0.0,0.0,0.0,0.0,0.0,0.0,0.0,0.0,-0.0182,-0.0657,-0.1619,0.0,0.0,0.0,0.0,0.0,0.0,0.0,-0.4505,-0.4505,-0.4505,-0.4505,-0.4505,-0.4505,-0.4505,-0.4505,-0.4208,-0.3694,0.0,0.0,0.0,0.0,0.0,0.0,0.0,-0.1104,-0.0056,0.0,0.0,0.0,0.0,0.0,0.0,0.0,0.0,0.0,0.0,0.0,0.0,0.0,0.0,0.0,0.0,0.0,0.0,0.0,-0.0381,-0.0779,-0.0868,-0.1318,-0.174,-0.1826,-0.1843,-0.1643,-0.1006,-0.089,-0.0689,-0.0101,0.0,0.0,0.0,0.0,0.0,0.0,0.0,0.0,0.0,0.0,0.0,0.0,0.0,0.0,0.0,0.0,0.0,0.0,0.0,0.0,0.0,0.0,0.0,0.0,0.0,0.0,0.0,0.0,0.0,0.0,0.0,0.0,0.0,0.0,0.0,0.0,0.0,0.0,0.0,0.0,0.0,0.0,0.0,0.0,0.0,0.0,0.0,0.0,0.0,0.0,0.0,0.0,0.0,0.0,0.0,0.0,-0.0112,-0.0392,-0.1257,0.0,0.0,0.0,0.0,0.0,0.0,0.0,-0.4505,-0.4505,-0.4505,-0.4505,-0.4505,-0.4505,-0.4505,-0.4505,-0.4236,-0.3763,-0.3987,-0.3987,0.0,0.0,0.0,0.0,-0.2009,-0.148,-0.0462,0.0,0.0,0.0,0.0,0.0,0.0,0.0,0.0,0.0,0.0,0.0,0.0,0.0,-0.042,-0.035,-0.007,-0.021,-0.035,-0.007,-0.0769,-0.1478,-0.1335,-0.1923,-0.2532,-0.268,-0.2694,-0.2527,-0.1941,-0.1825,-0.1659,-0.1108,-0.0723,0.0,0.0,0.0,0.0,0.0,0.0,0.0,0.0,0.0,0.0,0.0,0.0,0.0,0.0,0.0,0.0,0.0,0.0,0.0,0.0,0.0,0.0,0.0,0.0,0.0,0.0,0.0,0.0,0.0,0.0,0.0,0.0,0.0,0.0,0.0,0.0,0.0,0.0,0.0,0.0,0.0,0.0,0.0,0.0,0.0,0.0,0.0,0.0,0.0,0.0,0.0,0.0,0.0,0.0,0.0,-0.028,-0.0964,-0.102,0.0,0.0,0.0,0.0,0.0,0.0,-0.4505,-0.4505,-0.4505,-0.4505,-0.4505,-0.4505,-0.4505,-0.4505,-0.4505,-0.4474,-0.4391,-0.3763,-0.386,-0.4446,0.0,0.0,0.0,-0.2218,-0.1758,0.0,0.0,0.0,0.0,0.0,0.0,0.0,0.0,0.0,0.0,0.0,0.0,0.0,0.0,0.0,0.0,0.0,-0.0615,-0.102,-0.0322,-0.1229,-0.2143,-0.1607,-0.209,0.0,-0.2861,-0.2895,-0.2878,-0.2811,-0.2794,-0.2778,-0.2711,-0.1976,0.0,0.0,0.0,0.0,0.0,0.0,0.0,0.0,0.0,0.0,0.0,0.0,0.0,0.0,0.0,0.0,0.0,0.0,0.0,0.0,0.0,0.0,0.0,0.0,0.0,0.0,0.0,0.0,0.0,0.0,0.0,0.0,0.0,0.0,0.0,0.0,0.0,0.0,0.0,0.0,0.0,0.0,0.0,0.0,0.0,0.0,0.0,0.0,0.0,0.0,0.0,0.0,0.0,0.0,0.0,-0.007,0.0,0.0,0.0,0.0,0.0,0.0,0.0,-0.407,-0.4505,-0.4505,-0.4505,-0.4505,-0.4505,-0.4505,-0.4505,-0.4505,-0.4505,-0.4167,-0.3608,-0.4042,-0.4336,-0.4446,-0.3694,0.0,0.0,-0.2425,-0.1758,0.0,0.0,0.0,0.0,-0.0643,-0.0838,0.0,0.0,0.0,0.0,0.0,0.0,0.0,0.0,-0.1062,-0.1786,-0.1048,0.0,-0.1898,-0.173,-0.2369,-0.3077,0.0,-0.3796,-0.4423,-0.4701,0.0,-0.4553,-0.383,-0.3697,-0.348,-0.2811,0.0,0.0,0.0,0.0,0.0,0.0,0.0,0.0,0.0,0.0,0.0,0.0,0.0,0.0,0.0,0.0,0.0,0.0,0.0,0.0,0.0,0.0,0.0,0.0,0.0,0.0,0.0,0.0,0.0,0.0,0.0,0.0,0.0,0.0,0.0,0.0,0.0,0.0,0.0,0.0,0.0,0.0,0.0,0.0,0.0,0.0,0.0,0.0,0.0,0.0,0.0,0.0,0.0,0.0,0.0,0.0,0.0,0.0,0.0,0.0,0.0,0.0,0.0,-0.2801,-0.3887,-0.4505,-0.4505,-0.4505,-0.4505,-0.4505,-0.4505,-0.4505,-0.4505,-0.4505,-0.4267,-0.3873,-0.4308,-0.4308,-0.3946,-0.3178,-0.3037,-0.3275,-0.2508,0.0,0.0,0.0,0.0,0.0,-0.1466,-0.1605,0.0,-0.2063,-0.1938,-0.1605,0.0,0.0,0.0,0.0,-0.212,-0.2732,-0.2676,-0.2704,-0.2663,-0.2286,-0.3037,-0.3846,-0.3804,-0.4363,-0.4987,0.0,0.0,-0.5243,-0.4738,-0.4284,0.0,0.0,-0.2875,0.0,0.0,0.0,0.0,0.0,0.0,0.0,0.0,0.0,0.0,0.0,0.0,0.0,0.0,0.0,0.0,0.0,0.0,0.0,0.0,0.0,0.0,0.0,0.0,0.0,0.0,0.0,0.0,0.0,0.0,0.0,0.0,0.0,0.0,0.0,0.0,0.0,0.0,0.0,0.0,0.0,0.0,0.0,0.0,0.0,0.0,0.0,0.0,0.0,0.0,0.0,0.0,0.0,0.0,0.0,0.0,0.0,0.0,0.0,0.0,0.0,-0.2259,-0.2385,-0.3749,-0.4505,-0.4505,-0.4505,-0.4505,-0.4505,-0.4505,-0.4505,-0.4505,-0.4505,-0.4505,-0.4505,-0.4505,-0.4153,-0.3525,-0.2843,-0.294,-0.3483,-0.2565,0.0,0.0,0.0,0.0,0.0,0.0,0.0,0.0,-0.2508,-0.2482,-0.2383,-0.2369,0.0,0.0,0.0,0.0,0.0,-0.4198,-0.3959,-0.34,-0.2718,-0.3539,-0.4415,-0.4044,0.0,0.0,0.0,0.0,0.0,0.0,-0.4652,0.0,0.0,0.0,0.0,0.0,0.0,0.0,0.0,0.0,0.0,0.0,0.0,0.0,0.0,0.0,0.0,0.0,0.0,0.0,0.0,0.0,0.0,0.0,0.0,0.0,0.0,0.0,0.0,0.0,0.0,0.0,0.0,0.0,0.0,0.0,0.0,0.0,0.0,0.0,0.0,0.0,0.0,0.0,0.0,0.0,0.0,0.0,0.0,0.0,0.0,0.0,0.0,0.0,0.0,0.0,0.0,0.0,0.0,0.0,0.0,0.0,0.0,0.0,-0.173,-0.2508,-0.3192,-0.4042,-0.4505,-0.4505,-0.4505,-0.4505,-0.4505,-0.4505,-0.4505,-0.4505,-0.4505,-0.4505,-0.4505,-0.4505,-0.4436,-0.4322,-0.4198,-0.4222,-0.4211,-0.2774,0.0,0.0,0.0,0.0,0.0,0.0,0.0,0.0,-0.3915,-0.3735,-0.3206,-0.3148,0.0,0.0,0.0,0.0,0.0,-0.3707,-0.3946,-0.4308,-0.4181,-0.4322,-0.4541,-0.4697,-0.4811,-0.4987,0.0,0.0,0.0,0.0,-0.4755,0.0,0.0,0.0,0.0,0.0,0.0,0.0,0.0,0.0,0.0,0.0,0.0,0.0,0.0,0.0,0.0,0.0,0.0,0.0,0.0,0.0,0.0,0.0,0.0,0.0,0.0,0.0,0.0,0.0,0.0,0.0,0.0,0.0,0.0,0.0,0.0,0.0,0.0,0.0,0.0,0.0,0.0,0.0,0.0,0.0,0.0,0.0,0.0,0.0,0.0,0.0,0.0,0.0,0.0,0.0,0.0,0.0,0.0,0.0,0.0,0.0,0.0,0.0,-0.1786,-0.2565,-0.3359,-0.3721,-0.4098,-0.4491,-0.4505,-0.4505,-0.4505,-0.4505,-0.4505,-0.4505,-0.4505,-0.4505,-0.4505,-0.4505,-0.4505,-0.4474,-0.4042,-0.4098,-0.4405,0.0,0.0,0.0,0.0,0.0,0.0,0.0,0.0,0.0,0.0,-0.428,-0.3987,-0.3959,0.0,0.0,0.0,0.0,0.0,-0.4084,-0.4236,-0.4522,-0.4593,-0.4614,-0.4678,-0.495,-0.5002,-0.5078,0.0,0.0,0.0,0.0,0.0,0.0,0.0,0.0,0.0,0.0,0.0,0.0,0.0,0.0,0.0,0.0,0.0,0.0,0.0,0.0,0.0,0.0,0.0,0.0,0.0,0.0,0.0,0.0,0.0,0.0,0.0,0.0,0.0,0.0,0.0,0.0,0.0,0.0,0.0,0.0,0.0,0.0,0.0,0.0,0.0,0.0,0.0,0.0,0.0,0.0,0.0,0.0,0.0,0.0,0.0,0.0,0.0,0.0,0.0,0.0,0.0,0.0,0.0,0.0,0.0,0.0,0.0,0.0,-0.1952,-0.2732,-0.3345,-0.3552,-0.3915,-0.4491,-0.4505,-0.4505,-0.4505,-0.4505,-0.4505,-0.4505,-0.4505,-0.4505,-0.4505,-0.4505,-0.4505,-0.446,-0.3846,-0.3929,-0.4436,0.0,0.0,0.0,0.0,0.0,0.0,0.0,0.0,0.0,0.0,0.0,0.0,0.0,0.0,0.0,-0.4505,-0.4505,-0.4505,-0.4505,-0.4515,-0.458,-0.4707,-0.4718,-0.4769,-0.5032,-0.51,0.0,0.0,0.0,0.0,0.0,0.0,0.0,0.0,0.0,0.0,0.0,0.0,0.0,0.0,0.0,0.0,0.0,0.0,0.0,0.0,0.0,0.0,0.0,0.0,0.0,0.0,-0.0269,-0.0292,0.0,-0.0269,-0.0269,0.0,-0.0292,-0.0272,0.0,-0.03,-0.0259,0.0,0.0,0.0,0.0,0.0,0.0,0.0,0.0,0.0,0.0,0.0,0.0,0.0,0.0,0.0,0.0,0.0,0.0,0.0,0.0,0.0,0.0,0.0,0.0,0.0,0.0,0.0,0.0,0.0,0.0,0.0,-0.1104,-0.2426,-0.3248,-0.3301,-0.4029,-0.4446,-0.4505,-0.4505,-0.4505,-0.4505,-0.4505,-0.4505,-0.4505,-0.4505,-0.4505,-0.4505,-0.4505,-0.4505,-0.4491,-0.4436,-0.4446,-0.4436,-0.3622,0.0,0.0,0.0,0.0,0.0,0.0,0.0,0.0,0.0,0.0,0.0,0.0,0.0,-0.4505,-0.4505,-0.4505,-0.4505,-0.4505,-0.4593,-0.4711,-0.4848,-0.4796,-0.4769,-0.5032,-0.51,0.0,-0.5361,0.0,0.0,0.0,0.0,0.0,0.0,0.0,0.0,0.0,0.0,0.0,0.0,0.0,0.0,0.0,0.0,0.0,0.0,0.0,0.0,0.0,0.0,0.0,0.0,-0.1076,-0.1143,0.0,-0.1121,-0.1098,-0.0022,-0.1143,-0.1077,-0.0045,-0.1168,-0.1064,0.0,0.0,0.0,0.0,0.0,0.0,0.0,0.0,0.0,0.0,0.0,0.0,0.0,0.0,0.0,0.0,0.0,0.0,0.0,0.0,0.0,0.0,0.0,0.0,0.0,0.0,0.0,0.0,0.0,0.0,0.0,-0.1758,-0.2299,-0.3051,-0.4001,-0.3901,-0.4029,-0.4491,-0.4505,-0.4505,-0.4505,-0.4505,-0.4505,-0.4505,-0.4505,-0.4505,-0.4505,-0.4505,-0.4505,-0.4505,-0.4505,-0.4505,-0.4474,-0.4167,-0.4222,0.0,0.0,0.0,0.0,0.0,0.0,0.0,0.0,-0.4505,-0.4505,-0.4505,-0.4505,-0.4505,-0.4505,-0.4505,-0.4525,-0.4607,-0.4661,-0.4748,-0.4974,-0.499,0.0,0.0,-0.4843,-0.4443,-0.4508,-0.3816,0.0,0.0,0.0,0.0,0.0,0.0,0.0,0.0,0.0,0.0,0.0,0.0,0.0,0.0,0.0,0.0,0.0,0.0,0.0,0.0,-0.0718,-0.1121,-0.1121,-0.1567,-0.1946,-0.2236,-0.121,-0.121,-0.2236,-0.1946,-0.1946,-0.2236,-0.194,-0.1551,-0.1086,-0.0326,0.0,0.0,0.0,0.0,0.0,0.0,0.0,0.0,0.0,0.0,0.0,0.0,0.0,0.0,0.0,0.0,0.0,0.0,0.0,0.0,0.0,0.0,0.0,0.0,0.0,0.0,0.0,0.0,0.0,-0.1493,-0.2174,-0.294,-0.3735,-0.3763,-0.3987,-0.4491,-0.4505,-0.4505,-0.4505,-0.4505,-0.4505,-0.4505,-0.4505,-0.4505,-0.4505,-0.4505,-0.4505,-0.4505,-0.4505,-0.4505,-0.4505,-0.4505,-0.4505,0.0,0.0,0.0,0.0,0.0,0.0,0.0,0.0,-0.4505,-0.4505,-0.4505,-0.4505,-0.4512,-0.4549,-0.4349,-0.4152,-0.4305,-0.4388,-0.4387,-0.4303,0.0,0.0,-0.4582,-0.4267,-0.3915,-0.3647,-0.2881,0.0,0.0,0.0,0.0,0.0,0.0,0.0,0.0,0.0,0.0,0.0,0.0,0.0,0.0,0.0,0.0,0.0,0.0,0.0,0.0,-0.1567,-0.179,-0.179,-0.179,-0.2191,-0.3014,-0.1768,-0.2148,-0.415,-0.3328,-0.3172,-0.3592,-0.315,-0.2725,-0.2307,-0.1098,-0.0577,-0.0538,-0.0165,0.0,0.0,0.0,0.0,0.0,0.0,0.0,0.0,0.0,0.0,0.0,0.0,0.0,0.0,0.0,0.0,0.0,0.0,0.0,0.0,0.0,0.0,0.0,0.0,0.0,0.0,-0.007,-0.2148,-0.3051,-0.2259,-0.368,-0.4505,-0.4505,-0.4505,-0.4505,-0.4505,-0.4505,-0.4505,-0.4505,-0.4505,-0.4505,-0.4505,-0.4505,-0.4505,-0.4505,-0.4505,-0.4505,-0.4505,-0.4505,-0.4505,-0.4505,0.0,0.0,0.0,0.0,0.0,0.0,0.0,-0.4505,-0.4505,-0.4505,-0.4505,-0.4522,-0.4664,-0.4045,-0.3362,-0.3562,-0.37,-0.3589,0.0,0.0,0.0,-0.2878,-0.3347,-0.373,-0.2863,0.0,-0.1032,-0.0158,0.0,0.0,0.0,0.0,0.0,0.0,0.0,0.0,0.0,0.0,0.0,0.0,0.0,0.0,0.0,0.0,0.0,0.0,-0.248,-0.1835,-0.1835,-0.1835,-0.1835,-0.1857,-0.3014,-0.4219,-0.5425,-0.5403,-0.4776,-0.3681,-0.4865,-0.4754,-0.3547,-0.2348,-0.1812,-0.1704,-0.0504,0.0,0.0,0.0,0.0,0.0,0.0,0.0,0.0,0.0,0.0,0.0,0.0,0.0,0.0,0.0,0.0,0.0,0.0,0.0,0.0,0.0,0.0,0.0,0.0,0.0,0.0,-0.1521,-0.2704,-0.3525,-0.3804,-0.4253,-0.4505,-0.4505,-0.4505,-0.4505,-0.4505,-0.4505,-0.4505,-0.4505,-0.4505,-0.4505,-0.4505,-0.4505,-0.4505,-0.4505,-0.4505,-0.4505,-0.4505,-0.4505,-0.4505,-0.4505,0.0,0.0,0.0,0.0,0.0,0.0,0.0,0.0,0.0,-0.4617,-0.4637,-0.4668,-0.4806,-0.4637,-0.4454,-0.4618,-0.4236,0.0,-0.3603,0.0,0.0,0.0,-0.1908,0.0,0.0,-0.0575,-0.0302,-0.0055,0.0,0.0,0.0,0.0,0.0,0.0,0.0,0.0,0.0,0.0,0.0,0.0,0.0,0.0,0.0,0.0,0.0,0.0,-0.4063,-0.4332,-0.4332,-0.4332,-0.471,-0.5509,-0.4239,-0.4616,-0.6583,-0.578,-0.5625,-0.6043,-0.5603,-0.5201,-0.4799,-0.3594,-0.2592,-0.1702,-0.0497,0.0,0.0,0.0,0.0,0.0,0.0,0.0,0.0,0.0,0.0,0.0,0.0,0.0,0.0,0.0,0.0,0.0,0.0,0.0,0.0,0.0,0.0,0.0,0.0,0.0,0.0,-0.173,-0.276,-0.3566,-0.4042,-0.4349,-0.4505,-0.4505,-0.4505,-0.4505,-0.4505,-0.4505,-0.4505,-0.4505,-0.4505,-0.4505,-0.4505,-0.4505,-0.4505,-0.4505,-0.4505,-0.4505,-0.4505,-0.4505,-0.4505,-0.4505,0.0,0.0,0.0,0.0,0.0,0.0,0.0,0.0,0.0,-0.4752,-0.4782,-0.4735,-0.4522,-0.4221,-0.3888,-0.3655,-0.3211,0.0,-0.2484,-0.2278,-0.1909,-0.099,0.0,0.0,0.0,0.0,0.0,0.0,0.0,0.0,0.0,0.0,0.0,0.0,0.0,0.0,0.0,0.0,0.0,0.0,0.0,0.0,0.0,0.0,0.0,0.0,-0.5245,-0.5403,-0.5403,-0.4934,-0.5245,-0.6403,-0.5021,-0.5243,-0.7095,-0.6403,-0.6428,-0.7073,-0.6381,-0.6071,-0.6005,-0.4819,-0.335,-0.1746,-0.1008,-0.0426,0.0,0.0,0.0,0.0,0.0,0.0,0.0,0.0,0.0,0.0,0.0,0.0,0.0,0.0,0.0,0.0,0.0,0.0,0.0,0.0,0.0,0.0,0.0,-0.0671,-0.1132,-0.1202,-0.2522,-0.3359,-0.3497,-0.4139,-0.4505,-0.4505,-0.4505,-0.4505,-0.4505,-0.4505,-0.4505,-0.4505,-0.4505,-0.4505,-0.4505,-0.4505,-0.4505,-0.4505,-0.4505,-0.4505,-0.4505,-0.4518,-0.4525,-0.4525,-0.4528,0.0,0.0,0.0,0.0,0.0,0.0,0.0,0.0,-0.4919,-0.4923,-0.4796,-0.413,-0.3318,-0.2481,-0.1747,0.0,0.0,-0.032,-0.0655,0.0,-0.0186,0.0,0.0,0.0,0.0,0.0,0.0,0.0,0.0,0.0,0.0,0.0,0.0,0.0,0.0,0.0,0.0,0.0,0.0,0.0,0.0,0.0,0.0,0.0,-0.7029,-0.6115,-0.5558,-0.5558,-0.4485,-0.4439,-0.5536,-0.5558,-0.6071,-0.7095,-0.7095,-0.7095,-0.7095,-0.7095,-0.7095,-0.7029,-0.5894,-0.4154,-0.2102,-0.1902,-0.1165,-0.0157,-0.0045,0.0,0.0,0.0,0.0,0.0,0.0,0.0,0.0,0.0,0.0,0.0,0.0,0.0,0.0,0.0,0.0,0.0,0.0,0.0,0.0,0.0,-0.0671,-0.1341,-0.1924,-0.2801,-0.358,-0.4236,-0.4419,-0.4505,-0.4505,-0.4505,-0.4505,-0.4505,-0.4505,-0.4505,-0.4505,-0.4505,-0.4505,-0.4505,-0.4505,-0.4505,-0.4505,-0.4505,-0.4505,-0.4515,-0.4621,-0.4657,-0.4671,-0.4775,-0.4828,0.0,0.0,0.0,0.0,0.0,0.0,0.0,-0.5019,-0.5052,-0.5051,-0.5052,-0.4397,-0.3638,-0.3473,-0.2376,0.0,0.0,-0.0655,-0.0237,-0.0035,0.0,0.0,0.0,0.0,0.0,0.0,0.0,0.0,0.0,0.0,0.0,0.0,0.0,0.0,0.0,0.0,0.0,0.0,0.0,0.0,0.0,0.0,0.0,-0.7029,-0.6874,-0.6738,-0.6738,-0.6492,-0.647,-0.6738,-0.6738,-0.6852,-0.7095,-0.7095,-0.7095,-0.7095,-0.7095,-0.7095,-0.7029,-0.5894,-0.5112,-0.4487,-0.2571,-0.1657,-0.1322,-0.0359,0.0,0.0,0.0,0.0,0.0,0.0,0.0,0.0,0.0,0.0,0.0,0.0,0.0,0.0,0.0,0.0,0.0,0.0,0.0,0.0,0.0,-0.0671,-0.141,-0.2147,-0.2926,-0.3694,-0.446,-0.4505,-0.4505,-0.4505,-0.4505,-0.4505,-0.4505,-0.4505,-0.4505,-0.4505,-0.4505,-0.4505,-0.4505,-0.4505,-0.4505,-0.4508,-0.4569,-0.46,-0.4614,-0.4738,-0.4799,-0.4809,-0.4875,-0.4947,-0.4988,-0.4988,0.0,0.0,0.0,0.0,0.0,0.0,0.0,-0.5176,-0.4833,-0.4384,-0.3813,-0.2945,0.0,0.0,-0.0789,0.0,0.0,0.0,0.0,0.0,0.0,0.0,0.0,0.0,0.0,0.0,0.0,0.0,0.0,0.0,0.0,0.0,0.0,0.0,0.0,0.0,0.0,0.0,0.0,0.0,-0.647,-0.7073,-0.7095,-0.7095,-0.7095,-0.7095,-0.7095,-0.7095,-0.7095,-0.7095,-0.7095,-0.7095,-0.7095,-0.7095,-0.7095,-0.7095,-0.7073,-0.647,-0.5916,-0.5292,-0.4042,-0.2839,-0.1746,-0.1098,-0.0516,0.0,0.0,0.0,0.0,0.0,0.0,0.0,0.0,0.0,0.0,0.0,0.0,0.0,0.0,0.0,0.0,0.0,0.0,0.0,0.0,0.0,0.0,-0.2148,-0.3065,-0.386,-0.4474,-0.4505,-0.4505,-0.4505,-0.4505,-0.4505,-0.4505,-0.4505,-0.4505,-0.4505,-0.4505,-0.4505,-0.4505,-0.4505,-0.4518,-0.4539,-0.4651,-0.4707,-0.4745,-0.4879,-0.494,-0.4943,-0.497,-0.5051,-0.5153,-0.5153,-0.5254,-0.5395,-0.5395,0.0,0.0,0.0,0.0,-0.5243,-0.447,-0.4132,-0.368,-0.2177,0.0,-0.1374,-0.0639,-0.0337,0.0,-0.0436,-0.0233,0.0,0.0,0.0,0.0,0.0,0.0,0.0,0.0,0.0,0.0,0.0,0.0,0.0,0.0,0.0,0.0,0.0,0.0,0.0,0.0,0.0,-0.7095,-0.7095,-0.7095,-0.7095,-0.7095,-0.7095,-0.7095,-0.7095,-0.7095,-0.7095,-0.7095,-0.7095,-0.7095,-0.7095,-0.7095,-0.7095,-0.7095,-0.7095,-0.6561,-0.5669,-0.547,-0.4221,-0.2392,-0.2191,-0.15,-0.0606,-0.0382,-0.0314,-0.0292,0.0,0.0,0.0,0.0,0.0,0.0,0.0,0.0,0.0,0.0,0.0,0.0,0.0,0.0,0.0,0.0,-0.0084,-0.0727,-0.2106,0.0,0.0,-0.4491,-0.4505,-0.4505,-0.4505,-0.4505,-0.4505,-0.4505,-0.4505,-0.4505,-0.4505,-0.4505,-0.4505,-0.4505,-0.4505,-0.4563,-0.4674,-0.4695,-0.4769,-0.4886,-0.5012,-0.5069,-0.5086,-0.5266,-0.5347,-0.5365,-0.5365,-0.5378,-0.5395,-0.5395,-0.5395,0.0,0.0,0.0,-0.5379,-0.5243,-0.4636,-0.3949,0.0,0.0,-0.2477,0.0,-0.1725,-0.1334,0.0,0.0,0.0,0.0,0.0,0.0,0.0,0.0,0.0,0.0,0.0,0.0,0.0,0.0,0.0,0.0,0.0,0.0,0.0,0.0,0.0,0.0,-0.7095,-0.7095,-0.7095,-0.7095,-0.7095,-0.7095,-0.7095,-0.7095,-0.7095,-0.7095,-0.7095,-0.7095,-0.7095,-0.7095,-0.7095,-0.7095,-0.7095,-0.7095,-0.7095,-0.7007,-0.6808,-0.5802,-0.5203,-0.4823,-0.3772,-0.326,-0.2992,-0.1946,-0.1567,-0.141,0.0,0.0,0.0,0.0,0.0,0.0,0.0,0.0,0.0,0.0,0.0,0.0,0.0,0.0,0.0,0.0,-0.0378,-0.1257,-0.2774,-0.3887,-0.4505,-0.4505,-0.4505,-0.4505,-0.4505,-0.4505,-0.4505,-0.4505,-0.4505,-0.4505,-0.4505,-0.4505,-0.4505,-0.4508,-0.458,-0.464,-0.4715,-0.4867,-0.496,-0.5019,-0.5199,-0.526,-0.5283,-0.5368,-0.5395,-0.5395,-0.5395,-0.5395,-0.5395,-0.5395,-0.5395,-0.5395,-0.5395,0.0,0.0,0.0,-0.5107,-0.4669,-0.4148,-0.3363,-0.2694,0.0,-0.2394,-0.2192,-0.26,0.0,0.0,0.0,0.0,0.0,0.0,0.0,0.0,0.0,0.0,0.0,0.0,0.0,0.0,0.0,0.0,0.0,0.0,0.0,0.0,0.0,-0.7095,-0.7095,-0.7095,-0.7095,-0.7095,-0.7095,-0.7095,-0.7095,-0.7095,-0.7095,-0.7095,-0.7095,-0.7095,-0.7095,-0.7095,-0.7095,-0.7095,-0.7095,-0.7095,-0.7095,-0.7051,-0.6561,-0.5983,-0.5359,-0.4821,-0.4194,-0.3525,-0.3014,-0.2392,-0.1724,0.0,0.0,0.0,0.0,0.0,0.0,0.0,0.0,0.0,0.0,0.0,-0.035,-0.0546,0.0,0.0,0.0,-0.1062,-0.1952,-0.3317,-0.4084,-0.4505,-0.4505,-0.4505,-0.4505,-0.4505,-0.4505,-0.4505,-0.4505,-0.4505,-0.4522,-0.4549,-0.4549,-0.4569,-0.461,-0.4671,-0.4731,-0.4816,-0.5021,-0.5136,-0.5183,-0.5347,-0.5395,-0.5395,-0.5395,-0.5395,-0.5395,-0.5395,-0.5395,-0.5395,-0.5395,-0.5395,-0.5395,-0.5395,-0.5395,0.0,0.0,0.0,0.0,0.0,0.0,-0.338,-0.338,-0.3211,-0.3102,0.0,0.0,0.0,0.0,0.0,0.0,0.0,0.0,0.0,0.0,0.0,0.0,0.0,0.0,0.0,0.0,0.0,0.0,0.0,0.0,0.0,0.0,-0.7095,-0.7095,-0.7095,-0.7095,-0.7095,-0.7095,-0.7095,-0.7095,-0.7095,-0.7095,-0.7095,-0.7095,-0.7095,-0.7095,-0.7095,-0.7095,-0.7095,-0.7095,-0.7095,-0.7095,-0.7095,-0.7095,-0.6605,-0.5827,-0.5827,-0.5287,-0.4461,-0.4172,-0.3484,-0.2638,0.0,0.0,0.0,0.0,0.0,0.0,0.0,0.0,0.0,0.0,0.0,-0.1312,-0.2009,-0.2091,-0.2091,-0.2091,-0.212,-0.2496,-0.3345,-0.4084,-0.4505,-0.4505,-0.4505,0.0,-0.4505,-0.4505,-0.4505,-0.4505,-0.4505,-0.4563,-0.4691,-0.4691,-0.4755,-0.4875,-0.4752,-0.4847,-0.5076,-0.5093,-0.5216,-0.5385,-0.5392,-0.5395,-0.5395,-0.5395,-0.5395,-0.5395,-0.5395,-0.5395,-0.5395,-0.5395,0.0,0.0,0.0,0.0,0.0,0.0,0.0,0.0,0.0,-0.5292,0.0,-0.5259,-0.4586,0.0,0.0,0.0,0.0,0.0,0.0,0.0,0.0,0.0,0.0,0.0,0.0,0.0,0.0,0.0,0.0,0.0,0.0,0.0,0.0,0.0,0.0,0.0,-0.7095,-0.7095,-0.7095,-0.7095,-0.7095,-0.7095,-0.7095,-0.7095,-0.7095,-0.7095,-0.7095,-0.7095,-0.7095,-0.7095,-0.7095,-0.7095,-0.7095,-0.7095,-0.7095,-0.7095,-0.7095,-0.7095,-0.7073,-0.7007,-0.7007,-0.6985,-0.6782,-0.5714,-0.527,-0.489,0.0,0.0,0.0,0.0,0.0,0.0,0.0,0.0,0.0,0.0,0.0,0.0,0.0,-0.2202,-0.2202,-0.2202,-0.2635,-0.3248,-0.4056,-0.4349,-0.4505,-0.4505,-0.4505,-0.4505,-0.4505,-0.4505,-0.4505,-0.4505,-0.459,-0.4651,-0.4708,-0.4792,-0.4899,-0.5022,-0.498,-0.5018,-0.5106,-0.5237,-0.5328,-0.5395,-0.5395,-0.5395,-0.5395,-0.5395,0.0,0.0,0.0,0.0,0.0,0.0,0.0,0.0,0.0,0.0,0.0,0.0,0.0,0.0,0.0,0.0,0.0,-0.5395,-0.5211,-0.5122,0.0,0.0,0.0,0.0,0.0,0.0,0.0,0.0,0.0,0.0,0.0,0.0,0.0,0.0,0.0,0.0,0.0,0.0,0.0,0.0,0.0,0.0,0.0,-0.7095,-0.7095,-0.7095,-0.7095,-0.7095,-0.7095,-0.7095,-0.7095,-0.7095,-0.7095,-0.7095,-0.7095,-0.7095,-0.7095,-0.7095,-0.7095,-0.7095,-0.7095,-0.7095,-0.7095,-0.7095,-0.7095,-0.7095,-0.7095,-0.7095,-0.7051,-0.665,-0.6027,-0.527,0.0,0.0,0.0,0.0,0.0,-0.173,-0.2482,-0.2371,-0.2383,-0.2899,0.0,0.0,0.0,0.0,-0.2968,-0.2968,-0.3414,-0.3929,-0.446,-0.4505,-0.4505,-0.4505,-0.4505,-0.4505,-0.4505,-0.4505,-0.4529,-0.4566,-0.4657,-0.4741,-0.484,-0.4926,-0.5051,-0.5209,-0.5209,-0.5209,-0.5213,-0.5351,-0.5395,-0.5395,-0.5395,0.0,-0.5395,0.0,0.0,0.0,0.0,0.0,0.0,0.0,0.0,0.0,0.0,0.0,0.0,0.0,0.0,0.0,-0.5395,0.0,0.0,0.0,0.0,-0.5616,-0.5715,0.0,0.0,0.0,0.0,0.0,0.0,0.0,0.0,0.0,0.0,0.0,0.0,0.0,0.0,0.0,0.0,0.0,0.0,0.0,0.0,0.0,0.0,0.0,-0.7095,-0.7095,-0.7095,-0.7095,-0.7095,-0.7095,-0.7095,-0.7095,-0.7095,-0.7095,-0.7095,-0.7095,-0.7095,-0.7095,-0.7095,-0.7095,-0.7095,-0.7095,-0.7095,-0.7095,-0.7095,-0.7095,-0.7095,-0.7095,-0.7095,-0.7095,-0.6628,-0.5916,0.0,0.0,-0.1369,-0.2106,-0.2232,-0.2508,-0.3303,-0.2774,-0.2801,-0.4308,0.0,0.0,0.0,0.0,0.0,-0.4518,-0.4518,-0.4518,-0.4518,-0.4518,-0.4518,-0.4518,-0.4518,-0.4518,-0.4518,-0.4518,-0.4576,-0.4712,-0.4715,-0.485,-0.51,-0.5103,-0.5216,-0.5395,-0.5395,-0.5395,-0.5395,-0.5395,-0.5395,-0.5395,0.0,-0.5395,-0.5395,0.0,0.0,0.0,-0.5395,-0.5395,0.0,-0.5395,0.0,0.0,0.0,0.0,0.0,0.0,0.0,0.0,0.0,0.0,0.0,0.0,0.0,0.0,-0.5947,0.0,-0.6059,0.0,0.0,0.0,0.0,0.0,0.0,0.0,0.0,0.0,0.0,0.0,0.0,0.0,0.0,0.0,0.0,0.0,0.0,0.0,-0.7095,-0.7095,-0.7095,-0.7095,-0.7095,-0.7095,-0.7095,-0.7095,-0.7095,-0.7095,-0.7095,-0.7095,-0.7095,-0.7095,-0.7095,-0.7095,-0.7095,-0.7095,-0.7095,-0.7095,-0.7095,-0.7095,-0.7095,-0.7095,-0.7095,-0.7095,-0.7095,-0.7095,-0.7095,-0.694,0.0,-0.1535,-0.2148,-0.2926,-0.3065,-0.3317,-0.4084,-0.4015,-0.4015,0.0,0.0,0.0,-0.4626,-0.4724,-0.4792,-0.4792,-0.4792,-0.4792,-0.4792,-0.4792,-0.4792,-0.4792,-0.4792,-0.4792,-0.4792,-0.4792,-0.4813,-0.4842,-0.4943,-0.5019,-0.51,-0.5247,-0.5354,-0.5395,-0.5395,-0.5395,-0.5395,-0.5395,0.0,-0.5395,-0.5395,-0.5395,0.0,0.0,0.0,0.0,0.0,-0.5395,-0.5395,0.0,-0.5395,-0.5395,0.0,0.0,0.0,0.0,0.0,0.0,-0.5668,0.0,0.0,0.0,0.0,0.0,-0.5991,-0.6115,-0.6229,0.0,0.0,0.0,0.0,0.0,0.0,0.0,0.0,0.0,0.0,0.0,0.0,0.0,0.0,0.0,0.0,0.0,0.0,0.0,-0.7095,-0.7095,-0.7095,-0.7095,-0.7095,-0.7095,-0.7095,-0.7095,-0.7095,-0.7095,-0.7095,-0.7095,-0.7095,-0.7095,-0.7095,-0.7095,-0.7095,-0.7095,-0.7095,-0.7095,-0.7095,-0.7095,-0.7095,-0.7095,-0.7095,-0.7095,-0.7095,-0.7095,-0.7095,-0.7051,-0.2167,-0.2573,-0.3109,-0.3894,-0.4024,-0.4171,-0.4596,-0.4668,-0.4668,0.0,0.0,0.0,-0.4785,-0.4852,-0.4903,-0.4903,-0.4903,-0.4903,-0.4903,-0.4903,-0.4903,-0.4903,-0.4903,-0.4903,-0.4903,-0.4903,-0.4933,-0.4975,-0.5059,-0.5149,-0.5226,-0.5351,-0.5395,-0.5395,-0.5395,-0.5395,-0.5395,-0.5395,-0.5395,0.0,-0.5395,0.0,0.0,-0.5395,-0.5395,0.0,0.0,0.0,-0.5395,-0.5395,-0.5436,0.0,-0.5545,-0.5562,0.0,0.0,0.0,0.0,0.0,0.0,0.0,0.0,0.0,0.0,-0.6112,-0.6216,-0.63,0.0,0.0,0.0,0.0,0.0,0.0,0.0,0.0,0.0,0.0,0.0,0.0,0.0,0.0,0.0,0.0,-0.6813,-0.6847,-0.6928,-0.6992,-0.7034,-0.7092,-0.7095,-0.7095,-0.7095,-0.7095,-0.7095,-0.7095,-0.7095,-0.7095,-0.7095,-0.7095,-0.7095,-0.7095,-0.7095,-0.7095,-0.7095,-0.7095,-0.7095,-0.7095,-0.7095,-0.7095,-0.7095,-0.7095,-0.7095,-0.7095,-0.7095,-0.7095,-0.7095,0.0,-0.3872,-0.4134,-0.4781,-0.4903,-0.4903,-0.4903,-0.4903,-0.4903,0.0,-0.4916,-0.4933,-0.495,-0.4953,-0.4953,-0.4953,-0.4953,-0.4953,-0.4953,-0.4953,-0.4953,-0.4953,-0.4953,-0.4953,-0.4953,-0.4953,-0.5014,-0.5139,-0.5139,-0.5226,-0.5395,-0.5395,-0.5395,-0.5395,-0.5395,-0.5395,-0.5395,-0.5395,-0.5395,-0.5395,-0.5395,-0.5395,0.0,0.0,-0.5395,-0.5395,-0.5416,-0.5419,-0.5423,-0.544,-0.5518,-0.5637,-0.5762,-0.58,0.0,0.0,-0.5827,0.0,0.0,0.0,0.0,0.0,0.0,0.0,-0.6269,-0.63,-0.63,-0.63,0.0,0.0,0.0,0.0,0.0,0.0,0.0,0.0,0.0,0.0,0.0,0.0,0.0,0.0,-0.6661,-0.6675,-0.6681,-0.6698,-0.6806,-0.6945,-0.7065,-0.7071,-0.7082,-0.7095,-0.7095,-0.7095,-0.7095,-0.7095,-0.7095,-0.7095,-0.7095,-0.7095,-0.7095,-0.7095,-0.7095,-0.7095,-0.7095,-0.7095,-0.7095,-0.7095,-0.7095,-0.7095,-0.7095,-0.7095,-0.7095,-0.7095,-0.7095,-0.7095,-0.3641,-0.4272,-0.4735,-0.4872,-0.4903,-0.4903,-0.4903,-0.4903,-0.4903,-0.4903,-0.4985,-0.5119,-0.528,-0.5306,-0.5306,-0.5306,-0.5306,-0.5306,-0.5306,-0.5306,-0.5306,-0.5306,-0.5306,-0.5306,-0.5306,-0.5306,-0.532,-0.5334,-0.5334,-0.5365,-0.5395,-0.5395,-0.5395,-0.5395,-0.5395,-0.5395,-0.5395,-0.5395,-0.5395,-0.5395,-0.5395,0.0,-0.5395,-0.5395,-0.5395,-0.5412,-0.5518,-0.5562,-0.5579,-0.5695,-0.5735,-0.5766,-0.5793,0.0,0.0,-0.593,0.0,0.0,0.0,0.0,0.0,0.0,0.0,0.0,-0.6293,-0.63,-0.63,0.0,0.0,0.0,0.0,0.0,0.0,0.0,0.0,0.0,0.0,0.0,0.0,0.0,0.0,0.0,-0.6522,-0.6535,-0.6586,-0.6692,-0.6729,-0.6789,-0.6941,-0.6948,-0.6977,-0.7092,-0.7095,-0.7095,-0.7095,-0.7095,-0.7095,-0.7095,-0.7095,-0.7095,-0.7095,-0.7095,-0.7095,-0.7095,-0.7095,-0.7095,-0.7095,-0.7095,-0.7095,-0.7095,-0.7095,-0.7095,-0.7095,-0.7095,-0.7095,-0.7095,-0.4511,-0.4896,-0.5158,-0.5158,-0.5158,-0.5158,-0.5158,-0.5158,-0.5158,-0.5158,-0.5203,-0.529,-0.5385,-0.5395,-0.5395,-0.5395,-0.5395,-0.5395,-0.5395,-0.5395,-0.5395,-0.5395,-0.5395,-0.5395,-0.5395,-0.5395,-0.5395,-0.5395,-0.5395,-0.5395,-0.5395,-0.5395,-0.5395,-0.5395,-0.5395,-0.5395,-0.5399,-0.5477,-0.5494,-0.5484,-0.5426,0.0,-0.5494,-0.5494,-0.5535,-0.5607,-0.5667,-0.5694,-0.5718,-0.5849,-0.5897,0.0,0.0,-0.6049,-0.6062,0.0,-0.6146,-0.6182,0.0,0.0,0.0,-0.63,0.0,0.0,0.0,-0.63,-0.63,-0.63,0.0,0.0,0.0,0.0,0.0,0.0,0.0,0.0,0.0,0.0,0.0,0.0,0.0,0.0,-0.6399,-0.6405,-0.6447,-0.6597,-0.6607,-0.6654,-0.6786,-0.6867,-0.6938,-0.6991,-0.7058,-0.7095,-0.7095,-0.7095,-0.7095,-0.7095,-0.7095,-0.7095,-0.7095,-0.7095,-0.7095,-0.7095,-0.7095,-0.7095,-0.7095,-0.7095,-0.7095,-0.7095,-0.7095,-0.7095,-0.7095,-0.7095,-0.7095,-0.7095,-0.5395,-0.5395,-0.5395,-0.5395,-0.5395,-0.5395,-0.5395,-0.5395,-0.5395,-0.5395,-0.5395,-0.5395,-0.5395,-0.5395,-0.5395,-0.5395,-0.5395,-0.5395,-0.5395,-0.5395,-0.5395,-0.5395,-0.5395,-0.5395,-0.5395,-0.5395,-0.5395,-0.5395,-0.5395,-0.5395,-0.5395,-0.5395,-0.5412,-0.544,-0.544,-0.5453,-0.5487,0.0,0.0,-0.5637,0.0,-0.5535,-0.563,-0.563,-0.5701,-0.5803,-0.5833,-0.5864,-0.5908,-0.6012,-0.6055,-0.6095,-0.6239,-0.63,0.0,0.0,0.0,0.0,0.0,0.0,0.0,0.0,0.0,-0.63,0.0,0.0,0.0,0.0,0.0,0.0,0.0,0.0,0.0,0.0,0.0,0.0,0.0,0.0,0.0,0.0,0.0,0.0,-0.63,-0.63,-0.6347,-0.6463,-0.645,-0.6518,-0.6647,-0.6782,-0.6877,-0.6904,-0.7021,-0.7095,-0.7095,-0.7095,-0.7095,-0.7095,-0.7095,-0.7095,-0.7095,-0.7095,-0.7095,-0.7095,-0.7095,-0.7095,-0.7095,-0.7095,-0.7095,-0.7095,-0.7095,-0.7095,-0.7095,-0.7095,-0.7095,-0.7095,-0.5395,-0.5395,-0.5395,-0.5395,-0.5395,-0.5395,-0.5395,-0.5395,-0.5395,-0.5395,-0.5395,-0.5395,-0.5395,0.0,0.0,0.0,0.0,0.0,-0.5395,0.0,-0.5395,-0.5395,-0.5395,-0.5395,-0.5395,-0.5395,-0.5395,-0.5395,-0.5395,-0.5395,-0.5395,-0.5395,-0.5467,-0.5579,-0.5579,0.0,0.0,0.0,-0.5776,0.0,-0.5759,-0.5762,0.0,-0.5776,-0.5786,-0.582,-0.5937,-0.6091,-0.6248,0.0,-0.6272,-0.6276,0.0,-0.63,-0.63,-0.63,0.0,0.0,0.0,0.0,0.0,0.0,-0.63,0.0,0.0,0.0,-0.63,-0.63,0.0,0.0,0.0,0.0,0.0,0.0,0.0,0.0,0.0,0.0,0.0,0.0,0.0,0.0,0.0,-0.63,-0.6306,-0.6323,-0.6323,-0.6385,-0.6508,-0.6644,-0.6769,-0.6904,-0.7021,-0.7095,-0.7095,-0.7095,-0.7095,-0.7095,-0.7095,-0.7095,-0.7095,-0.7095,-0.7095,-0.7095,-0.7095,-0.7095,-0.7095,-0.7095,-0.7095,-0.7095,-0.7095,-0.7095,-0.7095,-0.7095,-0.7095,-0.7095,-0.5429,-0.5395,-0.5395,-0.5395,-0.5395,-0.5395,-0.5395,-0.547,-0.5511,-0.5511,-0.5583,-0.5634,0.0,0.0,0.0,0.0,0.0,-0.5634,0.0,0.0,-0.5634,-0.5634,-0.5634,-0.5634,-0.5634,-0.5634,-0.5634,-0.5634,-0.5634,-0.5634,-0.5634,-0.5634,-0.5668,-0.5711,-0.5711,0.0,-0.5806,0.0,-0.5913,0.0,0.0,0.0,0.0,-0.5969,-0.5989,-0.6096,-0.6158,-0.6226,-0.63,0.0,-0.63,0.0,0.0,0.0,0.0,0.0,0.0,0.0,0.0,0.0,0.0,0.0,0.0,0.0,-0.63,0.0,-0.63,0.0,0.0,0.0,0.0,0.0,0.0,0.0,-0.63,0.0,0.0,0.0,0.0,0.0,0.0,0.0,-0.63,-0.63,-0.63,-0.63,-0.63,-0.6327,-0.6385,-0.6508,-0.6637,-0.6772,-0.6918,-0.7014,-0.7095,-0.7095,-0.7095,-0.7095,-0.7095,-0.7095,-0.7095,-0.7095,-0.7095,-0.7095,-0.7095,-0.7095,-0.7095,-0.7095,-0.7095,-0.7095,-0.7095,-0.7095,-0.7095,-0.7095,-0.7095,-0.7095,-0.5542,-0.5518,-0.5518,-0.5518,-0.5518,-0.5518,-0.5518,-0.5593,-0.5647,-0.5647,-0.5739,0.0,-0.58,-0.58,0.0,0.0,-0.58,-0.58,0.0,0.0,-0.58,0.0,0.0,0.0,-0.58,-0.58,-0.58,-0.58,-0.58,-0.58,-0.58,-0.58,-0.5823,-0.5846,-0.5846,-0.5888,-0.5954,0.0,-0.6076,-0.6101,-0.6236,-0.63,-0.6286,-0.6135,-0.6182,-0.63,-0.63,-0.63,-0.63,-0.63,-0.63,0.0,-0.63,0.0,0.0,0.0,0.0,0.0,-0.63,0.0,0.0,0.0,0.0,0.0,0.0,0.0,0.0,0.0,0.0,0.0,0.0,0.0,0.0,0.0,0.0,-0.63,0.0,0.0,0.0,0.0,0.0,0.0,0.0,-0.63,-0.63,-0.63,0.0,-0.63,-0.63,-0.6433,-0.6563,-0.6695,-0.683,-0.6953,-0.7095,-0.7095,-0.7095,-0.7095,-0.7095,-0.7095,-0.7095,-0.7095,-0.7095,-0.7095,-0.7095,-0.7095,-0.7095,-0.7095,-0.7095,-0.7095,-0.7095,-0.7095,-0.7095,-0.7095,-0.7095,-0.7095,-0.5789,-0.5786,-0.5786,-0.5786,-0.5786,-0.5786,-0.5786,-0.5789,-0.5793,-0.5793,0.0,0.0,0.0,0.0,0.0,0.0,0.0,-0.58,-0.58,0.0,-0.58,0.0,0.0,-0.58,0.0,-0.58,-0.58,-0.58,-0.58,-0.58,-0.58,-0.58,-0.5863,-0.5986,-0.5986,-0.6105,-0.6286,-0.6289,-0.6293,-0.6293,-0.6296,-0.63,-0.63,0.0,-0.6296,-0.63,-0.63,0.0,0.0,-0.63,-0.63,0.0,0.0,0.0,0.0,0.0,0.0,0.0,0.0,0.0,0.0,-0.63,0.0,0.0,0.0,0.0,-0.63,0.0,0.0,0.0,0.0,0.0,0.0,0.0,0.0,0.0,0.0,0.0,0.0,0.0,0.0,0.0,0.0,-0.63,-0.63,0.0,-0.63,-0.63,-0.63,-0.6433,-0.6563,-0.6695,-0.683,-0.6953,-0.7095,-0.7095,-0.7095,-0.7095,-0.7095,-0.7095,-0.7095,-0.7095,-0.7095,-0.7095,-0.7095,-0.7095,-0.7095,-0.7095,-0.7095,-0.7095,-0.7095,-0.7095,-0.7095,-0.7095,-0.7095,-0.7095,-0.6124,-0.6124,-0.6059,-0.5837,-0.58,-0.58,-0.58,-0.587,-0.5934,0.0,0.0,0.0,0.0,-0.6124,-0.6124,0.0,0.0,-0.6124,-0.6124,-0.6124,0.0,0.0,0.0,-0.6124,0.0,-0.6124,-0.6124,-0.6124,-0.6124,-0.6124,-0.6124,-0.6124,-0.6151,-0.6202,-0.6202,-0.6229,0.0,0.0,0.0,0.0,0.0,-0.63,-0.63,0.0,-0.63,-0.63,-0.63,-0.63,0.0,-0.63,-0.63,-0.63,-0.63,-0.63,-0.63,-0.63,-0.63,0.0,0.0,0.0,-0.63,-0.63,0.0,0.0,0.0,0.0,0.0,0.0,0.0,0.0,0.0,0.0,0.0,0.0,0.0,0.0,0.0,0.0,0.0,0.0,0.0,0.0,0.0,0.0,0.0,0.0,-0.63,0.0,-0.63,-0.6344,-0.6464,-0.6695,-0.6753,-0.6874,-0.7095,-0.7095,-0.7095,-0.7095,-0.7095,-0.7095,-0.7095,-0.7095,-0.7095,-0.7095,-0.7095,-0.7095,-0.7095,-0.7095,-0.7095,-0.7095,-0.7095,-0.7095,-0.7095,-0.7095,-0.7095,-0.7095,-0.63,-0.63,-0.6238,-0.6018,-0.5981,-0.5981,-0.5981,-0.6047,0.0,0.0,-0.6219,0.0,-0.63,0.0,-0.63,0.0,-0.63,-0.63,-0.63,-0.63,0.0,-0.63,-0.63,0.0,0.0,0.0,-0.63,-0.63,-0.63,-0.63,-0.63,-0.63,-0.63,-0.63,0.0,-0.63,-0.63,-0.63,-0.63,0.0,0.0,-0.63,0.0,0.0,-0.6344,-0.63,0.0,-0.63,-0.63,-0.63,-0.63,-0.63,-0.63,-0.63,-0.63,-0.63,-0.63,-0.63,-0.63,-0.63,0.0,-0.63,-0.63,0.0,-0.63,0.0,0.0,0.0,0.0,0.0,0.0,0.0,0.0,0.0,0.0,0.0,0.0,-0.63,0.0,0.0,0.0,0.0,0.0,0.0,0.0,-0.63,-0.63,-0.63,0.0,-0.6347,-0.6467,-0.6695,-0.6753,-0.6877,-0.7095,-0.7095,-0.7095,-0.7095,-0.7095,-0.7095,-0.7095,-0.7095,-0.7095,-0.7095,-0.7095,-0.7095,-0.7095,-0.7095,-0.7095,-0.7095,-0.7095,-0.7095,-0.7095,-0.7095,-0.7095,-0.7095,-0.63,-0.63,-0.63,0.0,-0.63,0.0,0.0,0.0,-0.63,0.0,-0.6306,-0.6329,-0.6387,-0.6355,-0.6339,-0.6398,-0.6359,-0.632,-0.632,-0.6313,0.0,0.0,-0.6303,-0.63,-0.63,0.0,0.0,0.0,-0.63,-0.63,-0.63,-0.63,-0.63,-0.63,-0.63,0.0,-0.63,-0.63,-0.63,-0.63,-0.6306,-0.6349,-0.6401,-0.649,-0.6459,-0.6398,-0.6339,-0.632,-0.632,-0.632,-0.632,-0.632,-0.632,-0.632,-0.632,-0.632,-0.632,-0.632,-0.632,-0.632,-0.632,-0.632,-0.6317,0.0,0.0,0.0,-0.63,0.0,0.0,0.0,0.0,0.0,0.0,0.0,0.0,0.0,0.0,0.0,0.0,0.0,0.0,0.0,0.0,0.0,-0.63,-0.63,-0.63,-0.6303,0.0,-0.6436,-0.6566,-0.6709,-0.6833,-0.6953,-0.7095,-0.7095,-0.7095,-0.7095,-0.7095,-0.7095,-0.7095,-0.7095,-0.7095,-0.7095,-0.7095,-0.7095,-0.7095,-0.7095,-0.7095,-0.7095,-0.7095,-0.7095,-0.7095,-0.7095,-0.7095,-0.7095,-0.63,-0.63,-0.63,0.0,-0.63,-0.63,0.0,0.0,0.0,0.0,-0.6392,-0.6774,-0.7616,-0.7038,-0.6949,-0.7781,-0.7084,0.0,0.0,0.0,0.0,-0.6457,-0.6358,-0.63,-0.63,-0.63,0.0,-0.63,0.0,-0.63,-0.63,-0.63,-0.63,-0.63,0.0,-0.63,-0.63,-0.63,-0.63,-0.631,-0.6416,-0.6948,-0.7636,0.0,-0.7161,-0.7745,-0.6909,-0.6586,-0.6586,-0.6586,-0.6586,-0.6586,-0.6586,-0.6586,-0.6586,-0.6586,-0.6586,-0.6586,-0.6586,-0.6586,-0.6586,-0.6586,-0.6522,-0.6457,0.0,0.0,0.0,0.0,0.0,0.0,0.0,0.0,0.0,0.0,0.0,0.0,0.0,0.0,0.0,-0.63,0.0,0.0,0.0,-0.63,-0.63,-0.63,-0.63,-0.6347,-0.6453,0.0,-0.6617,-0.684,-0.6887,-0.6953,-0.7095,-0.7095,-0.7095,-0.7095,-0.7095,-0.7095,-0.7095,-0.7095,-0.7095,-0.7095,-0.7095,-0.7095,-0.7095,-0.7095,-0.7095,-0.7095,-0.7095,-0.7095,-0.7095,-0.7095,-0.7095,-0.7095,-0.6381,-0.6426,0.0,-0.6474,0.0,0.0,-0.6987,-0.664,0.0,-0.6992,-0.7207,0.0,-0.8212,-0.8244,-0.8492,-0.9136,-0.8594,0.0,-0.823,0.0,0.0,-0.7345,-0.7197,-0.6898,-0.6392,-0.633,0.0,-0.63,0.0,0.0,-0.63,-0.63,-0.63,-0.63,0.0,-0.63,-0.6338,-0.6776,-0.7026,-0.7176,-0.7699,-0.8378,0.0,-0.7953,-0.7972,-0.8392,-0.7268,-0.681,-0.6702,-0.6702,-0.6702,-0.6702,-0.6702,-0.6702,-0.6702,-0.6702,-0.6702,-0.6702,-0.6702,-0.6702,-0.6702,-0.6702,-0.6634,-0.6593,-0.6593,-0.6477,-0.6392,0.0,-0.634,-0.63,0.0,0.0,0.0,0.0,0.0,0.0,0.0,0.0,0.0,0.0,-0.63,0.0,0.0,-0.63,-0.63,-0.63,-0.63,-0.6361,-0.6484,0.0,-0.6681,-0.6901,-0.6968,-0.7014,-0.7095,-0.7095,-0.7095,-0.7095,-0.7095,-0.7095,-0.7095,-0.7095,-0.7095,-0.7095,-0.7095,-0.7095,-0.7095,-0.7095,-0.7095,-0.7095,-0.7095,-0.7095,-0.7095,-0.7095,-0.7095,-0.7095,-0.6498,-0.6631,0.0,0.0,0.0,0.0,0.0,-0.7419,0.0,-0.7943,0.0,-0.8316,-0.862,-0.9345,-0.986,-1.0024,0.0,-1.0024,-1.0024,-1.0157,-0.975,-0.8702,-0.8526,-0.7979,-0.6947,-0.6797,0.0,0.0,0.0,0.0,-0.63,-0.63,-0.63,-0.63,0.0,0.0,0.0,-0.7466,-0.8065,-0.8473,-0.9409,-0.9967,-1.0126,-0.9116,-0.873,-0.8581,-0.7483,-0.6951,-0.6759,-0.6759,-0.6759,-0.6759,-0.6759,-0.6759,-0.6759,-0.6759,-0.6759,-0.6759,-0.6759,-0.6759,-0.6759,-0.6759,-0.6746,-0.6729,-0.6729,-0.6614,-0.6522,-0.6522,-0.6443,-0.6358,0.0,0.0,0.0,0.0,0.0,0.0,0.0,0.0,0.0,0.0,0.0,0.0,0.0,0.0,-0.63,-0.63,-0.63,-0.6371,0.0,0.0,-0.678,-0.6931,-0.7034,-0.7095,-0.7095,-0.7095,-0.7095,-0.7095,-0.7095,-0.7095,-0.7095,-0.7095,-0.7095,-0.7095,-0.7095,-0.7095,-0.7095,-0.7095,-0.7095,-0.7095,-0.7095,-0.7095,-0.7095,-0.7095,-0.7095,-0.7095,-0.6654,0.0,0.0,0.0,0.0,-0.7902,-1.0618,-0.9339,-0.813,-0.8314,-0.7659,-0.791,-0.9841,-0.8602,-0.8034,-0.9048,-0.9134,0.0,0.0,0.0,0.0,-1.0071,-0.9932,-0.9632,-0.9154,-0.9115,-0.8592,0.0,0.0,0.0,-0.63,-0.63,-0.63,-0.63,0.0,0.0,-0.7565,-0.7963,0.0,-0.9478,-1.0055,-1.0305,-1.0262,-0.9237,-0.8861,-0.8713,-0.7526,-0.7061,-0.7039,-0.7039,-0.7039,-0.7039,-0.7039,-0.7039,-0.7039,-0.7039,-0.7039,-0.7039,-0.7039,-0.7039,-0.7039,-0.7039,-0.6951,-0.6867,-0.6867,-0.677,-0.6661,-0.6661,-0.6641,-0.6624,-0.6624,0.0,0.0,0.0,0.0,0.0,0.0,0.0,0.0,0.0,0.0,-0.63,0.0,0.0,-0.63,-0.63,-0.63,-0.6416,-0.6647,0.0,-0.6803,0.0,-0.7085,0.0,0.0,0.0,-0.7095,-0.7095,-0.7095,-0.7095,-0.7095,-0.7095,-0.7095,-0.7095,-0.7095,-0.7095,-0.7095,-0.7095,-0.7095,-0.7095,-0.7095,-0.7095,-0.7095,-0.7095,-0.7095,-0.7095,0.0,0.0,0.0,0.0,0.0,0.0,0.0,-1.0726,-1.0158,-0.9432,-0.9555,-0.9895,-1.0449,-1.0631,-1.0718,-1.0675,-1.0654,-1.0416,-0.9814,-1.0782,-1.1122,-1.0534,-1.0933,0.0,-1.0085,-0.9993,-0.9667,-0.905,0.0,0.0,-0.7266,-0.6684,-0.6371,-0.6319,0.0,-0.7722,0.0,0.0,0.0,-1.0961,-1.1121,-1.1266,-1.1202,-0.9543,-0.889,-0.8737,-0.7533,-0.7095,-0.7095,-0.7095,-0.7095,-0.7095,-0.7095,-0.7095,-0.7095,-0.7095,-0.7095,-0.7095,-0.7095,-0.7095,-0.7095,-0.7095,-0.7045,-0.6994,-0.6994,-0.6904,-0.6796,-0.6796,-0.6756,-0.6702,-0.6702,-0.6641,0.0,0.0,0.0,0.0,0.0,0.0,0.0,0.0,0.0,0.0,0.0,0.0,0.0,0.0,0.0,-0.6522,-0.6782,0.0,-0.6897,0.0,0.0,0.0,-0.7095,0.0,-0.7095,-0.7095,-0.7095,-0.7095,-0.7095,-0.7095,-0.7095,-0.7095,-0.7095,-0.7095,-0.7095,-0.7095,-0.7095,-0.7095,-0.7095,-0.7095,-0.7095,-0.7095,-0.7095,-0.7095,0.0,-0.8338,0.0,0.0,-1.0913,0.0,-1.1413,-1.1901,-1.1891,-1.0795,-1.1394,-1.1681,-1.1037,-1.2382,-1.2969,-1.2029,-1.2151,-1.1916,-1.102,-1.2029,-1.2291,-1.1391,-1.2109,-1.2079,-1.109,-1.0977,-1.0801,0.0,0.0,0.0,0.0,-0.7717,-0.7231,0.0,0.0,0.0,0.0,0.0,-1.1648,-1.2046,-1.2011,-1.1977,-1.1724,-0.9688,-0.889,-0.8737,-0.7533,-0.7095,-0.7095,-0.7095,-0.7095,-0.7095,-0.7095,-0.7095,-0.7095,-0.7095,-0.7095,-0.7095,-0.7095,-0.7095,-0.7095,-0.7095,-0.7095,-0.7095,-0.7095,-0.7011,-0.6951,-0.6951,-0.6857,-0.6783,-0.6756,-0.6749,0.0,0.0,0.0,0.0,0.0,0.0,0.0,0.0,0.0,0.0,-0.6702,0.0,0.0,0.0,0.0,-0.6641,-0.6894,-0.6908,-0.695,0.0,0.0,-0.7095,-0.7095,0.0,-0.7095,-0.7095,-0.7095,-0.7095,-0.7095,-0.7095,-0.7095,-0.7095,-0.7095,-0.7095,-0.7095,-0.7095,-0.7095,-0.7095,-0.7095,-0.7095,-0.7095,-0.7095,-0.7095,-0.7095,0.0,0.0,0.0,0.0,0.0,0.0,-1.3455,-1.2942,-1.2252,-1.2122,-1.1327,-1.1101,-1.205,-1.1407,-1.0869,-1.0762,-1.1702,-1.2258,-1.2151,-1.3252,-1.3885,-1.3779,-1.3865,-1.3727,-1.3313,-1.3281,-1.2725,0.0,0.0,-1.0917,0.0,-0.9908,0.0,0.0,0.0,0.0,0.0,-1.1875,-1.1973,-1.1943,-1.2177,-1.1659,-1.0632,-0.9388,-0.889,-0.8737,-0.7533,-0.7095,-0.7095,-0.7095,-0.7095,-0.7095,-0.7095,-0.7095,-0.7095,-0.7095,-0.7095,-0.7095,-0.7095,-0.7095,-0.7095,-0.7095,-0.7095,-0.7095,-0.7095,-0.7085,-0.7078,-0.7078,-0.7065,-0.7014,-0.6908,-0.6887,-0.684,0.0,0.0,0.0,0.0,0.0,0.0,0.0,0.0,0.0,0.0,-0.6702,0.0,0.0,-0.6756,-0.6753,-0.6897,-0.6908,-0.695,-0.7092,-0.7095,-0.7095,-0.7095,-0.7095,-0.7095,-0.7095,-0.7095,-0.7095,-0.7095,-0.7095,-0.7095,-0.7095,-0.7095,-0.7095,-0.7095,-0.7095,-0.7095,-0.7095,-0.7095,-0.7095,-0.7095,-0.7095,-0.7095,-0.7095,0.0,0.0,0.0,0.0,0.0,0.0,0.0,-1.3688,-1.3379,-1.3379,-1.2975,-1.2601,-1.2328,-1.2531,-1.2403,-1.1686,-1.205,-1.2007,-1.1316,-1.2376,-1.3027,-1.3027,-1.3709,-1.4035,-1.3894,-1.3908,-1.364,0.0,0.0,0.0,0.0,0.0,0.0,0.0,0.0,-1.1751,-1.2853,-1.2941,-1.3088,-1.3157,-1.2547,-1.2023,-1.1423,-0.9601,-0.889,-0.8737,-0.7533,-0.7095,-0.7095,-0.7095,-0.7095,-0.7095,-0.7095,-0.7095,-0.7095,-0.7095,-0.7095,-0.7095,-0.7095,-0.7095,-0.7095,-0.7095,-0.7095,-0.7095,-0.7095,-0.7095,-0.7095,-0.7095,-0.7095,-0.7078,-0.7021,-0.7011,-0.6994,-0.6951,0.0,0.0,0.0,0.0,0.0,0.0,0.0,0.0,0.0,0.0,0.0,0.0,0.0,-0.688,-0.7004,-0.7011,-0.7038,-0.7095,0.0,-0.7095,-0.7095,-0.7095,-0.7095,-0.7095,-0.7095,-0.7095,-0.7095,-0.7095,-0.7095,-0.7095,-0.7095,-0.7095,-0.7095,-0.7095,-0.7095,-0.7095,-0.7095,-0.7095,-0.7095,-0.7095,-0.7095,-0.7095,-1.1563,0.0,-1.2413,0.0,-1.3604,-1.4215,-1.4215,-1.431,-1.437,-1.437,-1.437,-1.3969,-1.2933,-1.3597,-1.3758,-1.2899,-1.2829,-1.2489,-1.167,-1.2376,-1.2829,-1.2829,-1.3646,0.0,-1.4109,-1.4109,-1.4109,-1.4109,-1.3252,0.0,0.0,0.0,0.0,0.0,-1.2408,-1.2915,-1.3754,-1.3754,-1.368,-1.3491,-1.2632,-1.2306,-1.2087,-1.0139,-0.9405,-0.9253,-0.8057,-0.7401,-0.7095,-0.7095,-0.7095,-0.7095,-0.7095,-0.7095,-0.7095,-0.7095,-0.7095,-0.7095,-0.7095,-0.7095,-0.7095,-0.7095,-0.7095,-0.7095,-0.7095,-0.7095,-0.7095,-0.7095,-0.7095,-0.7095,-0.7095,-0.7095,-0.7095,-0.7095,0.0,0.0,0.0,0.0,0.0,0.0,-0.7095,-0.7095,-0.7095,-0.7095,0.0,0.0,0.0,-0.6991,-0.7092,-0.7095,-0.7095,0.0,0.0,0.0,-0.7095,-0.7095,-0.7095,-0.7095,-0.7095,-0.7095,-0.7095,-0.7095,-0.7095,-0.7095,-0.7095,-0.7095,-0.7095,-0.7095,-0.7095,-0.7095,-0.7095,-0.7095,-0.7095,-0.7095,-0.7095,-0.7102,-1.3822,-1.3118,-1.2681,-1.3864,-1.4301,-1.4494,-1.4494,-1.4785,-1.4995,-1.4995,-1.4995,-1.4758,-1.4148,-1.4088,-1.4088,-1.4088,-1.4088,-1.4067,-1.4067,-1.4067,-1.4088,0.0,0.0,-1.4109,-1.4109,-1.4109,-1.4109,-1.4109,0.0,0.0,-1.4082,0.0,-1.406,-1.4075,-1.4075,-1.4082,-1.4082,-1.4082,-1.3421,-1.2328,-1.2306,-1.2306,-1.2178,-1.102,-1.0589,-1.0438,-0.9296,-0.8105,-0.7095,-0.7095,-0.7095,-0.7095,-0.7095,-0.7095,-0.7095,-0.7095,-0.7095,-0.7095,-0.7095,-0.7095,-0.7095,-0.7095,-0.7095,-0.7095,-0.7095,-0.7095,-0.7095,-0.7095,-0.7095,-0.7095,-0.7095,-0.7095,-0.7095,-0.7095,0.0,0.0,0.0,0.0,0.0,-0.7095,-0.7095,-0.7095,-0.7095,-0.7095,0.0,0.0,0.0,0.0,0.0,0.0,0.0,-0.7095,-0.7095,0.0,-0.7095,-0.7095,-0.7095,-0.7095,-0.7095,-0.7095,-0.7095,-0.7095,-0.7095,-0.7095,-0.7095,-0.7095,-0.7095,-0.7095,-0.7095,-0.7095,-0.7095,-0.7095,-0.7095,-0.7095,-0.7095,-0.7119,-1.4599,-1.4405,-1.4267,-1.4661,-1.4785,-1.4845,-1.4845,-1.4926,-1.5008,-1.5008,-1.5008,-1.4934,-1.4725,-1.4705,-1.4705,0.0,-1.4496,-1.4361,0.0,-1.4195,-1.4109,-1.4109,-1.4109,-1.4109,-1.4109,-1.4109,-1.4109,-1.4109,0.0,0.0,0.0,-1.4109,-1.4109,-1.4109,-1.4109,-1.4109,-1.4109,-1.4109,-1.3885,-1.3533,-1.3533,-1.3533,-1.3406,-1.2206,-1.1766,-1.1509,-0.9579,-0.8649,-0.8193,-0.7382,-0.7095,-0.7095,-0.7095,-0.7095,-0.7095,-0.7095,-0.7095,-0.7095,-0.7095,-0.7095,-0.7095,-0.7095,-0.7095,-0.7095,-0.7095,-0.7095,-0.7095,-0.7095,-0.7095,-0.7095,-0.7095,-0.7095,-0.7095,-0.7095,-0.7095,0.0,-0.7095,0.0,-0.7095,-0.7095,-0.7095,-0.7095,-0.7095,-0.7095,0.0,0.0,0.0,0.0,0.0,0.0,0.0,0.0,-0.7095,0.0,-0.7095,-0.7095,-0.7095,-0.7095,-0.7095,-0.7095,-0.7095,-0.7095,-0.7095,-0.7095,-0.7095,-0.7095,-0.7095,-0.7095,-0.7095,-0.7095,-0.7095,-0.7095,-0.7095,-0.7095,-0.7185,-0.7305,-1.4952,-1.5008,-1.5008,-1.5008,-1.5079,-1.5146,-1.5146,-1.524,-1.5314,-1.5314,-1.5314,-1.5314,-1.5314,-1.5314,0.0,-1.5028,-1.4819,-1.4689,-1.4689,-1.4538,-1.439,-1.4255,-1.4249,-1.4202,-1.4088,-1.4109,0.0,-1.4109,-1.4109,-1.4109,-1.4109,-1.4109,-1.4109,-1.4109,-1.4109,-1.4109,-1.4109,-1.4109,-1.4109,-1.4109,-1.4109,-1.4109,-1.4018,-1.3252,-1.2696,-1.2109,-1.0697,-0.9623,-0.8781,-0.8035,-0.747,-0.7095,-0.7095,-0.7095,-0.7095,-0.7095,-0.7095,-0.7095,-0.7095,-0.7095,-0.7095,-0.7095,-0.7095,-0.7095,-0.7095,-0.7095,-0.7095,-0.7095,-0.7095,-0.7095,-0.7095,-0.7095,-0.7095,-0.7095,-0.7095,-0.7095,-0.7095,0.0,-0.7095,0.0,0.0,0.0,0.0,-0.7095,-0.7095,0.0,0.0,0.0,0.0,0.0,0.0,-0.7095,-0.7095,-0.7095,-0.7095,-0.7095,-0.7095,-0.7095,-0.7095,-0.7095,-0.7095,-0.7095,-0.7095,-0.7095,-0.7095,-0.7095,-0.7095,-0.7095,-0.7095,-0.7095,-0.7095,-0.7095,-0.7095,-0.7095,-0.7238,-0.7403,-1.5046,-1.5068,-1.5068,0.0,-1.5273,0.0,-1.5424,-1.5635,-1.5808,-1.5808,-1.5808,-1.5808,-1.5808,-1.5808,-1.5588,-1.5093,0.0,0.0,0.0,-1.5022,-1.4865,-1.4541,-1.4527,-1.4422,-1.4176,-1.417,-1.4156,-1.4136,-1.4116,-1.4109,-1.4109,-1.4109,-1.4109,-1.4109,-1.4109,-1.4109,-1.4109,-1.4109,-1.4109,-1.4109,-1.4109,-1.4109,-1.4109,-1.4109,-1.34,-1.2413,-1.2328,-1.0891,-0.8999,-0.8934,-0.8105,-0.7095,-0.7095,-0.7095,-0.7095,-0.7095,-0.7095,-0.7095,-0.7095,-0.7095,-0.7095,-0.7095,-0.7095,-0.7095,-0.7095,-0.7095,-0.7095,-0.7095,-0.7095,-0.7095,-0.7095,-0.7095,-0.7095,-0.7095,-0.7095,-0.7095,-0.7095,-0.7095,-0.7095,0.0,0.0,0.0,-0.7095,-0.7095,-0.7095,0.0,0.0,0.0,0.0,0.0,-0.7095,-0.7095,-0.7095,-0.7095,-0.7095,-0.7095,-0.7095,-0.7095,-0.7095,-0.7095,-0.7095,-0.7095,-0.7095,-0.7095,-0.7095,-0.7095,-0.7095,-0.7095,-0.7095,-0.7095,-0.7095,-0.7095,-0.7098,-0.7109,-0.7255,-0.743,0.0,0.0,-1.5601,-1.5601,-1.5655,-1.5708,-1.5708,-1.5761,-1.5808,-1.5808,-1.5808,-1.5808,-1.5808,-1.5808,-1.5748,-1.5615,-1.5424,-1.532,-1.532,-1.5106,-1.4959,-1.4885,-1.4885,-1.4852,-1.4778,-1.48,-1.4665,-1.4422,-1.4195,-1.4109,-1.4109,-1.4109,-1.4109,-1.4109,-1.4109,-1.4109,-1.4109,-1.4109,-1.4109,-1.4109,-1.4109,-1.4109,-1.4109,-1.4109,-1.3913,-1.3555,-1.2632,-1.1381,-1.0053,-0.9192,-0.8105,-0.7095,-0.7095,-0.7095,-0.7095,-0.7095,-0.7095,-0.7095,-0.7095,-0.7095,-0.7095,-0.7095,-0.7095,-0.7095,-0.7095,-0.7095,-0.7095,-0.7095,-0.7095,-0.7095,-0.7095,-0.7095,-0.7095,-0.7095,-0.7095,-0.7095,-0.7095,-0.7095,-0.7095,0.0,-0.7095,-0.7095,-0.7095,-0.7095,-0.7095,0.0,0.0,0.0,-0.7095,-0.7095,-0.7095,-0.7095,-0.7095,-0.7095,-0.7095,-0.7095,-0.7095,-0.7095,-0.7095,-0.7095,-0.7095,-0.7095,-0.7095,-0.7095,-0.7095,-0.7095,-0.7095,-0.7095,-0.7095,-0.7095,-0.7095,-0.7095,-0.7109,-0.7275,-0.7414,-0.7567,-1.5775,-1.5808,-1.5808,-1.5808,-1.5808,-1.5808,-1.5808,-1.5808,-1.5808,-1.5808,-1.5808,-1.5808,-1.5808,-1.5808,-1.5808,-1.5808,-1.5661,-1.5568,-1.5568,-1.5444,-1.5297,-1.5186,-1.5186,-1.5126,-1.4992,-1.5008,-1.4905,-1.4723,-1.4584,-1.4511,-1.4511,-1.4511,-1.4511,-1.4511,-1.4511,-1.4511,-1.4511,-1.4511,-1.4511,-1.4511,-1.4511,-1.4511,-1.4511,-1.4511,-1.4511,-1.4424,-1.376,-1.24,-1.083,-1.0211,-0.8806,-0.7317,-0.7246,-0.7244,-0.7208,-0.7119,-0.7095,-0.7095,-0.7095,-0.7095,-0.7095,-0.7095,-0.7095,-0.7095,-0.7095,-0.7095,-0.7095,-0.7095,-0.7095,-0.7095,-0.7095,-0.7095,-0.7095,-0.7095,-0.7095,-0.7095,-0.7095,-0.7095,-0.7095,-0.7095,-0.7095,-0.7095,-0.7095,-0.7095,-0.7095,-0.7095,-0.7095,0.0,-0.7095,-0.7095,-0.7095,-0.7095,-0.7095,-0.7095,-0.7095,-0.7095,-0.7095,-0.7095,-0.7095,-0.7095,-0.7095,-0.7095,-0.7095,-0.7095,-0.7095,-0.7095,-0.7095,-0.7095,-0.7158,-0.7244,-0.7244,-0.7266,-0.7337,-0.7444,-0.757,-0.7706,-1.5808,-1.5808,-1.5808,-1.5808,-1.5808,-1.5808,-1.5808,-1.5808,-1.5808,-1.5808,-1.5808,-1.5808,-1.5808,-1.5808,-1.5808,-1.5808,-1.5808,-1.5808,-1.5808,-1.5808,-1.5695,-1.5471,-1.5464,-1.5344,-1.5126,-1.5073,-1.5053,-1.5053,-1.5028,-1.5008,-1.5008,-1.5008,-1.5008,-1.5008,-1.5008,-1.5008,-1.5008,-1.5008,-1.5008,-1.5008,-1.5008,-1.5008,-1.5008,-1.5008,-1.5008,-1.4963,-1.4777,-1.3234,-1.126,-1.1076,-0.949,-0.7577,-0.7471,-0.743,-0.7403,-0.7225,-0.7166,-0.7156,-0.7109,-0.7095,-0.7095,-0.7095,-0.7095,-0.7095,-0.7095,-0.7095,-0.7095,-0.7095,-0.7095,-0.7095,-0.7095,-0.7095,-0.7095,-0.7095,-0.7095,-0.7095,-0.7095,0.0,-0.7095,-0.7095,-0.7095,-0.7095,-0.7095,-0.7095,-0.7095,-0.7095,-0.7095,-0.7095,-0.7095,-0.7095,-0.7095,-0.7095,-0.7095,-0.7095,-0.7095,-0.7095,-0.7095,-0.7095,-0.7141,-0.7154,-0.7154,-0.7175,-0.7166,-0.7166,-0.7166,-0.7166,-0.7166,-0.7166,-0.7288,-0.743,-0.743,-0.7508,-0.76,-0.7624,-0.7706,-0.7814,-1.5808,-1.5808,-1.5808,-1.5808,-1.5808,-1.5808,-1.5808,-1.5808,-1.5808,-1.5808,-1.5808,-1.5808,-1.5808,-1.5808,-1.5808,-1.5808,-1.5808,-1.5808,-1.5808,-1.5808,-1.5781,-1.5741,-1.5735,-1.5721,-1.5675,-1.5451,-1.5354,-1.5354,-1.5106,-1.5008,-1.5008,-1.5008,-1.5008,-1.5008,-1.5008,-1.5008,-1.5008,-1.5008,-1.5008,-1.5008,-1.5008,-1.5008,-1.5008,-1.5008,-1.5008,-1.4845,-1.3709,-1.2444,-1.1122,-0.9992,-0.8703,-0.7597,-0.757,-0.7563,-0.756,-0.7536,-0.7529,-0.7472,-0.7166,-0.7095,-0.7095,-0.7095,-0.7095,-0.7095,-0.7095,-0.7095,-0.7095,-0.7095,-0.7095,-0.7095,-0.7095,-0.7095,-0.7095,-0.7095,-0.7095,-0.7095,-0.7095,0.0,-0.7095,-0.7095,-0.7095,-0.7095,-0.7095,-0.7095,-0.7095,-0.7095,-0.7095,-0.7095,-0.7095,-0.7095,-0.7095,-0.7095,-0.7095,-0.7095,-0.7095,-0.7095,-0.7095,-0.7098,-0.7275,-0.7359,-0.7362,-0.7468,-0.7529,-0.7529,-0.7529,-0.7529,-0.7529,-0.7529,-0.7543,-0.7563,-0.7563,-0.758,-0.7614,-0.7733,-0.779,-0.7807,-1.5808,-1.5808,-1.5808,-1.5808,-1.5941,-1.6072,-1.6072,-1.6072,-1.6072,-1.6072,-1.5901,-1.5808,-1.5808,-1.5808,-1.5808,-1.5808,-1.5808,-1.5808,-1.5808,-1.5808,-1.5808,-1.5808,-1.5808,-1.5808,-1.5808,-1.5675,-1.5631,-1.5631,-1.5491,-1.5431,-1.5431,-1.5431,-1.5431,-1.5431,-1.5431,-1.5431,-1.5431,-1.5431,-1.5431,-1.5431,-1.5431,-1.5431,-1.5355,-1.4663,-1.4401,-1.4238,-1.2887,-1.1637,-1.05,-0.9879,-0.8835,-0.7797,-0.774,-0.7712,-0.7699,-0.7624,-0.7543,-0.7467,-0.7302,-0.7181,-0.7095,-0.7095,-0.7095,-0.7095,-0.7095,-0.7095,-0.7095,-0.7095,-0.7095,-0.7095,-0.7095,-0.7095,-0.7095,-0.7095,-0.7095,0.0,-0.7095,-0.7095,-0.7095,-0.7095,-0.7095,-0.7095,-0.7095,-0.7095,-0.7095,-0.7095,-0.7095,-0.7095,-0.7095,-0.7095,-0.7095,-0.7095,-0.7095,-0.7095,-0.7095,-0.7202,-0.7265,-0.7265,-0.7421,-0.7519,-0.7519,-0.7567,-0.76,-0.76,-0.76,-0.76,-0.76,-0.76,-0.7645,-0.7712,-0.7712,-0.7763,-0.782,-0.7885,-0.7908,-0.7918,-1.5908,-1.5961,-1.6008,-1.6008,-1.6219,-1.6397,-1.6397,-1.6397,-1.6397,-1.6397,-1.6172,-1.6008,-1.6008,-1.6008,-1.6008,-1.6008,-1.5713,-1.5641,-1.5984,-1.5689,-1.5582,-1.5784,-1.5808,-1.5808,-1.5808,-1.5808,-1.5808,-1.5808,-1.5808,-1.5808,-1.5808,-1.5808,-1.5808,-1.5808,-1.5808,-1.5808,-1.5808,-1.5808,-1.5808,-1.5808,-1.5808,-1.5808,-1.5683,-1.4704,-1.434,-1.4124,-1.2479,-1.1268,-1.0342,-0.9727,-0.885,-0.7993,-0.7875,-0.7841,-0.7817,-0.7733,-0.7594,-0.7488,-0.7457,-0.7336,-0.7225,-0.7225,-0.7225,-0.7215,-0.7181,-0.7171,-0.7161,-0.7102,-0.7095,-0.7095,-0.7095,-0.7095,-0.7095,-0.7095,0.0,-0.7095,-0.7095,-0.7095,-0.7095,-0.7095,-0.7095,-0.7095,-0.7095,-0.7095,-0.7095,-0.7095,-0.7095,-0.7095,-0.7095,-0.7095,-0.7095,-0.7095,-0.7095,-0.7112,-0.7171,-0.7312,-0.7413,-0.7447,-0.7577,-0.7648,-0.7651,-0.7685,-0.7702,-0.7702,-0.7702,-0.7702,-0.7702,-0.7702,-0.7743,-0.7841,-0.7841,-0.7912,-0.7988,-0.7988,-0.7988,-0.7988,-1.6264,-1.6453,-1.664,-1.664,-1.666,-1.6673,-1.6673,-1.6673,-1.6673,-1.6673,-1.6653,-1.664,-1.664,-1.664,-1.664,-1.664,-1.5381,-1.518,-1.654,-1.5356,-1.4961,-1.5757,-1.5808,-1.5808,-1.5808,-1.5808,-1.5808,-1.5808,-1.5808,-1.5808,-1.5808,-1.5808,-1.5808,-1.5808,-1.5808,-1.5808,-1.5808,-1.5808,-1.5808,-1.5808,-1.5808,-1.5808,-1.5778,-1.5706,-1.5659,-1.5343,-1.2794,-1.1853,-1.1385,-0.897,-0.8088,-0.7988,-0.7975,-0.7996,-0.7996,-0.7986,-0.7875,-0.775,-0.7617,-0.7573,-0.7567,-0.7567,-0.7567,-0.7529,-0.741,-0.7376,-0.7316,-0.7148,-0.7095,-0.7095,-0.7095,-0.7095,-0.7095,-0.7095,0.0,0.0,-0.7095,-0.7095,-0.7095,-0.7095,-0.7095,-0.7095,-0.7095,-0.7095,-0.7095,-0.7095,-0.7095,-0.7095,-0.7095,-0.7095,-0.7095,-0.7095,-0.7095,-0.7188,-0.7376,-0.7389,-0.7467,-0.7584,-0.7726,-0.7794,-0.7801,-0.7918,-0.7983,-0.7983,-0.7983,-0.7983,-0.7983,-0.7983,-0.7989,-0.7996,-0.7996,-0.7978,-0.7988,-0.7988,-0.7988,-0.7988,-1.654,-1.6627,-1.6707,-1.6707,-1.6879,-1.7006,-1.7006,-1.7006,-1.7006,-1.7006,-1.682,-1.6707,-1.6707,-1.6707,-1.6349,-1.5475,-1.4856,-1.4369,-1.4038,-1.3503,-1.4131,-1.6281,-1.6348,-1.6286,-1.6112,-1.6106,-1.6012,-1.5808,-1.5808,-1.5808,-1.5808,-1.5808,-1.5808,-1.5808,-1.5808,-1.5808,-1.5808,-1.5808,-1.5808,-1.5808,-1.5808,-1.5808,-1.5706,-1.4926,-1.41,-1.3162,-1.1361,-1.019,-0.9336,-0.8333,-0.7988,-0.7988,-0.7988,-0.7988,-0.7988,-0.7988,-0.7973,-0.7915,-0.7861,-0.774,-0.76,-0.76,-0.76,-0.7584,-0.7526,-0.7512,-0.7495,-0.7438,-0.7401,-0.7374,-0.7302,-0.7285,-0.7251,-0.7112,0.0,-0.7095,-0.7095,-0.7095,-0.7095,-0.7095,-0.7095,-0.7095,-0.7095,-0.7095,-0.7095,-0.7095,-0.7095,-0.7095,-0.7095,-0.7208,-0.7285,-0.7285,-0.7377,-0.7407,-0.7393,-0.7576,-0.7675,-0.7733,-0.7858,-0.7929,-0.7932,-0.7989,-0.7988,-0.7988,-0.7988,-0.7988,-0.7988,-0.7988,-0.7988,-0.7988,-0.7988,-0.7988,-0.7988,-0.7988,-0.7988,-0.7988,-1.6872,-1.6921,-1.6981,-1.6981,-1.7173,-1.734,-1.734,-1.734,-1.734,-1.734,-1.7133,-1.6981,-1.6981,-1.6981,-1.6407,-1.4972,-1.4398,-1.372,-1.2762,-1.2679,-1.3681,-1.5916,-1.645,-1.6613,-1.6438,-1.6438,-1.6313,-1.6082,-1.6082,-1.6082,-1.6082,-1.6082,-1.6082,-1.6082,-1.6082,-1.6082,-1.6082,-1.6082,-1.6028,-1.5972,-1.5972,-1.5888,-1.5659,-1.4388,-1.3319,-1.2304,-1.0607,-0.941,-0.8552,-0.8137,-0.7988,-0.7988,-0.7988,-0.7988,-0.7988,-0.7988,-0.7988,-0.7988,-0.7988,-0.7868,-0.7716,-0.7716,-0.7716,-0.7726,-0.7678,-0.7665,-0.7655,-0.7607,-0.76,-0.7567,-0.7485,-0.7467,-0.7407,-0.7279,-0.7263,-0.7246,-0.7198,-0.7192,-0.7171,-0.7102,-0.7095,-0.7095,-0.7095,-0.7095,-0.7095,-0.7095,-0.7161,-0.7212,-0.7259,-0.7383,-0.7467,-0.7467,-0.7587,-0.7614,-0.7532,-0.7709,-0.781,-0.7861,-0.7962,-0.7988,-0.7988,-0.7988,-0.7988,-0.7988,-0.7988,-0.7988,-0.7988,-0.7988,-0.7988,-0.7988,-0.7988,-0.7988,-0.7988,-0.7988,-0.7988,-0.7988,-1.7206,-1.7408,-1.7608,-1.7608,-1.7608,-1.7608,-1.7608,-1.7608,-1.7608,-1.7608,-1.7608,-1.7608,-1.7608,-1.7582,-1.6988,-1.5497,-1.41,-1.327,-1.3264,-1.327,-1.3652,-1.4448,-1.589,-1.6688,-1.6682,-1.6707,-1.6707,-1.6707,-1.6707,-1.6707,-1.6707,-1.6707,-1.6707,-1.6707,-1.6682,-1.6675,-1.6675,-1.6682,-1.6515,-1.6273,-1.6273,-1.6075,-1.5642,-1.437,-1.3878,-1.3536,-1.0925,-1.0002,-0.9776,-0.8457,-0.7988,-0.7988,-0.7988,-0.7988,-0.7988,-0.7988,-0.7988,-0.7988,-0.7988,-0.7988,-0.7988,-0.7988,-0.7988,-0.7973,-0.7824,-0.7814,-0.7773,-0.7631,-0.7604,-0.7604,-0.76,-0.76,-0.76,-0.76,-0.76,-0.7546,-0.7416,-0.7396,-0.7338,-0.7119,-0.7098,-0.7098,-0.7098,-0.7098,-0.7098,-0.7098,-0.7285,-0.7464,-0.759,-0.76,-0.76,-0.76,-0.774,-0.7814,-0.7814,-0.7814,-0.7864,-0.7988,-0.7988,-0.7988,-0.7988,-0.7988,-0.7988,-0.7988,-0.7988,-0.7988,-0.7988,-0.7988,-0.7988,-0.7988,-0.7988,-0.7988,-0.7988,-0.7988,-0.7988,-0.7988,-1.7481,-1.7548,-1.7608,-1.7608,-1.7608,-1.7608,-1.7608,-1.7608,-1.7608,-1.7608,-1.7608,-1.7608,-1.7608,-1.6684,-1.547,-1.4046,-1.2593,-1.1324,-1.0268,-1.1187,-1.1864,-1.209,-1.4471,-1.5712,-1.5503,-1.6516,-1.6939,-1.6707,-1.6707,-1.6707,-1.6707,-1.6707,-1.6707,-1.665,-1.5626,-1.516,-1.5084,-1.4089,-1.4202,-1.4944,-1.3951,-1.4113,-1.4804,-1.3387,-1.2204,-1.1194,-1.043,-0.9485,-0.8531,-0.8137,-0.7988,-0.7988,-0.7988,-0.7988,-0.7988,-0.7988,-0.7988,-0.7988,-0.7988,-0.7988,-0.7988,-0.7988,-0.7988,-0.8003,-0.7956,-0.7946,-0.7935,-0.7891,-0.7885,-0.7851,-0.7767,-0.7746,-0.7716,-0.7614,-0.76,-0.7584,-0.7539,-0.7533,-0.7516,-0.7468,-0.7461,-0.7461,-0.7461,-0.7461,-0.7461,-0.7461,-0.7506,-0.7553,-0.7597,-0.7695,-0.7746,-0.7746,-0.7868,-0.7946,-0.7946,-0.7946,-0.7969,-0.7988,-0.7988,-0.7988,-0.7988,-0.7988,-0.7988,-0.7988,-0.7988,-0.7988,-0.7988,-0.7988,-0.7988,-0.7988,-0.7988,-0.7988,-0.7988,-0.7988,-0.7988,-0.7988,-1.7608,-1.7608,-1.7608,-1.7608,-1.7608,-1.7608,-1.7608,-1.7608,-1.7608,-1.7608,-1.7608,-1.7391,-1.6797,-1.5929,-1.4609,-1.2593,-1.1082,-0.986,-0.8964,-0.9726,-1.0241,-1.0241,-1.2453,-1.4163,-1.5135,-1.6039,-1.6672,-1.7054,-1.7054,-1.7054,-1.7054,-1.7054,-1.7054,-1.7003,-1.5501,-1.485,-1.4772,-1.3362,-1.3179,-1.3742,-1.2889,-1.3353,-1.4343,-1.2371,-1.1417,-1.1006,-0.9918,-0.8944,-0.8189,-0.8189,-0.8189,-0.8189,-0.8189,-0.8189,-0.8189,-0.8189,-0.8148,-0.813,-0.813,-0.806,-0.7988,-0.7988,-0.7988,-0.7988,-0.7988,-0.7988,-0.7988,-0.7988,-0.7988,-0.7986,-0.7895,-0.7875,-0.7847,-0.7763,-0.7749,-0.7729,-0.7692,-0.7682,-0.7662,-0.7607,-0.76,-0.76,-0.76,-0.76,-0.7624,-0.7678,-0.7682,-0.7709,-0.7746,-0.7831,-0.7875,-0.7875,-0.7966,-0.7988,-0.7988,-0.7988,-0.7988,-0.7988,-0.7988,-0.7988,-0.7988,-0.7988,-0.7988,-0.7988,-0.7988,-0.7988,-0.7988,-0.7988,-0.7988,-0.7988,-0.7988,-0.7988,-0.7988,-0.7988,-0.7988,-0.7988,-1.7608,-1.7608,-1.7608,-1.7608,-1.7608,-1.7608,-1.7608,-1.7608,-1.7556,-1.7417,-1.7391,-1.6849,-1.5364,-1.5097,-1.396,-1.1324,-0.9754,-0.8912,-0.8912,-0.8912,-0.8912,-0.8912,-1.0186,-1.2186,-1.4957,-1.5284,-1.6062,-1.7391,-1.7391,-1.7477,-1.7582,-1.7338,-1.7285,-1.7338,-1.5743,-1.5016,-1.4931,-1.3507,-1.28,-1.2644,-1.2486,-1.3153,-1.3921,-1.1266,-1.1097,-1.1927,-0.9407,-0.8519,-0.8509,-0.8509,-0.8509,-0.8509,-0.8509,-0.8509,-0.8509,-0.8509,-0.8417,-0.8315,-0.8315,-0.8187,-0.8054,-0.8054,-0.8044,-0.8033,-0.7992,-0.7988,-0.7988,-0.7988,-0.7988,-0.7988,-0.7988,-0.7988,-0.7988,-0.7988,-0.7988,-0.7966,-0.7827,-0.7807,-0.7784,-0.7655,-0.7638,-0.7638,-0.7638,-0.7638,-0.7692,-0.7797,-0.7807,-0.7868,-0.7982,-0.7988,-0.7988,-0.7988,-0.7988,-0.7988,-0.7988,-0.7988,-0.7988,-0.7988,-0.7988,-0.7988,-0.7988,-0.7988,-0.7988,-0.7988,-0.7988,-0.7988,-0.7988,-0.7988,-0.7988,-0.7988,-0.7988,-0.7988,-0.7988,-0.7988,-0.7988,-0.7988,-1.7608,-1.7608,-1.7608,-1.7608,-1.7608,-1.7608,-1.7608,-1.7608,-1.7199,-1.6041,-1.5876,-1.5337,-1.3911,-1.2724,-1.1783,-1.116,-0.9754,-0.8912,-0.8912,-0.8912,-0.8912,-0.8912,-0.921,-1.0213,-1.1996,-1.4228,-1.555,-1.5876,-1.5876,-1.6472,-1.7556,-1.5284,-1.4824,-1.5769,-1.3183,-1.2023,-1.1946,-1.0457,-1.0491,-1.1368,-1.021,-1.059,-1.1653,-0.9887,-0.9352,-0.9476,-0.8873,-0.8584,-0.8509,-0.8509,-0.8509,-0.8509,-0.8509,-0.8509,-0.8509,-0.8509,-0.8488,-0.8461,-0.8461,-0.8437,-0.8387,-0.8387,-0.8303,-0.8187,-0.8044,-0.7988,-0.7988,-0.7988,-0.7988,-0.7988,-0.7988,-0.7988,-0.7988,-0.7988,-0.7988,-0.8003,-0.7969,-0.7966,-0.7952,-0.7922,-0.7918,-0.7918,-0.7918,-0.7918,-0.7932,-0.7962,-0.7966,-0.7979,-0.7988,-0.7988,-0.7988,-0.7988,-0.7988,-0.7988,-0.7988,-0.7988,-0.7988,-0.7988,-0.7988,-0.7988,-0.7988,-0.7988,-0.7988,-0.7988,-0.7988,-0.7988,-0.7988,-0.7988,-0.7988,-0.7988,-0.7988,-0.7988,-0.7988,-0.7988,-0.7988,-0.7988,-1.7608,-1.7608,-1.7608,-1.7608,-1.7608,-1.7608,-1.7608,-1.7008,-1.6525,-1.6472,-1.5257,-1.4126,-1.3372,-1.1969,-1.0809,-1.0104,-0.9348,-0.8912,-0.8912,-0.8912,-0.8912,-0.8912,-0.8912,-0.9265,-1.0025,-1.2213,-1.3696,-1.4395,-1.4395,-1.4802,-1.553,-1.4019,-1.3696,-1.4314,-1.2077,-1.1105,-1.1,-0.9537,-0.9348,-0.9998,-0.921,-0.9781,-1.0945,-0.9454,-0.9294,-0.9756,-0.906,-0.874,-0.8699,-0.8699,-0.8699,-0.8699,-0.8699,-0.8699,-0.8699,-0.8699,-0.8648,-0.8591,-0.8591,-0.8537,-0.8509,-0.8509,-0.8451,-0.8359,-0.8184,-0.8067,-0.7988,-0.7988,-0.7988,-0.7988,-0.7988,-0.7988,-0.7988,-0.7988,-0.7988,-0.7988,-0.7988,-0.7988,-0.7988,-0.7988,-0.7988,-0.7988,-0.7988,-0.7988,-0.7988,-0.7988,-0.7988,-0.7988,-0.7988,-0.7988,-0.7988,-0.7988,-0.7988,-0.7988,-0.7988,-0.7988,-0.7988,-0.7988,-0.7988,-0.7988,-0.7988,-0.7988,-0.7988,-0.7988,-0.7988,-0.7988,-0.7988,-0.7988,-0.7988,-0.7988,-0.7988,-0.7988,-0.7988,-0.7988,-0.7988,-0.7988,-1.7608,-1.7608,-1.7608,-1.7608,-1.7608,-1.7608,-1.7608,-1.636,-1.5737,-1.6744,-1.4561,-1.2837,-1.2593,-1.1456,-1.0241,-0.902,-0.8912,-0.8912,-0.8912,-0.8912,-0.8912,-0.8912,-0.8912,-0.8912,-0.8912,-1.0104,-1.146,-1.2913,-1.2913,-1.3048,-1.3291,-1.2778,-1.2674,-1.2859,-1.1374,-1.0726,-1.0644,-0.9427,-0.8912,-0.8912,-0.8912,-0.9644,-1.0594,-0.9372,-0.9671,-1.0566,-0.9344,-0.8912,-0.8912,-0.8912,-0.8912,-0.8912,-0.8912,-0.8912,-0.8912,-0.8912,-0.8821,-0.8723,-0.8723,-0.8655,-0.856,-0.856,-0.854,-0.8515,-0.84,-0.8208,-0.8047,-0.7995,-0.7988,-0.7988,-0.7988,-0.7988,-0.7988,-0.7988,-0.7988,-0.7988,-0.7988,-0.7988,-0.7988,-0.7988,-0.7988,-0.7988,-0.7988,-0.7988,-0.7988,-0.7988,-0.7988,-0.7988,-0.7988,-0.7988,-0.7988,-0.7988,-0.7988,-0.7988,-0.7988,-0.7988,-0.7988,-0.7988,-0.7988,-0.7988,-0.7988,-0.7988,-0.7988,-0.7988,-0.7988,-0.7988,-0.7988,-0.7988,-0.7988,-0.7988,-0.7988,-0.7988,-0.7988,-0.7988,-0.7988,-0.7988,-1.7608,-1.7608,-1.7608,-1.7608,-1.7608,-1.7608,-1.7608,-1.636,-1.5043,-1.4019,-1.243,-1.0918,-0.9644,-0.932,-0.9127,-0.8912,-0.8912,-0.8912,-0.8912,-0.8912,-0.8912,-0.8912,-0.8912,-0.8912,-0.8912,-0.9103,-0.9915,-1.1406,-1.1406,-1.205,-1.3237,-1.0699,-1.0186,-1.1324,-0.986,-0.921,-0.9182,-0.8992,-0.8912,-0.8912,-0.8912,-0.902,-0.9182,-0.8964,-0.902,-0.9182,-0.8964,-0.8912,-0.8912,-0.8912,-0.8912,-0.8912,-0.8912,-0.8912,-0.8912,-0.8912,-0.8896,-0.8879,-0.8879,-0.8865,-0.8848,-0.8848,-0.875,-0.8676,-0.8655,-0.8438,-0.8201,-0.8044,-0.7988,-0.7988,-0.7988,-0.7988,-0.7988,-0.7988,-0.7988,-0.7988,-0.7988,-0.7988,-0.7988,-0.7988,-0.7988,-0.7988,-0.7988,-0.7988,-0.7988,-0.7988,-0.7988,-0.7988,-0.7988,-0.7988,-0.7988,-0.7988,-0.7988,-0.7988,-0.7988,-0.7988,-0.7988,-0.7988,-0.7988,-0.7988,-0.7988,-0.7988,-0.7988,-0.7988,-0.7988,-0.7988,-0.7988,-0.7988,-0.7988,-0.7988,-0.7988,-0.7988,-0.7988,-0.7988,-0.7988,-0.7988,-1.7608,-1.7608,-1.7608,-1.7608,-1.7608,-1.7312,-1.6499,-1.515,-1.3992,-1.3372,-1.1296,-0.9943,-1.0104,-0.9399,-0.8912,-0.8912,-0.8912,-0.8912,-0.8912,-0.8912,-0.8912,-0.8912,-0.8912,-0.8912,-0.8912,-0.8912,-0.921,-0.9864,-0.9864,-1.0213,-1.0809,-0.9509,-0.9237,-0.9833,-0.9182,-0.8912,-0.8912,-0.8912,-0.8912,-0.8912,-0.8912,-0.8912,-0.8912,-0.8912,-0.8912,-0.8912,-0.8912,-0.8912,-0.8912,-0.8912,-0.8912,-0.8912,-0.8912,-0.8912,-0.8912,-0.8912,-0.8912,-0.8912,-0.8912,-0.8912,-0.8912,-0.8912,-0.8862,-0.8787,-0.873,-0.8611,-0.8448,-0.8218,-0.817,-0.8143,-0.803,-0.7988,-0.7988,-0.7988,-0.7988,-0.7988,-0.7988,-0.7988,-0.7988,-0.7988,-0.7988,-0.7988,-0.7988,-0.7988,-0.7988,-0.7988,-0.7988,-0.7988,-0.7988,-0.7988,-0.7988,-0.7988,-0.7988,-0.7988,-0.7988,-0.7988,-0.8057,-0.817,-0.817,-0.8098,-0.7988,-0.7988,-0.7988,-0.7988,-0.7988,-0.7988,-0.7988,-0.7988,-0.7988,-0.7988,-0.7988,-0.7988,-0.7988,-0.7988,-0.7988,-0.7988]},{"header":{"parameterUnit":"m.s-1","parameterCategory":1,"la1":30.6,"la2":28.766,"lo1":-90.7593,"lo2":-88.6598,"dy":0.0162,"dx":0.0183,"nx":116,"ny":114,"refTime":"2024-04-29T18:00:00:Z","depth":0,"parameterNumber":3,"parameterNumberName":"V-component_of_WINDS"},"data":[0.0,0.0,0.0,0.0,0.0,0.0,0.0,0.0,0.0,0.0,0.0,0.0,0.0,0.0,0.0,0.0,0.0,0.0,0.0,0.0,0.0,0.0,0.0,0.0,0.0,0.0,0.0,0.0,0.0,0.0,0.0,0.0,0.0,0.0,0.0,0.0,0.0,0.0,0.0,0.0,0.0,0.0,0.0,0.0,0.0,0.0,0.0,0.0,0.0,0.0,0.0,0.0,0.0,0.0,0.0,0.0,0.0,0.0,0.0,0.0,0.0,0.0,0.0,0.0,0.0,0.0,0.0,0.0,0.0,0.0,0.0,0.0,0.0,0.0,0.0,0.0,0.0,0.0,0.0,0.0,0.0,0.0,0.0,0.0,0.0,0.0,0.0,0.0,0.0,0.0,0.0,0.0,0.0,0.0,0.0,0.0,0.0,0.0,0.0,0.0,0.0,0.0,0.0,0.0,0.0,0.0,0.0,0.0,0.0,0.0,0.0,0.0,0.0,0.0,0.0,0.0,0.0,0.0,0.0,0.0,0.0,0.0,0.0,0.0,0.0,0.0,0.0,0.0,0.0,0.0,0.0,0.0,0.0,0.0,0.0,0.0,0.0,0.0,0.0,0.0,0.0,0.0,0.0,0.0,0.0,0.0,0.0,0.0,0.0,0.0,0.0,0.0,0.0,0.0,0.0,0.0,0.0,0.0,0.0,0.0,0.0,0.0,0.0,0.0,0.0,0.0,0.0,0.0,0.0,0.0,0.0,0.0,0.0,0.0,0.0,0.0,0.0,0.0,0.0,0.0,0.0,0.0,0.0,0.0,0.0,0.0,0.0,0.0,0.0,0.0,0.0,0.0,0.0,0.0,0.0,0.0,0.0,0.0,0.0,0.0,0.0,0.0,0.0,0.0,0.0,0.0,0.0,0.0,0.0,0.0,0.0,0.0,0.0,0.0,0.0,0.0,0.0,0.0,0.0,0.0,0.0,0.0,0.0,0.0,0.0,0.0,0.0,0.0,0.0,0.0,0.0,0.0,0.0,0.0,0.0,0.0,0.0,0.0,0.0,0.0,0.0,0.0,0.0,0.0,0.0,0.0,0.0,0.0,0.0,0.0,0.0,0.0,0.0,0.0,0.0,0.0,0.0,0.0,0.0,0.0,0.0,0.0,0.0,0.0,0.0,0.0,0.0,0.0,0.0,0.0,0.0,0.0,0.0,0.0,0.0,0.0,0.0,0.0,0.0,0.0,0.0,0.0,0.0,0.0,0.0,0.0,0.0,0.0,0.0,0.0,0.0,0.0,0.0,0.0,0.0,0.0,0.0,0.0,0.0,0.0,0.0,0.0,0.0,0.0,0.0,0.0,0.0,0.0,0.0,0.0,0.0,0.0,0.0,0.0,0.0,0.0,0.0,0.0,0.0,0.0,0.0,0.0,0.0,0.0,0.0,0.0,0.0,0.0,0.0,0.0,0.0,0.0,0.0,0.0,0.0,0.0,0.0,0.0,0.0,0.0,0.0,0.0,0.0,0.0,0.0,0.0,0.0,0.0,0.0,0.0,0.0,0.0,0.0,0.0,0.0,0.0,0.0,0.0,0.0,0.0,0.0,0.0,0.0,0.0,0.0,0.0,0.0,0.0,0.0,0.0,0.0,0.0,0.0,0.0,0.0,0.0,0.0,0.0,0.0,0.0,0.0,0.0,0.0,0.0,0.0,0.0,0.0,0.0,0.0,0.0,0.0,0.0,0.0,0.0,0.0,0.0,0.0,0.0,0.0,0.0,0.0,0.0,0.0,0.0,0.0,0.0,0.0,0.0,0.0,0.0,0.0,0.0,0.0,0.0,0.0,0.0,0.0,0.0,0.0,0.0,0.0,0.0,0.0,0.0,0.0,0.0,0.0,0.0,0.0,0.0,0.0,0.0,0.0,0.0,0.0,0.0,0.0,0.0,0.0,0.0,0.0,0.0,0.0,0.0,0.0,0.0,0.0,0.0,0.0,0.0,0.0,0.0,0.0,0.0,0.0,0.0,0.0,0.0,0.0,0.0,0.0,0.0,0.0,0.0,0.0,0.0,0.0,0.0,0.0,0.0,0.0,0.0,0.0,0.0,0.0,0.0,0.0,0.0,0.0,0.0,0.0,0.0,0.0,0.0,0.0,0.0,0.0,0.0,0.0,0.0,0.0,0.0,0.0,0.0,0.0,0.0,0.0,0.0,0.0,0.0,0.0,0.0,0.0,0.0,0.0,0.0,0.0,0.0,0.0,0.0,0.0,0.0,0.0,0.0,0.0,0.0,0.0,0.0,0.0,0.0,0.0,0.0,0.0,0.0,0.0,0.0,0.0,0.0,0.0,0.0,0.0,0.0,0.0,0.0,0.0,0.0,0.0,0.0,0.0,0.0,0.0,0.0,0.0,0.0,0.0,0.0,0.0,0.0,0.0,0.0,0.0,0.0,0.0,0.0,0.0,0.0,0.0,0.0,0.0,0.0,0.0,0.0,0.0,0.0,0.0,0.0,0.0,0.0,0.0,0.0,0.0,0.0,0.0,0.0,0.0,0.0,0.0,0.0,0.0,0.0,0.0,0.0,0.0,0.0,0.0,0.0,0.0,0.0,0.0,0.0,0.0,0.0,0.0,0.0,0.0,0.0,0.0,0.0,0.0,0.0,0.0,0.0,0.0,0.0,0.0,0.0,0.0,0.0,0.0,0.0,0.0,0.0,0.0,0.0,0.0,0.0,0.0,0.0,0.0,0.0,0.0,0.0,0.0,0.0,0.0,0.0,0.0,0.0,0.0,0.0,0.0,0.0,0.0,0.0,0.0,0.0,0.0,0.0,0.0,0.0,0.0,0.0,0.0,0.0,0.0,0.0,0.0,0.0,0.0,0.0,0.0,0.0,0.0,0.0,0.0,0.0,0.0,0.0,0.0,0.0,0.0,0.0,0.0,0.0,0.0,0.0,0.0,0.0,0.0,0.0,0.0,0.0,0.0,0.0,0.0,0.0,0.0,0.0,0.0,0.0,0.0,0.0,0.0,0.0,0.0,0.0,0.0,0.0,0.0,0.0,0.0,0.0,0.0,0.0,0.0,0.0,0.0,0.0,0.0,0.0,0.0,0.0,0.0,0.0,0.0,0.0,0.0,0.0,0.0,0.0,0.0,0.0,0.0,0.0,0.0,0.0,0.0,0.0,0.0,0.0,0.0,0.0,0.0,0.0,0.0,0.0,0.0,0.0,0.0,0.0,0.0,0.0,0.0,0.0,0.0,0.0,0.0,0.0,0.0,0.0,0.0,0.0,0.0,0.0,0.0,0.0,0.0,0.0,0.0,0.0,0.0,0.0,0.0,0.0,0.0,0.0,0.0,0.0,0.0,0.0,0.0,0.0,0.0,0.0,0.0,0.0,0.0,0.0,0.0,0.0,0.0,0.0,0.0,0.0,0.0,0.0,0.0,0.0,0.0,0.0,0.0,0.0,0.0,0.0,0.0,0.0,0.0,0.0,0.0,0.0,0.0,0.0,0.0,0.0,0.0,0.0,0.0,0.0,0.0,0.0,0.0,0.0,0.0,0.0,0.0,0.0,0.0,0.0,0.0,0.0,0.0,0.0,0.0,0.0,0.0,0.0,0.0,0.0,0.0,0.0,0.0,0.0,0.0,0.0,0.0,0.0,0.0,0.0,0.0,0.0,0.0,0.0,0.0,0.0,0.0,0.0,0.0,0.0,0.0,0.0,0.0,0.0,0.0,0.0,0.0,0.0,0.0,0.0,0.0,0.0,0.0,0.0,0.0,0.0,0.0,0.0,0.0,0.0,0.0,0.0,0.0,0.0,0.0,0.0,0.0,0.0,0.0,0.0,0.0,0.0,0.0,0.0,0.0,0.0,0.0,0.0,0.0,0.0,0.0,0.0,0.0,0.0,0.0,0.0,0.0,0.0,0.0,0.0,0.0,0.0,0.0,0.0,0.0,0.0,0.0,0.0,0.0,0.0,0.0,0.0,0.0,0.0,0.0,0.0,0.0,0.0,0.0,0.0,0.0,0.0,0.0,0.0,0.0,0.0,0.0,0.0,0.0,0.0,0.0,0.0,0.0,0.0,0.0,0.0,0.0,0.0,0.0,0.0,0.0,0.0,0.0,0.0,0.0,0.0,0.0,0.0,0.0,0.0,0.0,0.0,0.0,0.0,0.0,0.0,0.0,0.0,0.0,0.0,0.0,0.0,0.0,0.0,0.0,0.0,0.0,0.0,0.0,0.0,0.0,0.0,0.0,0.0,0.0,0.0,0.0,0.0,0.0,0.0,0.0,0.0,0.0,0.0,0.0,0.0,0.0,0.0,0.0,0.0,0.0,0.0,0.0,0.0,0.0,0.0,0.0,0.0,0.0,0.0,0.0,0.0,0.0,0.0,0.0,0.0,0.0,0.0,0.0,0.0,0.0,0.0,0.0,0.0,0.0,0.0,0.0,0.0,0.0,0.0,0.0,0.0,0.0,0.0,0.0,0.0,0.0,0.0,0.0,0.0,0.0,0.0,0.0,0.0,0.0,0.0,0.0,0.0,0.0,0.0,0.0,0.0,0.0,0.0,0.0,0.0,0.0,0.0,0.0,0.0,0.0,0.0,0.0,0.0,0.0,0.0,0.0,0.0,0.0,0.0,0.0,0.0,0.0,0.0,0.0,0.0,0.0,0.0,0.0,0.0,0.0,0.0,0.0,0.0,0.0,0.0,0.0,0.0,0.0,0.0,0.0,0.0,0.0,0.0,0.0,0.0,0.0,0.0,0.0,0.0,0.0,0.0,0.0,0.0,0.0,0.0,0.0,0.0,0.0,0.0,0.0,0.0,0.0,0.0,0.0,0.0,0.0,0.0,0.0,0.0,0.0,0.0,0.0,0.0,0.0,0.0,0.0,0.0,0.0,0.0,0.0,0.0,0.0,0.0,0.0,0.0,0.0,0.0,0.0,0.0,0.0,0.0,0.0,0.0,0.0,0.0,0.0,0.0,0.0,0.0,0.0,0.0,0.0,0.0,0.0,0.0,0.0,0.0,0.0,0.0,0.0,0.0,0.0,0.0,0.0,0.0,0.0,0.0,0.0,0.0,0.0,0.0,0.0,0.0,0.0,0.0,0.0,0.0,0.0,0.0,0.0,0.0,0.0,0.0,0.0,0.0,0.0,0.0,0.0,0.0,0.0,0.0,0.0,0.0,0.0,0.0,0.0,0.0,0.0,0.0,0.0,0.0,0.0,0.0,0.0,0.0,0.0,0.0,0.0,0.0,0.0,0.0,0.0,0.0,0.0,0.0,0.0,0.0,0.0,0.0,0.0,0.0,0.0,0.0,0.0,0.0,0.0,0.0,0.0,0.0,0.0,0.0,0.0,0.0,0.0,0.0,0.0,0.0,0.0,0.0,0.0,0.0,0.0,0.0,0.0,0.0,0.0,0.0,0.0,0.0,0.0,0.0,0.0,0.0,0.0,0.0,0.0,0.0,0.0,0.0,0.0,0.0,0.0,0.0,0.0,0.0,0.0,0.0,0.0,0.0,0.0,0.0,0.0,0.0,0.0,0.0,0.0,0.0,0.0,0.0,0.0,0.0,0.0,0.0,0.0,0.0,0.0,0.0,0.0,0.0,0.0,0.0,0.0,0.0,0.0,0.0,0.0,0.0,0.0,0.0,0.0,0.0,0.0,0.0,0.0,0.0,0.0,0.0,0.0,0.0,0.0,0.0,0.0,0.0,0.0,0.0,0.0,0.0,0.0,0.0,0.0,0.0,0.0,0.0,0.0,0.0,0.0,0.0,0.0,0.0,0.0,0.0,0.0,0.0,0.0,0.0,0.0,0.0,0.0,0.0,0.0,0.0,0.0,0.0,0.0,0.0,0.0,0.0,0.0,0.0,0.0,0.0,0.0,0.0,0.0,0.0,0.0,0.0,0.0,0.0,0.0,0.0,0.0,0.0,0.0,0.0,0.0,0.0,0.0,0.0,0.0,0.0,0.0,0.0,0.0,0.0,0.0,0.0,0.0,0.0,0.0,0.0,0.0,0.0,0.0,0.0,0.0,0.0,0.0,0.0,0.0,0.0,0.0,0.0,0.0,0.0,0.0,0.0,0.0,0.0,0.0,0.0,2.4998,0.0,0.0,0.0,0.0,0.0,0.0,0.0,0.0,0.0,0.0,0.0,0.0,0.0,0.0,0.0,0.0,0.0,0.0,0.0,0.0,0.0,0.0,0.0,0.0,2.5305,2.5305,2.5305,2.5305,2.5305,2.5305,0.0,0.0,0.0,0.0,0.0,2.5305,2.5305,2.5305,2.5305,2.5305,2.5305,2.5305,2.5305,2.5305,2.5305,0.0,0.0,0.0,0.0,0.0,0.0,0.0,0.0,0.0,0.0,0.0,0.0,0.0,0.0,0.0,0.0,0.0,0.0,0.0,0.0,0.0,0.0,0.0,0.0,0.0,0.0,0.0,0.0,0.0,0.0,0.0,0.0,0.0,0.0,0.0,0.0,0.0,0.0,0.0,0.0,0.0,0.0,0.0,0.0,0.0,0.0,0.0,0.0,0.0,0.0,0.0,0.0,0.0,0.0,0.0,0.0,0.0,0.0,0.0,0.0,0.0,0.0,0.0,0.0,0.0,0.0,0.0,0.0,0.0,0.0,0.0,2.5777,0.0,0.0,0.0,0.0,0.0,0.0,0.0,0.0,0.0,0.0,0.0,0.0,0.0,0.0,0.0,0.0,0.0,0.0,0.0,0.0,0.0,2.5313,2.5308,2.5305,2.5305,2.5305,2.5305,2.5305,2.5305,2.5305,2.5305,2.5305,2.5305,2.5305,2.5305,2.5305,2.5305,2.5305,2.5305,2.5305,2.5305,2.5305,2.5305,2.5305,2.5305,0.0,0.0,0.0,0.0,0.0,0.0,0.0,0.0,0.0,0.0,0.0,0.0,0.0,0.0,0.0,0.0,0.0,0.0,0.0,0.0,0.0,0.0,0.0,0.0,0.0,0.0,0.0,0.0,0.0,0.0,0.0,0.0,0.0,0.0,0.0,0.0,0.0,0.0,0.0,0.0,0.0,0.0,0.0,0.0,0.0,0.0,0.0,0.0,0.0,0.0,0.0,0.0,0.0,0.0,0.0,0.0,0.0,0.0,0.0,0.0,0.0,0.0,0.0,2.6404,2.67,2.67,2.67,2.6741,2.6799,2.6799,2.7186,2.7783,2.7507,0.0,0.0,0.0,0.0,0.0,0.0,0.0,0.0,0.0,0.0,0.0,0.0,0.0,0.0,0.0,0.0,0.0,0.0,0.0,2.5354,2.532,2.5305,2.5305,2.5305,2.5305,2.5305,2.5305,2.5305,2.5305,2.5305,2.5305,2.5305,2.5305,2.5305,2.5305,2.5305,2.5305,2.5305,2.5305,2.5305,2.5305,2.5305,2.5305,2.5298,2.5261,0.0,0.0,0.0,0.0,0.0,0.0,0.0,0.0,0.0,0.0,0.0,0.0,0.0,0.0,0.0,0.0,0.0,0.0,0.0,0.0,0.0,0.0,0.0,0.0,0.0,0.0,0.0,0.0,0.0,0.0,0.0,0.0,0.0,0.0,0.0,0.0,0.0,0.0,0.0,0.0,0.0,2.2983,2.2422,0.0,0.0,0.0,0.0,0.0,0.0,0.0,0.0,0.0,0.0,0.0,0.0,0.0,2.5448,2.5448,2.6184,2.6539,2.6564,2.6649,2.67,2.67,2.67,2.689,2.7225,2.7225,0.0,2.7394,2.7692,0.0,0.0,0.0,0.0,0.0,0.0,0.0,0.0,0.0,0.0,0.0,0.0,0.0,0.0,0.0,0.0,0.0,0.0,0.0,0.0,0.0,2.5314,2.5305,2.5305,2.5305,2.5305,2.5305,2.5305,2.5305,2.5305,2.5305,2.5305,2.5305,2.5305,2.5305,2.5305,2.5305,2.5305,2.5305,2.5305,2.5305,2.5305,2.5305,2.5305,2.5305,2.5305,0.0,0.0,0.0,0.0,0.0,0.0,0.0,0.0,0.0,0.0,0.0,0.0,0.0,0.0,0.0,0.0,0.0,0.0,0.0,0.0,0.0,0.0,0.0,0.0,0.0,0.0,0.0,0.0,0.0,0.0,0.0,0.0,0.0,0.0,0.0,0.0,0.0,0.0,0.0,2.3032,2.2725,2.2798,2.2975,2.3113,0.0,0.0,0.0,0.0,0.0,0.0,0.0,0.0,0.0,2.5726,2.6057,2.6323,2.6547,2.6881,2.7377,2.8061,2.8061,2.8295,2.8728,2.8728,2.8823,2.8993,2.8993,2.9115,2.9289,2.877,2.9165,3.0128,0.0,0.0,0.0,0.0,3.139,3.139,0.0,0.0,0.0,0.0,0.0,0.0,0.0,0.0,0.0,0.0,0.0,0.0,2.5395,2.5348,2.5305,2.5305,2.5305,2.5305,2.5305,2.532,2.5338,2.5338,2.5338,2.5338,2.5334,2.5303,2.5305,2.5305,2.5305,2.5305,2.5305,2.5305,2.5305,2.5305,2.5305,2.5305,2.5305,2.5305,2.5305,2.5305,0.0,0.0,0.0,0.0,0.0,0.0,0.0,0.0,0.0,0.0,0.0,0.0,0.0,0.0,0.0,0.0,0.0,0.0,0.0,0.0,0.0,0.0,0.0,0.0,0.0,0.0,0.0,0.0,0.0,0.0,0.0,0.0,0.0,0.0,0.0,0.0,0.0,2.2956,2.2653,2.3301,2.3392,2.3578,0.0,0.0,0.0,0.0,0.0,0.0,2.5845,2.5879,2.6182,2.6832,2.7044,2.7351,2.7766,2.7966,2.8519,2.9398,2.9398,2.9725,3.03,3.03,3.0353,3.0443,3.0443,3.079,3.1236,3.0051,3.0292,3.1408,3.1358,3.1483,3.1733,3.1941,3.2015,3.2015,0.0,0.0,0.0,0.0,0.0,0.0,0.0,0.0,0.0,0.0,0.0,2.5461,2.5402,2.5348,2.5305,2.5305,2.5305,2.5305,2.5305,2.5363,2.5385,2.5385,2.5385,2.54,2.5391,2.5328,2.5305,2.5305,2.5305,2.5305,2.5305,2.5305,2.5305,2.5305,2.5305,2.5305,2.5305,2.5305,2.5305,2.5305,2.5305,0.0,0.0,0.0,0.0,0.0,0.0,0.0,0.0,0.0,0.0,0.0,0.0,0.0,0.0,0.0,0.0,0.0,0.0,0.0,0.0,0.0,0.0,0.0,0.0,0.0,0.0,0.0,0.0,0.0,0.0,0.0,0.0,0.0,0.0,0.0,0.0,0.0,0.0,2.3769,2.3598,0.0,0.0,0.0,0.0,2.5533,2.6184,2.6615,2.6649,2.6649,2.6839,2.7264,2.8021,2.8607,2.9006,2.9766,3.0178,3.0237,3.0237,3.0272,3.03,3.03,3.0512,3.0863,3.0863,3.1497,3.2427,3.1279,3.1045,3.1464,3.2221,3.2515,3.2619,3.3403,3.3678,3.3678,0.0,0.0,0.0,2.5633,2.5633,2.5633,2.5633,2.5658,2.5659,2.5633,2.5555,2.5482,2.5477,2.5371,2.5305,2.5305,2.5305,2.5305,2.5305,2.5312,2.5339,2.5339,2.5339,2.5337,2.5333,2.531,2.5305,2.5305,2.5305,2.5596,2.6118,2.5558,2.5596,2.6118,2.5558,2.5305,2.5305,2.5305,2.5305,2.5305,2.5305,2.5305,0.0,0.0,0.0,0.0,0.0,0.0,0.0,0.0,0.0,0.0,0.0,0.0,0.0,0.0,0.0,0.0,0.0,0.0,0.0,0.0,0.0,0.0,0.0,0.0,0.0,0.0,0.0,0.0,0.0,0.0,0.0,0.0,0.0,0.0,0.0,0.0,0.0,2.387,2.4447,0.0,2.5486,2.6008,2.6425,2.6672,2.6946,2.7202,2.7454,2.7954,2.8317,2.8461,2.9241,2.9862,3.0252,3.0546,3.1044,3.1785,3.1785,3.2319,3.3324,3.3324,3.3705,3.4373,3.4373,3.4602,3.4956,3.4533,3.3815,3.2963,3.3256,3.336,3.3421,3.3697,3.3807,3.3822,0.0,2.5703,0.0,2.5703,2.5703,2.5703,2.5703,2.5703,2.5703,2.5703,2.5603,2.5533,2.5493,2.5416,2.5342,2.5293,2.5329,2.5335,2.5335,2.5352,2.5389,2.5404,2.5372,2.5355,2.5308,2.5305,2.544,2.5731,2.5731,2.6176,2.7024,2.6445,2.6483,2.7005,2.6426,2.6,2.5731,2.5731,2.5577,2.5305,2.5305,2.5305,2.5305,0.0,0.0,0.0,0.0,0.0,0.0,0.0,0.0,0.0,0.0,0.0,0.0,0.0,0.0,0.0,0.0,0.0,0.0,0.0,0.0,0.0,0.0,0.0,0.0,0.0,0.0,0.0,0.0,0.0,0.0,0.0,0.0,0.0,0.0,0.0,2.4256,2.4777,2.5419,2.5931,2.6265,2.6665,2.7131,2.7667,2.7823,2.815,2.8673,2.9213,2.9571,2.9694,3.0494,3.1089,3.1479,3.2012,3.2668,3.3408,3.3708,3.4406,3.5452,3.5452,3.5745,3.631,3.631,3.631,3.631,3.631,3.5649,3.4633,3.4633,3.4633,3.4646,3.4745,3.4606,3.4368,2.5703,2.5703,2.5703,2.5703,2.5703,2.5703,2.5703,2.5703,2.5703,2.5703,2.5636,2.5588,2.55,2.5492,2.5452,2.5322,2.5373,2.5397,2.5397,2.5454,2.5535,2.5597,2.5536,2.5433,2.5293,2.5324,2.575,2.6599,2.6637,2.7082,2.7931,2.7912,2.7912,2.7931,2.7912,2.7431,2.6637,2.6618,2.6118,2.5344,2.5305,2.5305,2.5305,0.0,0.0,0.0,0.0,0.0,0.0,0.0,0.0,0.0,0.0,0.0,0.0,0.0,0.0,0.0,0.0,0.0,0.0,0.0,0.0,0.0,0.0,0.0,0.0,0.0,0.0,0.0,0.0,0.0,0.0,0.0,0.0,0.0,2.5424,2.4874,2.5031,2.6522,2.6463,2.6419,2.6732,2.7143,2.7714,2.8518,2.8941,2.9498,3.0285,3.0356,3.0555,3.0934,3.1757,3.2353,3.2674,3.4245,3.5034,3.5052,3.5892,3.631,3.6347,3.6354,3.6361,3.638,3.6394,3.6401,3.6401,3.6401,3.6401,3.6401,3.6336,3.6317,3.6338,3.6605,3.6218,3.5483,2.5703,2.5703,2.5703,2.5703,2.5703,2.5703,2.5703,2.5703,2.5703,2.5703,2.5636,2.5598,2.5568,2.5536,2.5495,2.5452,2.545,2.5463,2.5463,2.5481,2.5498,2.5465,2.5393,2.5339,2.5308,2.5923,2.6368,2.6599,2.7236,2.795,2.8761,2.8162,2.82,2.8742,2.8162,2.7777,2.7508,2.6871,2.6464,2.6195,2.5558,2.5305,2.5305,0.0,0.0,0.0,0.0,0.0,0.0,0.0,0.0,0.0,0.0,0.0,0.0,0.0,0.0,0.0,0.0,0.0,0.0,0.0,0.0,0.0,0.0,0.0,0.0,0.0,0.0,0.0,0.0,0.0,0.0,0.0,2.5883,2.62,2.5932,2.6213,2.6526,2.6752,2.7681,2.8335,2.8433,2.9067,2.969,3.0194,3.0345,3.061,3.1078,3.1649,3.2017,3.2122,3.3481,3.4254,3.4344,3.5415,3.5936,3.5954,3.62,3.6604,3.7188,3.7373,3.7774,3.8344,3.8589,3.8696,3.8696,3.8696,3.8696,3.8534,3.6934,3.6424,3.6599,3.6677,3.6846,3.6995,2.5703,2.5703,2.5703,2.5703,2.5703,2.5703,2.5703,2.5703,2.5703,2.5703,2.5661,2.5633,2.5603,2.5597,2.556,2.5496,2.5534,2.5546,2.5546,2.5564,2.5555,2.5498,2.5449,2.5579,2.5913,2.6397,2.699,2.7692,2.8175,2.8835,2.9621,2.9179,2.9198,2.9621,2.9159,2.8736,2.8374,2.7854,2.7236,2.656,2.606,2.5635,2.5305,2.5305,2.5305,2.5305,2.5305,2.5253,2.5168,2.5168,0.0,0.0,0.0,0.0,0.0,0.0,0.0,0.0,0.0,0.0,0.0,0.0,0.0,0.0,0.0,0.0,0.0,0.0,0.0,0.0,0.0,0.0,0.0,0.0,2.6801,2.7145,2.7298,2.7385,2.7586,2.7922,2.8764,2.9387,2.958,3.0175,3.0787,3.136,3.1536,3.185,3.2387,3.3176,3.361,3.361,3.4876,3.5602,3.571,3.6548,3.7037,3.7171,3.7525,3.7934,3.8387,3.8546,3.8877,3.9314,3.9523,3.9599,3.9599,3.9599,3.9599,0.0,0.0,0.0,0.0,0.0,3.7887,3.8265,2.5703,2.5703,2.5703,2.5703,2.5703,2.5703,2.5703,2.5703,2.5703,2.5703,2.5703,2.5682,2.5628,2.5661,2.5658,2.5539,2.5589,2.5606,2.5606,2.566,2.5661,2.5602,2.5696,2.6069,2.6786,2.6938,2.7726,2.9226,2.9255,2.9666,3.0411,3.0411,3.0402,3.0404,3.0404,2.9964,2.9239,2.9146,2.8239,2.6871,2.6676,2.6079,2.5305,2.5305,2.5305,2.5305,2.5305,2.5195,2.5031,2.5031,0.0,0.0,0.0,0.0,0.0,0.0,0.0,0.0,0.0,0.0,0.0,0.0,0.0,0.0,0.0,0.0,0.0,0.0,0.0,0.0,0.0,0.0,0.0,0.0,2.7884,2.8227,2.9023,2.8515,2.846,2.9542,2.9835,3.01,3.0511,3.0952,3.1521,3.2248,3.2657,3.317,3.3899,0.0,0.0,0.0,0.0,3.6658,3.6883,3.7685,3.824,3.8541,3.9265,3.9599,3.9599,3.9639,3.9651,3.9656,3.969,3.9701,3.9701,3.9701,3.9701,3.9701,3.9668,3.9651,3.9596,3.9156,3.9184,3.9319,2.5703,2.5703,2.5703,2.5703,2.5703,2.5703,2.5703,2.5703,2.5703,2.5703,2.5703,2.5703,2.5683,2.5683,2.5683,2.5661,2.5662,2.5683,2.5683,2.5637,2.5607,2.5602,2.6216,2.664,2.6805,2.8167,2.9032,2.9364,3.0004,3.036,3.0484,3.0484,3.0445,3.0404,3.0404,3.0308,3.0099,2.9393,2.8915,2.8508,2.714,2.6079,2.5305,2.5305,2.5305,2.5305,2.5305,2.5271,2.5232,2.5232,2.5214,2.519,2.519,0.0,0.0,0.0,0.0,0.0,0.0,0.0,0.0,0.0,0.0,0.0,0.0,0.0,0.0,0.0,0.0,0.0,0.0,0.0,0.0,2.7756,2.8332,2.9048,2.9855,2.9837,2.9819,3.0052,3.1235,3.205,3.2155,3.2811,3.3291,3.3462,3.4126,3.4594,3.4766,3.5782,3.6371,3.6371,3.7429,3.8021,3.8066,3.8864,3.9302,3.936,0.0,0.0,3.9611,3.9886,4.0002,4.0017,4.0226,4.0332,4.0332,4.0332,4.0332,4.0292,4.0091,4.0002,4.0018,4.0134,4.0207,4.0246,2.5703,2.5703,2.5703,2.5703,2.5703,2.5703,2.5703,2.5703,2.5703,2.5703,2.5703,2.5703,2.5703,2.5703,2.5703,2.5703,2.5703,2.5703,2.5703,2.5662,2.5658,2.5658,2.6449,2.7107,2.7537,2.8802,2.9646,3.0057,3.041,3.0583,3.0558,3.0526,3.0486,3.0456,3.0419,3.0404,3.0365,2.9945,2.9509,2.8992,2.7758,2.6736,2.5904,2.5462,2.5305,2.5305,2.5305,2.5305,2.5305,2.5305,2.5305,2.5305,2.5305,2.5305,2.5305,0.0,0.0,0.0,0.0,0.0,0.0,0.0,0.0,0.0,0.0,0.0,0.0,0.0,0.0,2.634,2.6977,0.0,2.8085,2.8524,2.8832,2.928,3.0099,3.0558,3.0944,3.1341,3.2106,3.2754,3.3158,3.3568,3.3807,3.3807,3.4704,3.5252,3.5252,3.6721,3.7544,3.7544,3.8499,3.908,3.9243,3.9656,3.9913,4.0048,4.0048,4.0048,4.0053,4.0217,4.0308,4.0313,4.0449,4.0496,4.0496,4.0496,4.0496,4.0485,4.0351,4.0308,4.0321,4.0457,4.0496,4.0496,2.5703,2.5703,2.5703,2.5703,2.5703,2.5703,2.5703,2.5703,2.5703,2.5703,2.5703,2.5703,2.5703,2.5703,2.5703,2.5703,2.5703,2.5703,2.5703,2.5703,2.5703,2.5703,2.6699,2.7578,2.8281,2.9269,3.0099,3.0744,3.0689,3.0639,3.0625,3.0561,3.0533,3.0528,3.0465,3.0436,3.0411,3.0411,3.0012,2.9278,2.8297,2.7483,2.6769,2.5702,2.5305,2.5305,2.5305,2.5305,2.5305,2.5305,2.5305,2.5305,2.5305,2.5305,2.5305,2.5305,2.5305,0.0,0.0,0.0,0.0,0.0,0.0,0.0,0.0,0.0,2.572,2.6257,2.6591,2.7155,2.8339,2.8479,2.8638,2.9333,2.941,2.9671,3.0489,3.1277,3.2089,3.2921,3.2912,3.3084,3.3733,3.3807,3.3895,3.4104,3.5132,3.5825,3.6058,3.7768,3.8723,3.8723,3.941,3.9903,4.0172,4.0177,4.0295,4.0496,4.0496,4.0496,4.0496,4.0496,4.0496,4.0496,4.0496,4.0496,4.0496,4.0496,4.0496,4.0496,4.0496,4.0496,4.0496,4.0496,4.0496,4.0496,2.5703,2.5703,2.5703,2.5703,2.5703,2.5703,2.5703,2.5703,2.5703,2.5703,2.5703,2.5703,2.5703,2.5703,2.5703,2.5703,2.5703,2.5703,2.5703,2.5703,2.5703,2.5703,2.7285,2.8203,2.8301,2.9902,3.0781,3.0878,3.0878,3.0812,3.0688,3.0683,3.0655,3.0591,3.058,3.0531,3.05,3.05,3.0392,3.0115,2.8544,2.7882,2.7669,2.5948,2.5305,2.5305,2.5305,2.5305,2.5305,2.5305,2.5305,2.5305,2.5305,2.5305,2.5305,2.5305,2.5305,2.5305,2.5305,2.5305,2.5305,2.5305,2.5305,2.5305,0.0,0.0,2.6481,2.6542,2.7615,2.8576,2.8746,2.918,2.9552,2.9646,3.0282,3.1068,3.1864,3.2669,3.3502,3.4362,3.3994,3.3697,3.3788,3.3807,3.4217,3.5237,3.6093,3.7,3.8019,3.924,3.9904,3.9904,4.0223,4.0418,4.0461,4.0461,4.0473,4.0496,4.0496,4.0496,4.0496,4.0496,4.0496,4.0496,4.0496,4.0496,4.0496,4.0496,4.0496,4.0496,4.0496,4.0496,4.0496,4.0496,4.0496,4.0496,2.5703,2.5703,2.5703,2.5703,2.5703,2.5703,2.5703,2.5703,2.5703,2.5703,2.5703,2.5703,2.5703,2.5703,2.5703,2.5703,2.5703,2.5703,2.5703,2.5703,2.5703,2.5703,2.6875,2.7539,2.7539,2.875,2.9648,3.0137,3.0137,3.037,3.0815,3.0743,3.0686,3.0663,3.0624,3.0586,3.0528,2.9988,2.975,2.9614,2.789,2.7249,2.7154,2.5904,2.5429,2.5402,2.5364,2.5335,0.0,2.5357,2.5333,2.5305,2.5305,2.5305,2.5305,2.5305,2.5305,2.5305,2.5305,2.5305,2.5305,0.0,2.5305,2.5305,2.5305,2.5962,2.6736,2.7255,2.8224,2.9139,2.9634,2.9807,2.9877,0.0,3.0507,3.1283,3.2081,3.2888,3.3723,3.4605,3.4483,3.4313,3.4313,3.4313,3.4712,3.5656,3.6667,3.7659,3.8635,3.9722,4.0334,4.0334,4.0449,4.0496,4.0496,4.0496,4.0496,4.0496,4.0496,4.0496,4.0496,4.0496,4.0496,4.0496,4.0496,4.0496,4.0496,4.0496,4.0496,4.0496,4.0496,4.0496,4.0496,4.0496,4.0496,4.0496,2.5703,2.5703,2.5703,2.5703,2.5703,2.5703,2.5703,2.5703,2.5703,2.5703,2.5703,2.5703,2.5703,2.5703,2.5703,2.5703,2.5703,2.5703,2.5703,2.5703,2.5703,2.5703,2.6523,2.6992,2.6992,2.7851,2.8613,2.9238,2.9238,2.9551,3.0176,3.0071,3.0044,3.0043,2.9993,2.9966,2.9888,2.9214,2.8932,2.8836,2.7321,2.6763,2.6728,2.5845,2.5501,2.5528,2.5459,2.5402,2.5365,2.5406,2.54,2.5352,2.5352,2.5352,2.5352,2.5352,2.5346,2.5338,2.5323,2.5315,0.0,2.5305,2.5481,2.5654,2.5654,2.6503,2.7467,2.8104,2.8893,2.964,3.0288,3.0248,3.01,3.01,3.0914,3.1739,3.2315,3.3311,3.4208,3.485,3.4926,3.4926,3.4926,3.4992,3.54,3.6304,3.7366,3.8353,3.9284,4.0075,4.0496,4.0496,4.0496,4.0496,4.0496,4.0496,4.0496,4.0496,4.0496,4.0496,4.0496,4.0496,4.0496,4.05,4.0534,4.0556,4.0556,4.0556,4.0556,4.0548,4.0516,4.0496,4.0496,4.0496,4.0496,4.0496,2.5703,2.5703,2.5703,2.5703,2.5703,2.5703,2.5703,2.5703,2.5703,2.5703,2.5703,2.5703,2.5703,2.5703,2.5703,2.5703,2.5703,2.5703,2.5703,2.5703,2.5703,2.5703,2.6523,2.6992,2.6992,2.7851,2.8301,2.834,2.834,2.8359,2.8379,2.8379,2.8379,2.8379,2.8379,2.8334,2.8269,2.8248,2.8198,2.8055,2.7162,2.6836,2.6799,2.5862,2.5545,2.5595,2.553,2.5507,2.5485,2.5507,2.5507,2.5485,2.5485,2.5485,0.0,2.5485,2.545,2.5396,2.5404,0.0,2.5305,2.5305,2.5942,2.656,2.656,2.7835,2.903,2.9069,2.9756,3.0365,3.0404,3.0398,3.0395,3.0395,3.176,3.2856,3.2875,3.4352,3.5448,3.5463,3.5483,3.5483,0.0,3.5716,3.6328,3.7469,3.8364,3.9327,4.0381,4.0473,4.0496,4.0496,4.0496,4.0496,4.0496,4.0496,4.0496,4.0496,4.0496,4.0496,4.0496,4.0496,4.0496,4.0508,4.0643,4.0692,4.0692,4.0692,4.0692,4.0677,4.0548,4.0496,4.0496,4.0496,4.0496,4.0496,2.5703,2.5703,2.5703,2.5703,2.5703,2.5703,2.5703,2.5703,2.5703,2.5703,2.5703,0.0,0.0,0.0,0.0,0.0,2.566,2.5659,2.5703,2.566,2.5659,2.5703,2.5977,2.6133,2.6133,2.6426,2.6855,2.7441,2.7441,2.7734,2.8301,2.8301,2.8301,2.8301,2.8301,2.8281,2.8238,2.76,2.7343,2.7288,2.6369,2.603,2.607,2.5753,2.5657,2.5661,0.0,2.5588,2.5517,2.5553,0.0,0.0,2.5491,0.0,0.0,2.5491,2.5455,2.54,2.5409,0.0,2.6156,2.6156,2.6813,2.7469,2.7469,2.8316,2.9107,2.9107,2.9838,3.0447,3.0405,3.0449,3.0445,3.0402,3.1811,3.2891,3.2891,3.4407,3.55,3.55,3.55,0.0,0.0,0.0,0.0,3.7793,3.8669,3.9565,4.0454,4.0496,4.0496,4.0496,4.0496,4.0496,4.0496,4.0496,4.0541,4.0639,4.069,4.0698,4.0698,4.0698,4.0698,4.07,4.0743,4.0781,4.0781,4.0781,4.0781,4.0757,4.0716,4.0698,4.0698,4.0698,4.0698,4.0685,0.0,2.5703,2.5703,2.5703,2.5703,0.0,0.0,0.0,0.0,0.0,0.0,0.0,0.0,0.0,0.0,0.0,0.0,2.5605,2.5632,2.5595,2.5573,2.5632,2.5633,2.5633,2.5633,2.5633,2.591,2.6501,2.6501,2.6796,2.7363,2.7363,2.7363,2.7363,2.7363,2.7363,2.7324,2.6733,2.65,2.6484,2.5874,2.5661,2.5703,2.5703,2.5703,0.0,2.5703,2.5637,2.557,2.561,0.0,0.0,0.0,0.0,0.0,2.5567,2.551,2.5535,2.5853,2.6297,2.6743,2.7058,2.7791,2.8444,2.8444,2.9061,2.9638,2.9638,3.0124,3.0517,3.0477,3.0493,3.0493,3.0443,3.1828,3.2891,3.2891,3.4407,3.55,3.55,3.575,3.6135,0.0,0.0,0.0,3.8411,3.9242,3.9958,4.0477,4.0496,4.0496,4.0496,4.0496,4.0496,4.0496,4.0545,4.0627,4.0739,4.0784,4.0799,4.0799,4.0799,4.0799,4.0801,4.0855,4.087,4.087,4.087,4.087,4.0867,4.0813,4.0799,4.0799,4.0799,4.0822,4.0857,0.0,0.0,2.5703,0.0,0.0,0.0,0.0,0.0,0.0,0.0,0.0,0.0,0.0,0.0,0.0,0.0,0.0,0.0,2.5495,2.5508,2.5507,2.5491,2.5491,2.5491,2.5491,2.5491,2.5538,2.5599,2.5599,2.5633,2.5683,2.5683,2.5703,2.5703,2.5703,2.5703,2.5703,2.5703,2.5703,2.5703,2.5703,2.5703,2.5703,2.5703,2.5703,2.5703,2.5703,2.5703,0.0,0.0,0.0,0.0,0.0,0.0,2.5703,2.5703,2.5678,2.5855,2.6676,2.6922,2.7137,2.7959,2.8829,2.9463,2.9463,3.0043,3.0604,3.0604,3.0607,3.0609,0.0,0.0,3.0507,3.0501,3.1854,3.2891,3.2891,3.4407,3.5519,0.0,0.0,0.0,0.0,0.0,0.0,3.9373,0.0,4.0496,4.0496,4.0504,4.0512,4.0512,4.05,4.0527,4.0527,4.0646,4.0752,4.0807,4.0813,4.0814,4.0814,4.0814,4.0814,4.0839,4.0956,4.1019,4.1019,4.1019,4.1019,4.0995,4.0869,4.0814,4.0814,4.0814,4.0908,4.0992,0.0,0.0,0.0,0.0,0.0,0.0,0.0,0.0,0.0,0.0,0.0,0.0,0.0,0.0,0.0,0.0,0.0,0.0,2.5492,2.5441,2.5455,2.5508,2.5491,2.5491,2.5491,2.5491,2.5519,2.5533,2.5533,2.5559,2.5631,2.5631,2.5658,2.5703,2.5703,2.5703,2.5703,2.5703,2.5703,2.5703,2.5703,2.5703,2.5703,2.5703,2.5703,2.5703,2.5703,2.5703,0.0,0.0,0.0,0.0,0.0,2.5703,2.5703,0.0,0.0,2.6618,2.6833,2.7797,2.8785,2.9,2.9697,3.0294,3.0294,3.0449,3.0604,3.0604,3.0648,3.0665,0.0,0.0,0.0,3.0514,3.1854,0.0,3.2891,3.4407,0.0,3.6327,0.0,3.7215,3.8511,3.9031,0.0,0.0,4.044,4.0496,4.0496,4.0589,4.0659,4.0659,4.0696,4.073,4.073,4.0863,4.0935,4.0953,4.1052,4.1103,4.1103,4.1103,4.1103,4.1103,4.1129,4.115,4.115,4.115,4.115,4.1149,4.1105,4.1103,4.1103,4.1103,4.1126,4.1149,0.0,0.0,0.0,0.0,0.0,0.0,0.0,0.0,0.0,0.0,0.0,0.0,0.0,0.0,0.0,0.0,0.0,0.0,0.0,2.5372,2.5366,2.5401,2.5404,2.5404,2.5404,2.5404,2.5423,2.5459,2.5464,2.5482,2.5557,2.5557,2.5597,2.566,2.566,2.5662,2.5703,2.5703,2.5703,0.0,0.0,2.5703,2.5703,2.5703,2.5703,2.5703,2.5703,0.0,0.0,0.0,0.0,2.5703,2.5703,2.5703,2.5781,2.6152,0.0,2.7102,2.7884,2.8771,2.9576,2.9967,3.0395,3.0725,3.0725,3.0725,3.0725,3.0725,3.0762,0.0,3.0748,0.0,0.0,0.0,0.0,0.0,3.2972,3.4203,3.5499,0.0,3.7177,0.0,3.9292,3.9751,4.017,0.0,4.0658,4.0597,4.0632,4.0696,4.0735,4.0735,4.0786,4.0839,4.0899,4.0959,4.1026,4.1081,4.1151,4.1191,4.1191,4.1191,4.1191,4.1191,0.0,4.1191,4.1191,4.1191,4.1191,4.1191,4.1191,4.1191,4.1191,4.1191,4.1191,4.1191,0.0,0.0,0.0,0.0,0.0,0.0,0.0,0.0,0.0,0.0,2.5703,2.5703,0.0,0.0,0.0,0.0,0.0,0.0,0.0,0.0,2.5305,2.5305,2.5305,2.5305,2.5305,2.5305,2.5321,2.5399,2.5387,2.542,2.5498,2.5497,2.551,2.5595,2.5599,2.5634,2.5683,2.5703,2.5703,2.5703,2.5703,2.5703,2.5703,0.0,0.0,0.0,0.0,0.0,0.0,0.0,2.5703,2.5703,2.5703,2.5703,2.5879,2.6738,2.707,2.7539,2.916,2.9687,2.9922,3.0566,3.0801,3.0879,3.0742,3.082,3.0898,3.0898,0.0,3.0898,3.0898,3.0793,3.0695,3.0695,0.0,3.2193,3.3077,3.3949,3.5155,3.6957,3.7831,3.8686,3.9664,4.0396,4.0805,4.0838,4.0767,4.0764,4.0795,4.0811,4.0825,4.0857,4.0857,4.0913,4.1025,4.1025,4.1081,4.1191,4.1308,4.1367,4.1367,4.1484,4.1523,4.1523,4.1523,4.1465,4.1367,4.1367,4.1308,4.1191,4.1191,4.1191,4.1191,4.1191,4.1191,4.1211,0.0,0.0,0.0,0.0,0.0,0.0,0.0,0.0,0.0,0.0,2.5703,2.5703,0.0,0.0,0.0,0.0,0.0,0.0,0.0,0.0,0.0,2.5305,2.5305,2.5305,2.5305,2.5305,2.5317,2.532,2.5322,2.5348,2.5416,2.5429,2.5455,2.5529,2.5588,2.5604,2.561,2.5682,2.5703,2.5703,2.5703,2.5703,2.5703,0.0,0.0,0.0,0.0,0.0,0.0,0.0,2.5703,2.5703,2.5703,2.5703,2.5879,2.6738,2.7519,2.8301,2.9316,3.0137,3.0547,2.9961,3.0371,3.0703,2.998,3.0371,0.0,0.0,3.0898,3.0898,3.0898,3.0793,3.0695,3.0695,0.0,0.0,0.0,0.0,3.5389,0.0,0.0,0.0,0.0,0.0,0.0,0.0,0.0,4.0902,4.0803,4.091,4.1021,4.1128,4.1128,4.1149,4.1171,4.1171,4.1171,4.1211,4.1875,4.2187,4.2226,4.2949,4.3262,4.3262,4.3262,0.0,4.2187,4.2187,4.1797,4.1191,4.1191,4.1191,4.1191,4.1191,4.1191,4.1308,0.0,0.0,0.0,0.0,0.0,0.0,2.5703,2.5703,2.5703,2.5703,2.5703,2.5703,2.5703,2.5605,2.5551,0.0,0.0,0.0,0.0,0.0,0.0,0.0,0.0,0.0,0.0,2.5305,0.0,0.0,0.0,0.0,0.0,0.0,0.0,0.0,0.0,2.5522,2.5602,2.5634,2.5662,2.5703,2.5703,2.5703,0.0,0.0,0.0,0.0,0.0,0.0,0.0,0.0,2.5703,2.5703,2.5703,2.5703,2.5879,2.6738,2.7617,2.8496,2.9355,3.0234,3.0684,2.9824,3.0254,3.0664,2.9805,0.0,0.0,0.0,3.0898,3.0898,3.0898,3.0857,0.0,3.0794,0.0,0.0,0.0,0.0,0.0,0.0,0.0,0.0,0.0,0.0,0.0,0.0,0.0,4.1078,4.1019,4.1076,4.1128,4.1191,4.1191,4.1191,4.1191,4.1191,4.1406,4.1836,4.2226,4.2637,4.3086,4.3516,4.3691,4.3691,4.3691,4.3457,4.3047,4.2598,4.2168,4.1777,4.1367,4.1191,4.125,4.168,4.1816,4.1933,0.0,0.0,0.0,0.0,0.0,0.0,2.5703,2.5703,2.5703,2.5703,2.5703,2.5703,2.5703,2.5598,2.5525,0.0,0.0,0.0,0.0,0.0,0.0,0.0,0.0,0.0,0.0,0.0,0.0,0.0,0.0,0.0,0.0,0.0,0.0,0.0,0.0,0.0,0.0,2.5595,2.5633,0.0,0.0,0.0,0.0,0.0,0.0,0.0,0.0,0.0,0.0,0.0,2.5703,2.5703,2.5703,2.5703,2.5879,2.6738,2.748,2.8203,2.9082,2.9824,3.0137,2.9258,2.9844,3.0391,2.9512,3.0137,0.0,0.0,3.0898,3.0898,3.0898,3.0898,3.0898,0.0,3.0898,3.1484,0.0,0.0,0.0,0.0,0.0,0.0,0.0,0.0,0.0,0.0,0.0,0.0,4.1191,4.1191,4.1191,4.1191,4.1191,4.1191,4.1191,4.1367,4.1777,4.2402,4.2773,4.332,4.3984,4.418,4.4258,4.4258,4.4258,0.0,4.3926,4.3242,4.2851,4.2598,4.1777,4.1562,4.1797,4.2246,4.2519,4.2793,0.0,0.0,0.0,0.0,0.0,0.0,2.5703,2.5703,2.5703,2.5703,2.5703,2.5703,2.5703,2.5635,2.5563,0.0,0.0,0.0,0.0,0.0,0.0,0.0,0.0,0.0,0.0,0.0,0.0,0.0,0.0,0.0,0.0,0.0,0.0,0.0,0.0,0.0,0.0,0.0,0.0,0.0,0.0,0.0,0.0,0.0,0.0,0.0,0.0,0.0,0.0,0.0,0.0,2.5703,2.5703,2.5703,2.5879,2.6738,0.0,0.0,2.8184,2.8476,2.832,2.7461,2.8496,2.9492,2.8613,0.0,0.0,3.0898,3.0898,3.0898,3.0898,3.0898,3.0898,0.0,0.0,3.1484,0.0,0.0,0.0,0.0,0.0,0.0,0.0,0.0,0.0,0.0,0.0,0.0,4.1191,4.1191,4.1191,4.1191,4.1191,4.1191,4.1191,4.1914,4.2324,4.2422,4.4004,4.4805,4.4902,4.5703,4.6055,4.6055,4.6055,0.0,0.0,4.4785,4.4297,4.3496,4.2637,4.2773,4.3379,4.2656,4.2891,4.3711,0.0,0.0,0.0,0.0,0.0,0.0,2.5703,2.5703,2.5703,2.5703,2.5703,2.5683,2.5637,2.5658,2.5628,2.552,2.5436,0.0,0.0,0.0,0.0,0.0,0.0,0.0,0.0,0.0,2.5305,2.5305,0.0,0.0,0.0,0.0,0.0,0.0,0.0,0.0,0.0,0.0,0.0,0.0,0.0,0.0,0.0,0.0,0.0,0.0,0.0,0.0,0.0,0.0,0.0,0.0,2.5703,2.5703,0.0,0.0,2.6582,2.707,2.7422,2.7891,2.8086,2.7226,2.793,2.873,2.8379,0.0,3.0273,3.0781,3.0898,3.0898,3.0898,3.0898,3.0898,0.0,0.0,0.0,3.3164,0.0,0.0,0.0,0.0,0.0,0.0,0.0,0.0,0.0,0.0,0.0,4.1191,4.1191,4.1191,4.1191,4.1191,4.1191,4.1191,4.1992,4.2656,4.3203,4.4414,4.5273,4.5781,4.6133,4.6308,4.6308,4.6308,0.0,0.0,4.5215,4.4805,4.4394,4.3516,4.3398,4.3711,4.3906,4.418,4.4609,0.0,0.0,0.0,0.0,0.0,2.5703,2.5703,2.5703,2.5703,2.5703,2.5703,2.5683,2.5635,2.5662,2.5657,2.5501,2.5461,0.0,0.0,0.0,0.0,0.0,0.0,0.0,0.0,0.0,2.5305,2.5305,2.5305,2.5305,0.0,0.0,0.0,0.0,0.0,0.0,0.0,0.0,0.0,0.0,0.0,0.0,0.0,0.0,0.0,0.0,0.0,0.0,0.0,0.0,0.0,0.0,0.0,0.0,0.0,0.0,2.6133,2.6621,2.6621,2.7051,2.7383,2.6777,2.7266,2.7988,0.0,2.8965,2.9844,3.0723,3.0898,3.0898,3.0898,3.0898,3.0898,3.0898,0.0,3.1484,3.3164,3.3398,0.0,0.0,0.0,0.0,0.0,0.0,0.0,0.0,0.0,0.0,4.1191,4.1191,4.1191,4.1191,4.1191,4.1191,4.1191,4.2246,4.3086,4.3711,4.4844,4.5703,4.6308,4.6308,4.6308,4.6308,4.6308,0.0,0.0,4.5644,4.5371,4.5293,4.4414,4.4238,4.4512,4.4863,4.5156,4.5469,0.0,0.0,0.0,0.0,0.0,2.5703,2.5703,2.5703,2.5703,2.5703,2.5703,2.5703,2.5703,2.5703,2.5657,2.5501,2.5491,0.0,0.0,0.0,0.0,0.0,0.0,0.0,2.5305,2.5305,2.5305,2.5305,2.5305,2.5305,2.5305,2.5305,2.5305,0.0,0.0,0.0,0.0,0.0,0.0,0.0,0.0,0.0,2.5703,0.0,0.0,0.0,0.0,0.0,0.0,0.0,0.0,0.0,0.0,2.5703,2.5703,2.5703,2.5703,2.5703,2.5703,2.5723,2.5723,2.5723,2.6367,2.7246,2.8105,2.8965,2.9844,3.0723,3.0898,3.0898,3.0898,3.0898,3.0898,3.0898,3.0898,0.0,3.3164,3.3398,0.0,0.0,0.0,0.0,0.0,0.0,0.0,0.0,0.0,0.0,4.1191,4.1191,4.1191,4.1191,4.1191,4.1191,4.1191,4.2851,4.3691,4.3711,4.5469,4.6289,4.6308,4.6308,4.6308,4.6308,0.0,0.0,0.0,4.6289,4.6289,4.6191,4.5332,4.5508,4.6172,4.5312,4.5547,4.6289,0.0,0.0,0.0,0.0,0.0,0.0,2.5703,2.5703,2.5703,2.5703,2.5703,2.5703,2.5703,2.5703,2.5683,2.5636,2.5554,0.0,0.0,0.0,0.0,0.0,0.0,0.0,2.5305,2.5305,2.5305,2.5305,2.5305,2.5305,2.5305,2.5305,2.5317,2.5377,0.0,0.0,0.0,0.0,0.0,0.0,0.0,2.5601,2.5683,0.0,0.0,0.0,0.0,0.0,0.0,0.0,0.0,0.0,0.0,0.0,0.0,2.5703,2.5703,2.5703,2.5703,2.5703,2.5703,2.5703,2.5876,2.6434,2.7897,2.8407,2.8971,3.0394,3.0687,3.0718,3.0745,3.0768,3.0793,3.0898,3.0898,0.0,0.0,0.0,0.0,0.0,0.0,0.0,0.0,0.0,0.0,0.0,0.0,0.0,4.1191,4.1191,4.1191,4.1191,4.1191,4.1191,4.1191,4.2851,4.3691,4.3711,4.5469,4.6308,4.6308,4.6308,4.6308,0.0,0.0,0.0,4.6308,4.6308,4.6308,4.6269,4.5996,4.6055,4.6269,4.5996,4.6055,4.6308,0.0,0.0,0.0,0.0,0.0,0.0,2.5703,2.5703,2.5703,2.5703,2.5703,2.5703,2.5703,2.5703,2.5683,2.5661,2.5594,0.0,0.0,0.0,0.0,0.0,0.0,0.0,2.5305,2.5305,2.5305,2.5305,2.5305,2.5305,2.5305,2.5305,2.5312,2.5367,2.5352,2.5352,0.0,0.0,0.0,0.0,2.5526,2.5563,2.566,0.0,0.0,0.0,0.0,0.0,0.0,0.0,0.0,0.0,0.0,0.0,0.0,0.0,2.5661,2.5662,2.5683,2.5683,2.5662,2.5683,2.5633,2.6032,2.78,2.8157,2.8579,3.0253,3.0604,3.0618,3.0642,3.0668,3.0697,3.0761,3.0812,0.0,0.0,0.0,0.0,0.0,0.0,0.0,0.0,0.0,0.0,0.0,0.0,0.0,4.1191,4.1191,4.1191,4.1191,4.1191,4.1191,4.1191,4.2539,4.3379,4.3711,4.5137,4.5976,4.6308,4.6308,4.6308,0.0,0.0,4.6308,0.0,4.6308,4.6308,4.6308,4.6308,4.6308,4.6308,4.6308,4.6308,4.6308,0.0,0.0,0.0,0.0,0.0,0.0,0.0,2.5703,2.5703,2.5703,2.5703,2.5703,2.5703,2.5703,2.5662,2.5607,2.5605,0.0,0.0,0.0,0.0,0.0,0.0,2.5305,2.5305,2.5305,2.5305,2.5305,2.5305,2.5305,2.5305,2.5305,2.5291,2.5305,2.5367,2.5352,2.5296,0.0,0.0,0.0,2.5509,2.5545,0.0,0.0,0.0,0.0,0.0,0.0,0.0,0.0,0.0,0.0,0.0,0.0,0.0,0.0,0.0,0.0,0.0,2.5637,2.5605,2.5662,2.5595,2.5966,2.7766,2.8126,0.0,3.0236,3.0586,3.0587,3.0594,3.0595,3.0597,3.0603,3.0659,0.0,0.0,0.0,0.0,0.0,0.0,0.0,0.0,0.0,0.0,0.0,0.0,0.0,4.1191,4.1191,4.1191,4.1191,4.1191,4.1191,4.1191,4.1992,4.2812,4.3613,4.4551,4.543,4.6211,4.6269,4.6308,0.0,4.6308,4.6308,4.6308,4.6308,4.6308,4.6308,4.6308,4.6308,4.6308,4.6308,4.6308,4.6308,0.0,0.0,0.0,0.0,0.0,0.0,0.0,0.0,0.0,0.0,2.5703,2.5703,2.5703,2.5703,2.5683,0.0,0.0,0.0,0.0,0.0,0.0,0.0,2.5339,2.5305,2.5305,2.5305,2.5305,2.5305,2.5305,2.5305,2.5305,2.5305,2.5323,2.537,2.5344,2.5315,2.5296,2.5377,0.0,0.0,2.5471,2.5545,0.0,0.0,0.0,0.0,2.5636,2.5611,0.0,0.0,0.0,0.0,0.0,0.0,0.0,0.0,2.5603,2.5543,2.5604,0.0,2.5535,2.5547,2.5476,2.5872,0.0,2.8006,2.8427,3.0104,0.0,3.0462,3.0503,3.0519,3.0545,3.0594,0.0,0.0,0.0,0.0,0.0,0.0,0.0,0.0,0.0,0.0,0.0,0.0,0.0,4.1191,4.1191,4.1191,4.1191,4.1191,4.1191,4.1191,4.1191,4.1992,4.25,4.2715,4.4258,4.5117,4.5332,4.5996,4.6308,0.0,4.6308,4.6308,4.6308,4.6308,4.6308,4.6308,4.6308,4.6308,4.6308,4.6308,4.6308,4.6308,0.0,0.0,0.0,0.0,0.0,0.0,0.0,0.0,0.0,0.0,2.5703,2.5703,2.5703,2.5703,2.5703,0.0,0.0,0.0,0.0,0.0,0.0,2.5452,2.5348,2.5305,2.5305,2.5305,2.5305,2.5305,2.5305,2.5305,2.5305,2.5305,2.5327,2.535,2.532,2.532,2.5359,2.5427,2.5425,2.5415,2.5463,0.0,0.0,0.0,0.0,0.0,2.5563,2.5555,0.0,2.5503,2.5512,2.5555,0.0,0.0,0.0,0.0,2.5517,2.5459,2.5465,2.5462,2.5467,2.5484,2.5425,2.5828,2.761,2.7943,2.8374,0.0,0.0,3.0411,3.0454,3.0482,0.0,0.0,3.0921,0.0,0.0,0.0,0.0,0.0,0.0,0.0,0.0,0.0,0.0,0.0,0.0,4.1191,4.1191,4.1191,4.1191,4.1191,4.1191,4.1191,4.1191,4.1621,4.2031,4.2402,4.3359,4.4238,4.5019,4.5488,4.5918,0.0,4.6308,4.6308,4.6308,4.6308,4.6308,4.6308,4.6308,4.6308,4.6308,4.6308,4.6308,4.6308,0.0,0.0,0.0,0.0,0.0,0.0,0.0,0.0,0.0,0.0,0.0,0.0,0.0,0.0,0.0,0.0,0.0,0.0,0.0,0.0,2.5506,2.5494,2.5369,2.5305,2.5305,2.5305,2.5305,2.5305,2.5305,2.5305,2.5305,2.5305,2.5305,2.5305,2.5305,2.5326,2.5381,2.5447,2.5436,2.5387,2.5477,0.0,0.0,0.0,0.0,0.0,0.0,0.0,0.0,2.5463,2.5485,2.5475,2.5476,0.0,0.0,0.0,0.0,0.0,2.5338,2.5357,2.5398,2.5461,2.5379,2.5777,2.7576,0.0,0.0,0.0,0.0,0.0,0.0,3.0447,0.0,0.0,0.0,0.0,0.0,0.0,0.0,0.0,0.0,0.0,0.0,0.0,0.0,0.0,0.0,4.1191,4.1191,4.1191,4.1191,4.1191,4.1191,4.1191,4.1191,4.1191,4.1543,4.2226,4.2344,4.3164,4.4609,4.4883,4.5391,4.6113,0.0,0.0,4.6308,4.6308,4.6308,4.6308,4.6308,4.6308,4.6308,4.6308,4.6308,4.6308,0.0,0.0,0.0,0.0,0.0,0.0,0.0,0.0,0.0,0.0,0.0,0.0,0.0,0.0,0.0,0.0,0.0,0.0,0.0,2.5547,2.5463,2.5425,2.5344,2.5305,2.5305,2.5305,2.5305,2.5305,2.5305,2.5305,2.5305,2.5305,2.5305,2.5305,2.5305,2.5317,2.5317,2.5338,2.5314,2.5336,2.5455,0.0,0.0,0.0,0.0,0.0,0.0,0.0,0.0,2.5344,2.5371,2.5424,2.5411,0.0,0.0,0.0,0.0,0.0,2.5375,2.5359,2.532,2.5321,2.5317,2.5755,2.7512,2.7909,2.8374,0.0,0.0,0.0,0.0,3.0451,0.0,0.0,0.0,0.0,0.0,0.0,0.0,0.0,0.0,0.0,0.0,0.0,0.0,0.0,0.0,4.1191,4.1191,4.1191,4.1191,4.1191,4.1191,4.1191,4.1191,4.1191,4.1269,4.1387,4.207,4.2539,4.2851,4.4336,4.5078,4.5234,0.0,4.6308,4.6308,4.6308,4.6308,4.6308,4.6308,4.6308,4.6308,4.6308,4.6308,4.6308,0.0,0.0,0.0,0.0,0.0,0.0,0.0,0.0,0.0,0.0,0.0,0.0,0.0,0.0,0.0,0.0,0.0,0.0,0.0,2.5543,2.5477,2.5404,2.5373,2.5335,2.5308,2.5305,2.5305,2.5305,2.5305,2.5305,2.5305,2.5305,2.5305,2.5305,2.5305,2.5305,2.5291,2.5344,2.5335,2.5303,0.0,0.0,0.0,0.0,0.0,0.0,0.0,0.0,0.0,0.0,2.5324,2.5352,2.5357,0.0,0.0,0.0,0.0,0.0,2.5337,2.5312,2.5401,2.5885,2.6,2.6445,2.8162,2.8549,2.8893,0.0,0.0,0.0,0.0,0.0,0.0,0.0,0.0,0.0,0.0,0.0,0.0,0.0,0.0,0.0,0.0,0.0,0.0,0.0,0.0,0.0,4.1191,4.1191,4.1191,4.1191,4.1191,4.1191,4.1191,4.1191,4.1191,4.1191,4.1562,4.1973,4.2422,4.3223,4.4101,4.5019,0.0,4.5859,4.6308,4.6308,4.6308,4.6308,4.6308,4.6308,4.6308,4.6308,4.6308,4.6308,0.0,0.0,0.0,0.0,0.0,0.0,0.0,0.0,0.0,0.0,0.0,0.0,0.0,0.0,0.0,0.0,0.0,0.0,0.0,2.5511,2.5459,2.5406,2.5378,2.5344,2.5308,2.5305,2.5305,2.5305,2.5305,2.5305,2.5305,2.5305,2.5305,2.5305,2.5305,2.5305,2.5293,2.5354,2.5342,2.5317,0.0,0.0,0.0,0.0,0.0,0.0,0.0,0.0,0.0,0.0,0.0,0.0,0.0,0.0,0.0,2.5305,2.5305,2.5305,2.5305,2.5442,2.5808,2.6697,2.6755,2.7044,2.8723,2.9107,0.0,0.0,0.0,0.0,0.0,0.0,0.0,0.0,0.0,0.0,0.0,0.0,0.0,0.0,0.0,0.0,0.0,0.0,0.0,0.0,0.0,0.0,4.1191,4.1191,4.1191,4.1191,4.1171,4.1171,4.1191,4.1171,4.1171,4.1191,4.1171,4.1483,4.2129,4.2304,4.3105,4.4394,4.4609,4.5078,4.5703,4.5918,4.5996,4.6016,4.6211,4.6308,4.6308,4.6308,4.6308,4.6308,0.0,0.0,0.0,0.0,0.0,0.0,0.0,0.0,0.0,0.0,0.0,0.0,0.0,0.0,0.0,0.0,0.0,0.0,2.5601,2.549,2.5418,2.5392,2.5346,2.5296,2.5305,2.5305,2.5305,2.5305,2.5305,2.5305,2.5305,2.5305,2.5305,2.5305,2.5305,2.5305,2.5308,2.5317,2.5296,2.5317,2.5368,0.0,0.0,0.0,0.0,0.0,0.0,0.0,0.0,0.0,0.0,0.0,0.0,0.0,2.5305,2.5305,2.5305,2.5305,2.5305,2.5885,2.6717,2.7585,2.7198,2.7044,2.8723,2.9107,0.0,3.0212,0.0,0.0,0.0,0.0,0.0,0.0,0.0,0.0,0.0,0.0,0.0,0.0,0.0,0.0,0.0,0.0,0.0,0.0,0.0,0.0,4.1191,4.1191,4.1191,4.1191,4.108,4.1078,4.1191,4.1078,4.1079,4.1191,4.1078,4.1119,4.1308,4.1995,4.2408,4.2637,4.3437,4.3828,4.3945,4.4766,4.5098,4.5176,4.5976,4.6308,4.6308,4.6308,4.6308,4.6308,0.0,0.0,0.0,0.0,0.0,0.0,0.0,0.0,0.0,0.0,0.0,0.0,0.0,0.0,0.0,0.0,0.0,0.0,2.5545,2.5482,2.5423,2.535,2.5346,2.5346,2.5308,2.5305,2.5305,2.5305,2.5305,2.5305,2.5305,2.5305,2.5305,2.5305,2.5305,2.5305,2.5305,2.5305,2.5305,2.5291,2.5323,2.5314,0.0,0.0,0.0,0.0,0.0,0.0,0.0,0.0,2.5305,2.5305,2.5305,2.5305,2.5305,2.5305,2.5305,2.5421,2.5962,2.6349,2.6928,2.8297,2.8393,0.0,0.0,2.9943,3.0064,3.039,3.0524,0.0,0.0,0.0,0.0,0.0,0.0,0.0,0.0,0.0,0.0,0.0,0.0,0.0,0.0,0.0,0.0,0.0,0.0,0.0,4.1191,4.1126,4.1078,4.1078,4.1025,4.0989,4.0955,4.1076,4.1076,4.0955,4.0989,4.0989,4.0955,4.1322,4.1807,4.2369,4.2733,4.3203,4.373,4.4062,4.4199,4.4219,4.4551,4.4687,4.4687,4.4687,4.4687,4.4687,0.0,0.0,0.0,0.0,0.0,0.0,0.0,0.0,0.0,0.0,0.0,0.0,0.0,0.0,0.0,0.0,0.0,0.0,2.5562,2.5493,2.5436,2.5371,2.5367,2.5352,2.5308,2.5305,2.5305,2.5305,2.5305,2.5305,2.5305,2.5305,2.5305,2.5305,2.5305,2.5305,2.5305,2.5305,2.5305,2.5305,2.5305,2.5305,0.0,0.0,0.0,0.0,0.0,0.0,0.0,0.0,2.5305,2.5305,2.5305,2.5305,2.5344,2.5635,2.5729,2.5939,2.6805,2.7227,2.7702,2.89,0.0,0.0,3.032,3.0484,3.0511,3.0525,3.0803,0.0,0.0,0.0,0.0,0.0,0.0,0.0,0.0,0.0,0.0,0.0,0.0,0.0,0.0,0.0,0.0,0.0,0.0,0.0,0.0,4.1025,4.0996,4.0996,4.0996,4.0957,4.0865,4.0997,4.0979,4.0766,4.0861,4.0873,4.0799,4.0875,4.1238,4.1831,4.1919,4.2301,4.2868,4.3164,4.3457,4.3691,4.3691,4.3691,4.3691,4.3691,4.3691,4.3691,0.0,0.0,0.0,0.0,0.0,0.0,0.0,0.0,2.5703,2.5703,2.5703,0.0,0.0,0.0,0.0,0.0,0.0,0.0,2.5683,2.5515,2.5423,2.5506,2.5379,2.5305,2.5305,2.5305,2.5305,2.5305,2.5305,2.5305,2.5305,2.5305,2.5305,2.5305,2.5305,2.5305,2.5305,2.5305,2.5305,2.5305,2.5305,2.5305,2.5305,0.0,0.0,0.0,0.0,0.0,0.0,0.0,2.5305,2.5305,2.5305,2.5305,2.5481,2.6368,2.6668,2.69,2.7761,2.859,2.9234,0.0,0.0,0.0,3.0587,3.0559,3.0515,3.0609,0.0,3.2054,3.2207,0.0,0.0,0.0,0.0,0.0,0.0,0.0,0.0,0.0,0.0,0.0,0.0,0.0,0.0,0.0,0.0,0.0,0.0,4.0921,4.0994,4.0994,4.0994,4.0994,4.0993,4.0865,4.0778,4.0695,4.0697,4.0736,4.0791,4.0726,4.0739,4.0803,4.0948,4.0995,4.1078,4.2009,4.2891,4.3672,4.3672,4.3672,4.3672,4.3672,4.3672,4.3672,0.0,0.0,0.0,0.0,0.0,0.0,0.0,0.0,2.5703,2.5703,2.5703,0.0,0.0,0.0,0.0,0.0,0.0,0.0,2.556,2.5462,2.5381,2.5361,2.5329,2.5305,2.5305,2.5305,2.5305,2.5305,2.5305,2.5305,2.5305,2.5305,2.5305,2.5305,2.5305,2.5305,2.5305,2.5305,2.5305,2.5305,2.5305,2.5305,2.5305,0.0,0.0,0.0,0.0,0.0,0.0,0.0,0.0,0.0,2.6019,2.6214,2.6387,2.7255,2.7522,2.773,2.8555,2.8989,0.0,3.0019,0.0,0.0,0.0,3.0644,0.0,0.0,3.1948,3.2518,3.373,0.0,0.0,0.0,0.0,0.0,0.0,0.0,0.0,0.0,0.0,0.0,0.0,0.0,0.0,0.0,0.0,0.0,0.0,4.0794,4.0786,4.0786,4.0786,4.0744,4.0644,4.0757,4.0716,4.0563,4.0646,4.0667,4.0588,4.067,4.0704,4.0734,4.0819,4.0914,4.1039,4.1403,4.1719,4.1933,4.1933,4.1933,4.1933,4.1933,4.1933,4.1933,0.0,0.0,0.0,0.0,0.0,0.0,0.0,0.0,2.5703,2.5703,2.5703,2.5703,0.0,0.0,0.0,0.0,0.0,0.0,2.5547,2.5456,2.5376,2.5344,2.5313,2.5305,2.5305,2.5305,2.5305,2.5305,2.5305,2.5305,2.5305,2.5305,2.5305,2.5305,2.5305,2.5305,2.5305,2.5305,2.5305,2.5305,2.5305,2.5305,2.5305,0.0,0.0,0.0,0.0,0.0,0.0,0.0,0.0,0.0,2.6948,2.7121,2.7288,2.8155,2.8458,2.8683,2.9501,2.9769,0.0,3.0504,3.0658,3.0663,3.0765,0.0,0.0,0.0,0.0,3.3496,0.0,0.0,0.0,0.0,0.0,0.0,0.0,0.0,0.0,0.0,0.0,0.0,0.0,0.0,0.0,0.0,0.0,0.0,0.0,4.0698,4.0697,4.0697,4.0737,4.0698,4.0572,4.0707,4.0679,4.0496,4.0572,4.0588,4.05,4.0575,4.0623,4.0633,4.0712,4.0859,4.1017,4.1081,4.115,4.1191,4.1191,4.1191,4.1191,4.1191,4.1191,4.1191,0.0,0.0,2.5703,2.5703,0.0,0.0,0.0,0.0,2.5703,2.5703,2.5703,2.5703,0.0,0.0,0.0,2.5703,2.5636,2.56,2.5597,2.5461,2.5404,2.5385,2.5328,2.5305,2.5305,2.5305,2.5305,2.5305,2.5305,2.5305,2.5305,2.5305,2.5305,2.5305,2.5305,2.5305,2.5305,2.5305,2.5305,2.5305,2.5382,2.5421,2.5421,2.5519,0.0,0.0,0.0,0.0,0.0,0.0,0.0,0.0,2.7989,2.8008,2.8189,2.9044,2.9403,2.9662,3.0477,0.0,0.0,3.0858,3.0794,0.0,3.0976,0.0,0.0,0.0,0.0,0.0,0.0,0.0,0.0,0.0,0.0,0.0,0.0,0.0,0.0,0.0,0.0,0.0,0.0,0.0,0.0,0.0,0.0,0.0,4.0508,4.0616,4.0677,4.0677,4.075,4.0735,4.068,4.0677,4.0623,4.0496,4.0496,4.0496,4.0496,4.0496,4.0496,4.0508,4.0649,4.0805,4.0962,4.0991,4.1077,4.1171,4.1191,4.1191,4.1191,4.1191,4.1191,4.1191,0.0,0.0,2.5703,2.5703,0.0,0.0,0.0,0.0,2.5703,2.5703,2.5703,2.5703,2.5703,2.5703,0.0,2.5703,2.5636,2.559,2.5513,2.5452,2.5374,2.5312,2.5301,2.5305,2.5305,2.5305,2.5305,2.5305,2.5305,2.5305,2.5305,2.5305,2.5305,2.5305,2.5305,2.5305,2.5305,2.5305,2.5305,2.5363,2.6038,2.6329,2.6406,2.7082,2.7469,0.0,0.0,0.0,0.0,0.0,0.0,0.0,2.8646,2.8838,2.9017,2.9888,3.0209,3.031,3.0486,3.0611,0.0,0.0,3.0794,3.1034,3.1758,3.2559,0.0,0.0,0.0,0.0,0.0,0.0,0.0,0.0,0.0,0.0,0.0,0.0,0.0,0.0,0.0,0.0,0.0,0.0,0.0,0.0,0.0,0.0,4.0508,4.0534,4.0537,4.0537,4.0558,4.0561,4.0537,4.0537,4.0538,4.0496,4.0496,4.0496,4.0496,4.0496,4.0496,4.0508,4.0649,4.0715,4.0769,4.0935,4.1021,4.1053,4.1151,4.1191,4.1191,4.1191,4.1191,4.1191,0.0,0.0,0.0,0.0,0.0,0.0,0.0,0.0,2.5703,2.5703,2.5703,2.5703,2.5703,2.5703,0.0,0.0,2.5636,2.5567,2.5496,2.5438,2.5377,2.5293,2.5305,2.5305,2.5305,2.5305,2.5305,2.5305,2.5305,2.5305,2.5305,2.5305,2.5305,2.5305,2.5305,2.5305,2.5324,2.575,2.5923,2.6,2.6871,2.7217,2.7274,2.7739,2.8143,2.8472,2.8472,0.0,0.0,0.0,0.0,0.0,0.0,0.0,2.9828,3.0301,3.0467,3.0505,3.0581,0.0,0.0,3.0771,0.0,3.1133,3.1992,3.2812,0.0,0.0,0.0,0.0,0.0,0.0,0.0,0.0,0.0,0.0,0.0,0.0,0.0,0.0,0.0,0.0,0.0,0.0,0.0,0.0,0.0,4.0561,4.05,4.0496,4.0496,4.0496,4.0496,4.0496,4.0496,4.0496,4.0496,4.0496,4.0496,4.0496,4.0496,4.0496,4.0496,4.05,4.0561,4.0646,4.0712,4.0816,4.0917,4.1017,4.1079,4.1149,4.1191,4.1191,4.1191,4.1191,0.0,0.0,0.0,0.0,0.0,0.0,0.0,0.0,0.0,2.5703,2.5703,2.5703,2.5703,2.5703,2.5703,0.0,0.0,0.0,2.5515,2.5421,2.5352,2.5291,2.5305,2.5305,2.5305,2.5305,2.5305,2.5305,2.5305,2.5305,2.5305,2.5305,2.5305,2.5305,2.5305,2.5382,2.5577,2.6291,2.6697,2.6909,2.7758,2.8104,2.8124,2.8277,2.8739,2.9316,2.9316,2.9794,3.0404,3.0404,0.0,0.0,0.0,0.0,3.0411,3.0475,3.0483,3.0521,3.0645,0.0,3.0711,3.0814,3.0857,0.0,3.195,3.2792,0.0,0.0,0.0,0.0,0.0,0.0,0.0,0.0,0.0,0.0,0.0,0.0,0.0,0.0,0.0,0.0,0.0,0.0,0.0,0.0,0.0,4.0496,4.0496,4.0496,4.0496,4.0496,4.0496,4.0496,4.0496,4.0496,4.0496,4.0496,4.0496,4.0496,4.0496,4.0496,4.0496,4.0496,4.0496,4.0566,4.0661,4.0689,4.0798,4.0946,4.0957,4.1027,4.1128,4.115,4.1171,4.1171,0.0,0.0,0.0,0.0,0.0,0.0,0.0,0.0,0.0,0.0,2.5703,2.5703,2.5703,2.5703,2.5703,2.5703,2.5683,2.5634,2.5519,0.0,0.0,2.5308,2.5305,2.5305,2.5305,2.5305,2.5305,2.5305,2.5305,2.5305,2.5305,2.5305,2.5305,2.5305,2.5305,2.5712,2.6426,2.6541,2.7044,2.7796,2.8607,2.8934,2.903,2.9772,3.0135,3.0231,3.0231,3.0308,3.0404,3.0404,3.0404,0.0,0.0,0.0,3.0407,3.0411,3.045,3.0507,0.0,0.0,3.0623,0.0,3.0674,3.0948,0.0,0.0,0.0,0.0,0.0,0.0,0.0,0.0,0.0,0.0,0.0,0.0,0.0,0.0,0.0,0.0,0.0,0.0,0.0,0.0,0.0,0.0,4.0496,4.0496,4.0496,4.0496,4.0496,4.0496,4.0496,4.0496,4.0496,4.0496,4.0496,4.0496,4.0496,4.0496,4.0496,4.0496,4.0496,4.0496,4.0496,4.0512,4.0546,4.0642,4.0724,4.0751,4.0803,4.0847,4.0867,4.0989,4.1025,4.103,0.0,0.0,0.0,0.0,0.0,0.0,0.0,0.0,0.0,0.0,0.0,2.5703,2.5703,2.5703,2.5703,2.5703,2.5661,2.5594,2.5455,2.5348,2.5305,2.5305,2.5305,2.5305,2.5305,2.5305,2.5305,2.5305,2.5305,2.5305,2.5305,2.5305,2.5305,2.5324,2.5808,2.6233,2.6656,2.7601,2.822,2.8646,2.9486,2.9833,2.9868,3.025,3.0404,3.0404,3.0404,3.0404,3.0404,3.0404,3.0404,3.0404,3.0404,0.0,0.0,0.0,3.0414,3.0445,3.0481,3.0558,3.0604,0.0,3.0629,3.086,3.171,0.0,0.0,0.0,0.0,0.0,0.0,0.0,0.0,0.0,0.0,0.0,0.0,0.0,0.0,0.0,0.0,0.0,0.0,0.0,0.0,0.0,4.0496,4.0496,4.0496,4.0496,4.0496,4.0496,4.0496,4.0496,4.0496,4.0496,4.0496,4.0496,4.0496,4.0496,4.0496,4.0496,4.0496,4.0496,4.0496,4.0496,4.0504,4.0566,4.0636,4.0703,4.0731,4.0761,4.0805,4.0865,4.0946,4.1018,0.0,0.0,0.0,0.0,0.0,0.0,0.0,0.0,0.0,0.0,0.0,2.5662,2.5658,0.0,0.0,0.0,2.5603,2.5511,2.5409,2.5337,2.5305,2.5305,2.5305,2.5305,2.5305,2.5305,2.5305,2.5305,2.5305,2.5401,2.5635,2.5635,2.575,2.5981,2.6406,2.6832,2.7313,2.8566,2.922,2.9489,3.0135,3.0404,3.0404,3.0404,3.0404,3.0404,3.0404,3.0404,3.0404,3.0404,3.0404,3.0404,3.0404,3.0404,0.0,0.0,0.0,0.0,0.0,0.0,3.0556,3.0556,3.0554,3.0801,0.0,0.0,0.0,0.0,0.0,0.0,0.0,0.0,0.0,0.0,0.0,0.0,0.0,0.0,0.0,0.0,0.0,0.0,0.0,0.0,0.0,0.0,4.0496,4.0496,4.0496,4.0496,4.0496,4.0496,4.0496,4.0496,4.0496,4.0496,4.0496,4.0496,4.0496,4.0496,4.0496,4.0496,4.0496,4.0496,4.0496,4.0496,4.0496,4.0496,4.0559,4.0659,4.0659,4.0673,4.0733,4.0764,4.0848,4.0931,0.0,0.0,0.0,0.0,0.0,0.0,0.0,0.0,0.0,0.0,0.0,2.5572,2.5526,2.55,2.55,2.55,2.5517,2.5483,2.5406,2.5337,2.5305,2.5305,2.5305,0.0,2.5305,2.5305,2.5305,2.5305,2.5305,2.5712,2.6522,2.6522,2.6967,2.7739,2.6948,2.7486,2.8973,2.9069,2.9583,3.0346,3.0385,3.0404,3.0404,3.0404,3.0404,3.0404,3.0404,3.0404,3.0404,3.0404,0.0,0.0,0.0,0.0,0.0,0.0,0.0,0.0,0.0,3.0402,0.0,3.0408,3.0457,0.0,0.0,0.0,0.0,0.0,0.0,0.0,0.0,0.0,0.0,0.0,0.0,0.0,0.0,0.0,0.0,0.0,0.0,0.0,0.0,0.0,0.0,0.0,4.0496,4.0496,4.0496,4.0496,4.0496,4.0496,4.0496,4.0496,4.0496,4.0496,4.0496,4.0496,4.0496,4.0496,4.0496,4.0496,4.0496,4.0496,4.0496,4.0496,4.0496,4.0496,4.05,4.0512,4.0512,4.0516,4.053,4.0655,4.0715,4.0743,0.0,0.0,0.0,0.0,0.0,0.0,0.0,0.0,0.0,0.0,0.0,0.0,0.0,2.5491,2.5491,2.5491,2.5469,2.5418,2.5341,2.5313,2.5305,2.5305,2.5305,2.5305,2.5305,2.5305,2.5305,2.5305,2.5865,2.6291,2.6618,2.7178,2.7873,2.8665,2.8335,2.8547,2.9146,2.9698,3.0118,3.0404,3.0404,3.0404,3.0404,3.0404,0.0,0.0,0.0,0.0,0.0,0.0,0.0,0.0,0.0,0.0,0.0,0.0,0.0,0.0,0.0,0.0,0.0,3.0404,3.0832,3.1342,0.0,0.0,0.0,0.0,0.0,0.0,0.0,0.0,0.0,0.0,0.0,0.0,0.0,0.0,0.0,0.0,0.0,0.0,0.0,0.0,0.0,0.0,0.0,4.0496,4.0496,4.0496,4.0496,4.0496,4.0496,4.0496,4.0496,4.0496,4.0496,4.0496,4.0496,4.0496,4.0496,4.0496,4.0496,4.0496,4.0496,4.0496,4.0496,4.0496,4.0496,4.0496,4.0496,4.0496,4.0504,4.0552,4.063,4.0715,0.0,0.0,0.0,0.0,0.0,2.5547,2.5485,2.5495,2.5475,2.5441,0.0,0.0,0.0,0.0,2.5433,2.5433,2.5396,2.5342,2.5293,2.5305,2.5305,2.5305,2.5305,2.5305,2.5305,2.5305,2.544,2.5731,2.6329,2.689,2.7448,2.8027,2.8739,2.9544,2.9544,2.9544,2.9563,3.0154,3.0404,3.0404,3.0404,0.0,3.0404,0.0,0.0,0.0,0.0,0.0,0.0,0.0,0.0,0.0,0.0,0.0,0.0,0.0,0.0,0.0,3.0404,0.0,0.0,0.0,0.0,3.1852,3.241,0.0,0.0,0.0,0.0,0.0,0.0,0.0,0.0,0.0,0.0,0.0,0.0,0.0,0.0,0.0,0.0,0.0,0.0,0.0,0.0,0.0,0.0,0.0,4.0496,4.0496,4.0496,4.0496,4.0496,4.0496,4.0496,4.0496,4.0496,4.0496,4.0496,4.0496,4.0496,4.0496,4.0496,4.0496,4.0496,4.0496,4.0496,4.0496,4.0496,4.0496,4.0496,4.0496,4.0496,4.0496,4.0556,4.0646,0.0,0.0,2.5588,2.5519,2.5508,2.5463,2.5411,2.5455,2.5452,2.532,0.0,0.0,0.0,0.0,0.0,2.5382,2.5382,2.5382,2.5382,2.5382,2.5382,2.5382,2.5382,2.5382,2.5382,2.5382,2.5788,2.6637,2.6656,2.7505,2.9107,2.9127,2.9583,3.0404,3.0404,3.0404,3.0404,3.0404,3.0404,3.0404,0.0,3.0404,3.0404,0.0,0.0,0.0,3.0404,3.0404,0.0,3.0404,0.0,0.0,0.0,0.0,0.0,0.0,0.0,0.0,0.0,0.0,0.0,0.0,0.0,0.0,3.3837,0.0,3.4472,0.0,0.0,0.0,0.0,0.0,0.0,0.0,0.0,0.0,0.0,0.0,0.0,0.0,0.0,0.0,0.0,0.0,0.0,0.0,4.0496,4.0496,4.0496,4.0496,4.0496,4.0496,4.0496,4.0496,4.0496,4.0496,4.0496,4.0496,4.0496,4.0496,4.0496,4.0496,4.0496,4.0496,4.0496,4.0496,4.0496,4.0496,4.0496,4.0496,4.0496,4.0496,4.0496,4.0496,4.0496,4.0523,0.0,2.5559,2.5515,2.5438,2.5421,2.5409,2.5337,2.5348,2.5348,0.0,0.0,0.0,2.6236,2.6794,2.7178,2.7178,2.7178,2.7178,2.7178,2.7178,2.7178,2.7178,2.7178,2.7178,2.7178,2.7178,2.7294,2.7546,2.8124,2.8646,2.9107,2.9756,3.0173,3.0404,3.0404,3.0404,3.0404,3.0404,0.0,3.0404,3.0404,3.0404,0.0,0.0,0.0,0.0,0.0,3.0404,3.0404,0.0,3.0404,3.0404,0.0,0.0,0.0,0.0,0.0,0.0,3.2042,0.0,0.0,0.0,0.0,0.0,3.4087,3.468,3.5215,0.0,0.0,0.0,0.0,0.0,0.0,0.0,0.0,0.0,0.0,0.0,0.0,0.0,0.0,0.0,0.0,0.0,0.0,0.0,4.0496,4.0496,4.0496,4.0496,4.0496,4.0496,4.0496,4.0496,4.0496,4.0496,4.0496,4.0496,4.0496,4.0496,4.0496,4.0496,4.0496,4.0496,4.0496,4.0496,4.0496,4.0496,4.0496,4.0496,4.0496,4.0496,4.0496,4.0496,4.0496,4.0504,2.6611,2.6575,2.6517,2.6453,2.6434,2.6431,2.64,2.6387,2.6387,0.0,0.0,0.0,2.714,2.7604,2.7893,2.7893,2.7893,2.7893,2.7893,2.7893,2.7893,2.7893,2.7893,2.7893,2.7893,2.7893,2.8066,2.8396,2.8876,2.9297,2.964,3.0154,3.0404,3.0404,3.0404,3.0404,3.0404,3.0404,3.0404,0.0,3.0404,0.0,0.0,3.0404,3.0404,0.0,0.0,0.0,3.0404,3.0404,3.0635,0.0,3.1349,3.1445,0.0,0.0,0.0,0.0,0.0,0.0,0.0,0.0,0.0,0.0,3.4661,3.5138,3.55,0.0,0.0,0.0,0.0,0.0,0.0,0.0,0.0,0.0,0.0,0.0,0.0,0.0,0.0,0.0,0.0,3.8761,3.8954,3.9415,3.9781,4.015,4.0477,4.0496,4.0496,4.0496,4.0496,4.0496,4.0496,4.0496,4.0496,4.0496,4.0496,4.0496,4.0496,4.0496,4.0496,4.0496,4.0496,4.0496,4.0496,4.0496,4.0496,4.0496,4.0496,4.0496,4.0496,4.0496,4.0496,4.0496,0.0,2.7995,2.7977,2.7914,2.7893,2.7893,2.7893,2.7893,2.7893,0.0,2.797,2.8066,2.8162,2.8181,2.8181,2.8181,2.8181,2.8181,2.8181,2.8181,2.8181,2.8181,2.8181,2.8181,2.8181,2.8181,2.8527,2.9239,2.9239,2.964,3.0404,3.0404,3.0404,3.0404,3.0404,3.0404,3.0404,3.0404,3.0404,3.0404,3.0404,3.0404,0.0,0.0,3.0404,3.0404,3.0519,3.0538,3.0558,3.0654,3.1195,3.1968,3.2679,3.2891,0.0,0.0,3.3045,0.0,0.0,0.0,0.0,0.0,0.0,0.0,3.5327,3.55,3.55,3.55,0.0,0.0,0.0,0.0,0.0,0.0,0.0,0.0,0.0,0.0,0.0,0.0,0.0,0.0,3.7777,3.7853,3.7892,3.7988,3.8723,3.9511,4.0323,4.0362,4.0419,4.0496,4.0496,4.0496,4.0496,4.0496,4.0496,4.0496,4.0496,4.0496,4.0496,4.0496,4.0496,4.0496,4.0496,4.0496,4.0496,4.0496,4.0496,4.0496,4.0496,4.0496,4.0496,4.0496,4.0496,4.0496,2.8007,2.7957,2.7922,2.7898,2.7893,2.7893,2.7893,2.7893,2.7893,2.7893,2.8453,2.9124,2.9849,2.9904,2.9904,2.9904,2.9904,2.9904,2.9904,2.9904,2.9904,2.9904,2.9904,2.9904,2.9904,2.9904,2.9981,3.0157,3.0157,3.0231,3.0404,3.0404,3.0404,3.0404,3.0404,3.0404,3.0404,3.0404,3.0404,3.0404,3.0404,0.0,3.0404,3.0404,3.0404,3.05,3.1195,3.1445,3.1542,3.2195,3.2526,3.2699,3.2852,0.0,0.0,3.3741,0.0,0.0,0.0,0.0,0.0,0.0,0.0,0.0,3.5462,3.55,3.55,0.0,0.0,0.0,0.0,0.0,0.0,0.0,0.0,0.0,0.0,0.0,0.0,0.0,0.0,0.0,3.6869,3.6946,3.7234,3.795,3.8161,3.8627,3.9492,3.9531,3.9823,4.0477,4.0496,4.0496,4.0496,4.0496,4.0496,4.0496,4.0496,4.0496,4.0496,4.0496,4.0496,4.0496,4.0496,4.0496,4.0496,4.0496,4.0496,4.0496,4.0496,4.0496,4.0496,4.0496,4.0496,4.0496,2.9204,2.9162,2.9157,2.9157,2.9157,2.9157,2.9157,2.9157,2.9157,2.9157,2.9506,2.9907,3.0346,3.0404,3.0404,3.0404,3.0404,3.0404,3.0404,3.0404,3.0404,3.0404,3.0404,3.0404,3.0404,3.0404,3.0404,3.0404,3.0404,3.0404,3.0404,3.0404,3.0404,3.0404,3.0404,3.0404,3.0423,3.0865,3.1061,3.1003,3.0577,0.0,3.1061,3.1061,3.1291,3.1695,3.2141,3.2295,3.2429,3.3279,3.3548,0.0,0.0,3.4196,3.4273,0.0,3.4853,3.4946,0.0,0.0,0.0,3.55,0.0,0.0,0.0,3.55,3.55,3.55,0.0,0.0,0.0,0.0,0.0,0.0,0.0,0.0,0.0,0.0,0.0,0.0,0.0,0.0,3.6058,3.6096,3.6446,3.7292,3.735,3.7738,3.8607,3.9069,3.9473,3.99,4.0285,4.0496,4.0496,4.0496,4.0496,4.0496,4.0496,4.0496,4.0496,4.0496,4.0496,4.0496,4.0496,4.0496,4.0496,4.0496,4.0496,4.0496,4.0496,4.0496,4.0496,4.0496,4.0496,4.0496,3.0404,3.0404,3.0404,3.0404,3.0404,3.0404,3.0404,3.0404,3.0404,3.0404,3.0404,3.0404,3.0404,3.0404,3.0404,3.0404,3.0404,3.0404,3.0404,3.0404,3.0404,3.0404,3.0404,3.0404,3.0404,3.0404,3.0404,3.0404,3.0404,3.0404,3.0404,3.0404,3.05,3.0654,3.0654,3.0731,3.0923,0.0,0.0,3.1868,0.0,3.1291,3.1929,3.1929,3.2333,3.291,3.3083,3.3256,3.3506,3.4202,3.4452,3.4564,3.5273,3.55,0.0,0.0,0.0,0.0,0.0,0.0,0.0,0.0,0.0,3.55,0.0,0.0,0.0,0.0,0.0,0.0,0.0,0.0,0.0,0.0,0.0,0.0,0.0,0.0,0.0,0.0,0.0,0.0,3.55,3.55,3.5769,3.6423,3.6465,3.685,3.77,3.8588,3.9127,3.9281,4.0073,4.0496,4.0496,4.0496,4.0496,4.0496,4.0496,4.0496,4.0496,4.0496,4.0496,4.0496,4.0496,4.0496,4.0496,4.0496,4.0496,4.0496,4.0496,4.0496,4.0496,4.0496,4.0496,4.0496,3.0404,3.0404,3.0404,3.0404,3.0404,3.0404,3.0404,3.0404,3.0404,3.0404,3.0404,3.0404,3.0404,0.0,0.0,0.0,0.0,0.0,3.0404,0.0,3.0404,3.0404,3.0404,3.0404,3.0404,3.0404,3.0404,3.0404,3.0404,3.0404,3.0404,3.0404,3.0808,3.1542,3.1542,0.0,0.0,0.0,3.2756,0.0,3.266,3.2679,0.0,3.2756,3.2814,3.3006,3.3779,3.4545,3.5212,0.0,3.5346,3.5365,0.0,3.55,3.55,3.55,0.0,0.0,0.0,0.0,0.0,0.0,3.55,0.0,0.0,0.0,3.55,3.55,0.0,0.0,0.0,0.0,0.0,0.0,0.0,0.0,0.0,0.0,0.0,0.0,0.0,0.0,0.0,3.55,3.5538,3.5635,3.5635,3.5981,3.6792,3.768,3.8511,3.9281,4.0073,4.0496,4.0496,4.0496,4.0496,4.0496,4.0496,4.0496,4.0496,4.0496,4.0496,4.0496,4.0496,4.0496,4.0496,4.0496,4.0496,4.0496,4.0496,4.0496,4.0496,4.0496,4.0496,4.0496,3.0596,3.0404,3.0404,3.0404,3.0404,3.0404,3.0404,3.0827,3.1157,3.1157,3.1561,3.1849,0.0,0.0,0.0,0.0,0.0,3.1849,0.0,0.0,3.1849,3.1849,3.1849,3.1849,3.1849,3.1849,3.1849,3.1849,3.1849,3.1849,3.1849,3.1849,3.2042,3.2391,3.2391,0.0,3.2929,0.0,3.3644,0.0,0.0,0.0,0.0,3.3853,3.3968,3.4465,3.4811,3.5196,3.55,0.0,3.55,0.0,0.0,0.0,0.0,0.0,0.0,0.0,0.0,0.0,0.0,0.0,0.0,0.0,3.55,0.0,3.55,0.0,0.0,0.0,0.0,0.0,0.0,0.0,3.55,0.0,0.0,0.0,0.0,0.0,0.0,0.0,3.55,3.55,3.55,3.55,3.55,3.5654,3.5981,3.6792,3.7642,3.853,3.9358,4.0035,4.0496,4.0496,4.0496,4.0496,4.0496,4.0496,4.0496,4.0496,4.0496,4.0496,4.0496,4.0496,4.0496,4.0496,4.0496,4.0496,4.0496,4.0496,4.0496,4.0496,4.0496,4.0496,3.133,3.1096,3.1096,3.1096,3.1096,3.1096,3.1096,3.1618,3.2025,3.2025,3.2545,0.0,3.2891,3.2891,0.0,0.0,3.2891,3.2891,0.0,0.0,3.2891,0.0,0.0,0.0,3.2891,3.2891,3.2891,3.2891,3.2891,3.2891,3.2891,3.2891,3.3026,3.326,3.326,3.3391,3.3657,0.0,3.4568,3.4603,3.5253,3.55,3.5423,3.4795,3.4946,3.55,3.55,3.55,3.55,3.55,3.55,0.0,3.55,0.0,0.0,0.0,0.0,0.0,3.55,0.0,0.0,0.0,0.0,0.0,0.0,0.0,0.0,0.0,0.0,0.0,0.0,0.0,0.0,0.0,0.0,3.55,0.0,0.0,0.0,0.0,0.0,0.0,0.0,3.55,3.55,3.55,0.0,3.55,3.55,3.625,3.71,3.7969,3.8857,3.9688,4.0496,4.0496,4.0496,4.0496,4.0496,4.0496,4.0496,4.0496,4.0496,4.0496,4.0496,4.0496,4.0496,4.0496,4.0496,4.0496,4.0496,4.0496,4.0496,4.0496,4.0496,4.0496,3.2833,3.2814,3.2814,3.2814,3.2814,3.2814,3.2814,3.2833,3.2852,3.2852,0.0,0.0,0.0,0.0,0.0,0.0,0.0,3.2891,3.2891,0.0,3.2891,0.0,0.0,3.2891,0.0,3.2891,3.2891,3.2891,3.2891,3.2891,3.2891,3.2891,3.3356,3.4167,3.4167,3.4622,3.5423,3.5442,3.5462,3.5462,3.5481,3.55,3.55,0.0,3.5481,3.55,3.55,0.0,0.0,3.55,3.55,0.0,0.0,0.0,0.0,0.0,0.0,0.0,0.0,0.0,0.0,3.55,0.0,0.0,0.0,0.0,3.55,0.0,0.0,0.0,0.0,0.0,0.0,0.0,0.0,0.0,0.0,0.0,0.0,0.0,0.0,0.0,0.0,3.55,3.55,0.0,3.55,3.55,3.55,3.625,3.71,3.7969,3.8857,3.9688,4.0496,4.0496,4.0496,4.0496,4.0496,4.0496,4.0496,4.0496,4.0496,4.0496,4.0496,4.0496,4.0496,4.0496,4.0496,4.0496,4.0496,4.0496,4.0496,4.0496,4.0496,4.0496,3.4619,3.4619,3.4253,3.3103,3.2891,3.2891,3.2891,3.3394,3.376,0.0,0.0,0.0,0.0,3.4619,3.4619,0.0,0.0,3.4619,3.4619,3.4619,0.0,0.0,0.0,3.4619,0.0,3.4619,3.4619,3.4619,3.4619,3.4619,3.4619,3.4619,3.4773,3.5061,3.5061,3.5215,0.0,0.0,0.0,0.0,0.0,3.55,3.55,0.0,3.55,3.55,3.55,3.55,0.0,3.55,3.55,3.55,3.55,3.55,3.55,3.55,3.55,0.0,0.0,0.0,3.55,3.55,0.0,0.0,0.0,0.0,0.0,0.0,0.0,0.0,0.0,0.0,0.0,0.0,0.0,0.0,0.0,0.0,0.0,0.0,0.0,0.0,0.0,0.0,0.0,0.0,3.55,0.0,3.55,3.575,3.6542,3.7969,3.8296,3.9107,4.0496,4.0496,4.0496,4.0496,4.0496,4.0496,4.0496,4.0496,4.0496,4.0496,4.0496,4.0496,4.0496,4.0496,4.0496,4.0496,4.0496,4.0496,4.0496,4.0496,4.0496,4.0496,3.55,3.55,3.5154,3.4023,3.3811,3.3811,3.3811,3.4295,0.0,0.0,3.5157,0.0,3.55,0.0,3.55,0.0,3.55,3.55,3.55,3.55,0.0,3.55,3.55,0.0,0.0,0.0,3.55,3.55,3.55,3.55,3.55,3.55,3.55,3.55,0.0,3.55,3.55,3.55,3.55,0.0,0.0,3.55,0.0,0.0,3.575,3.55,0.0,3.55,3.55,3.55,3.55,3.55,3.55,3.55,3.55,3.55,3.55,3.55,3.55,3.55,0.0,3.55,3.55,0.0,3.55,0.0,0.0,0.0,0.0,0.0,0.0,0.0,0.0,0.0,0.0,0.0,0.0,3.55,0.0,0.0,0.0,0.0,0.0,0.0,0.0,3.55,3.55,3.55,0.0,3.5769,3.6561,3.7969,3.8296,3.9127,4.0496,4.0496,4.0496,4.0496,4.0496,4.0496,4.0496,4.0496,4.0496,4.0496,4.0496,4.0496,4.0496,4.0496,4.0496,4.0496,4.0496,4.0496,4.0496,4.0496,4.0496,4.0496,3.55,3.55,3.55,0.0,3.55,0.0,0.0,0.0,3.55,0.0,3.5538,3.5554,3.5544,3.5589,3.5612,3.5602,3.5608,3.5615,3.5615,3.5577,0.0,0.0,3.5519,3.55,3.55,0.0,0.0,0.0,3.55,3.55,3.55,3.55,3.55,3.55,3.55,0.0,3.55,3.55,3.55,3.55,3.5538,3.5551,3.5621,3.6458,3.6285,3.5602,3.5612,3.5615,3.5615,3.5615,3.5615,3.5615,3.5615,3.5615,3.5615,3.5615,3.5615,3.5615,3.5615,3.5615,3.5615,3.5615,3.5596,0.0,0.0,0.0,3.55,0.0,0.0,0.0,0.0,0.0,0.0,0.0,0.0,0.0,0.0,0.0,0.0,0.0,0.0,0.0,0.0,0.0,3.55,3.55,3.55,3.5519,0.0,3.6269,3.7119,3.8046,3.8877,3.9688,4.0496,4.0496,4.0496,4.0496,4.0496,4.0496,4.0496,4.0496,4.0496,4.0496,4.0496,4.0496,4.0496,4.0496,4.0496,4.0496,4.0496,4.0496,4.0496,4.0496,4.0496,4.0496,3.55,3.55,3.55,0.0,3.55,3.55,0.0,0.0,0.0,0.0,3.6019,3.6327,3.612,3.6853,3.7268,3.7003,3.7203,0.0,0.0,0.0,0.0,3.6385,3.5827,3.55,3.55,3.55,0.0,3.55,0.0,3.55,3.55,3.55,3.55,3.55,0.0,3.55,3.55,3.55,3.55,3.5558,3.6154,3.6274,3.6215,0.0,3.7387,3.7031,3.7275,3.7353,3.7353,3.7353,3.7353,3.7353,3.7353,3.7353,3.7353,3.7353,3.7353,3.7353,3.7353,3.7353,3.7353,3.7353,3.6869,3.6385,0.0,0.0,0.0,0.0,0.0,0.0,0.0,0.0,0.0,0.0,0.0,0.0,0.0,0.0,0.0,3.55,0.0,0.0,0.0,3.55,3.55,3.55,3.55,3.5769,3.6365,0.0,3.7407,3.8915,3.9184,3.9688,4.0496,4.0496,4.0496,4.0496,4.0496,4.0496,4.0496,4.0496,4.0496,4.0496,4.0496,4.0496,4.0496,4.0496,4.0496,4.0496,4.0496,4.0496,4.0496,4.0496,4.0496,4.0496,3.5962,3.633,0.0,3.66,0.0,0.0,3.5431,3.5716,0.0,3.5868,3.6542,0.0,3.685,3.7283,3.7528,3.7336,3.7504,0.0,3.7606,0.0,0.0,3.7032,3.6285,3.5906,3.6019,3.5673,0.0,3.55,0.0,0.0,3.55,3.55,3.55,3.55,0.0,3.55,3.5493,3.5372,3.5523,3.5871,3.6222,3.6472,0.0,3.7925,3.822,3.815,3.8857,3.8623,3.8007,3.8007,3.8007,3.8007,3.8007,3.8007,3.8007,3.8007,3.8007,3.8007,3.8007,3.8007,3.8007,3.8007,3.7623,3.7273,3.7273,3.6619,3.6019,0.0,3.5731,3.55,0.0,0.0,0.0,0.0,0.0,0.0,0.0,0.0,0.0,0.0,3.55,0.0,0.0,3.55,3.55,3.55,3.55,3.5846,3.6657,0.0,3.7892,3.9261,3.9646,4.0035,4.0496,4.0496,4.0496,4.0496,4.0496,4.0496,4.0496,4.0496,4.0496,4.0496,4.0496,4.0496,4.0496,4.0496,4.0496,4.0496,4.0496,4.0496,4.0496,4.0496,4.0496,4.0496,3.6734,3.7484,0.0,0.0,0.0,0.0,0.0,3.6161,0.0,3.6489,0.0,3.7707,3.7619,3.7566,3.7535,3.7492,0.0,3.7492,3.7492,3.7334,3.7362,3.76,3.6839,3.6461,3.6592,3.5905,0.0,0.0,0.0,0.0,3.55,3.55,3.55,3.55,0.0,0.0,0.0,3.5313,3.5642,3.6249,3.622,3.6637,3.7383,3.8526,3.8976,3.9109,4.0129,3.955,3.8334,3.8334,3.8334,3.8334,3.8334,3.8334,3.8334,3.8334,3.8334,3.8334,3.8334,3.8334,3.8334,3.8334,3.8257,3.8161,3.8161,3.7507,3.6869,3.6869,3.6308,3.5827,0.0,0.0,0.0,0.0,0.0,0.0,0.0,0.0,0.0,0.0,0.0,0.0,0.0,0.0,3.55,3.55,3.55,3.5904,0.0,0.0,3.845,3.9434,4.015,4.0496,4.0496,4.0496,4.0496,4.0496,4.0496,4.0496,4.0496,4.0496,4.0496,4.0496,4.0496,4.0496,4.0496,4.0496,4.0496,4.0496,4.0496,4.0496,4.0496,4.0496,4.0496,4.0496,3.7738,0.0,0.0,0.0,0.0,3.7577,3.6576,3.6943,3.7348,3.7307,3.8284,3.8772,3.8226,3.9204,3.9823,3.9584,3.9565,0.0,0.0,0.0,0.0,3.8166,3.7395,3.6666,3.6043,3.5892,3.5619,0.0,0.0,0.0,3.55,3.55,3.55,3.55,0.0,0.0,3.5212,3.5825,0.0,3.608,3.7362,3.7962,3.8216,3.942,3.9867,3.9919,4.0359,4.0304,4.005,4.005,4.005,4.005,4.005,4.005,4.005,4.005,4.005,4.005,4.005,4.005,4.005,4.005,3.955,3.9069,3.9069,3.8392,3.7777,3.7777,3.7661,3.7565,3.7565,0.0,0.0,0.0,0.0,0.0,0.0,0.0,0.0,0.0,0.0,3.55,0.0,0.0,3.55,3.55,3.55,3.6154,3.77,0.0,3.8703,0.0,4.0439,0.0,0.0,0.0,4.0496,4.0496,4.0496,4.0496,4.0496,4.0496,4.0496,4.0496,4.0496,4.0496,4.0496,4.0496,4.0496,4.0496,4.0496,4.0496,4.0496,4.0496,4.0496,4.0496,0.0,0.0,0.0,0.0,0.0,0.0,0.0,3.8271,3.8244,3.8007,3.8681,3.914,3.8995,3.9331,3.957,3.9582,3.9587,3.9651,3.9824,3.9127,3.8788,3.8973,3.805,0.0,3.7151,3.6731,3.6394,3.613,0.0,0.0,3.5913,3.6065,3.5904,3.5497,0.0,3.5378,0.0,0.0,0.0,3.7004,3.7772,3.834,3.8826,3.9749,4.0101,4.0134,4.0397,4.0496,4.0496,4.0496,4.0496,4.0496,4.0496,4.0496,4.0496,4.0496,4.0496,4.0496,4.0496,4.0496,4.0496,4.0496,4.0208,3.9919,3.9919,3.9281,3.8665,3.8665,3.8315,3.8007,3.8007,3.7661,0.0,0.0,0.0,0.0,0.0,0.0,0.0,0.0,0.0,0.0,0.0,0.0,0.0,0.0,0.0,3.6869,3.8588,0.0,3.9242,0.0,0.0,0.0,4.0496,0.0,4.0496,4.0496,4.0496,4.0496,4.0496,4.0496,4.0496,4.0496,4.0496,4.0496,4.0496,4.0496,4.0496,4.0496,4.0496,4.0496,4.0496,4.0496,4.0496,4.0496,0.0,3.976,0.0,0.0,3.9517,0.0,3.9396,3.9231,3.8968,3.8597,3.8933,3.9276,3.9462,3.9122,3.8973,3.9192,3.9133,3.9206,3.9487,3.9192,3.9131,3.9402,3.8553,3.8092,3.8127,3.7509,3.7133,0.0,0.0,0.0,0.0,3.6697,3.6458,0.0,0.0,0.0,0.0,0.0,3.6733,3.7917,3.8093,3.8574,3.9264,3.9875,4.0101,4.0134,4.0397,4.0496,4.0496,4.0496,4.0496,4.0496,4.0496,4.0496,4.0496,4.0496,4.0496,4.0496,4.0496,4.0496,4.0496,4.0496,4.0496,4.0496,4.0496,4.0015,3.955,3.955,3.9011,3.8469,3.8315,3.8277,0.0,0.0,0.0,0.0,0.0,0.0,0.0,0.0,0.0,0.0,3.8007,0.0,0.0,0.0,0.0,3.7661,3.9223,3.93,3.9669,0.0,0.0,4.0496,4.0496,0.0,4.0496,4.0496,4.0496,4.0496,4.0496,4.0496,4.0496,4.0496,4.0496,4.0496,4.0496,4.0496,4.0496,4.0496,4.0496,4.0496,4.0496,4.0496,4.0496,4.0496,0.0,0.0,0.0,0.0,0.0,0.0,3.887,3.8961,3.9081,3.904,3.9339,3.9444,3.9185,3.9377,3.9529,3.9558,3.927,3.91,3.9133,3.8898,3.8739,3.8777,3.8684,3.8298,3.7595,3.7503,3.7221,0.0,0.0,3.6855,0.0,3.7058,0.0,0.0,0.0,0.0,0.0,3.7378,3.7757,3.795,3.8695,3.9201,3.9593,3.9967,4.0101,4.0134,4.0397,4.0496,4.0496,4.0496,4.0496,4.0496,4.0496,4.0496,4.0496,4.0496,4.0496,4.0496,4.0496,4.0496,4.0496,4.0496,4.0496,4.0496,4.0496,4.0439,4.04,4.04,4.0323,4.0035,3.93,3.9184,3.8915,0.0,0.0,0.0,0.0,0.0,0.0,0.0,0.0,0.0,0.0,3.8007,0.0,0.0,3.8315,3.8296,3.9242,3.93,3.9669,4.0477,4.0496,4.0496,4.0496,4.0496,4.0496,4.0496,4.0496,4.0496,4.0496,4.0496,4.0496,4.0496,4.0496,4.0496,4.0496,4.0496,4.0496,4.0496,4.0496,4.0496,4.0496,4.0496,4.0496,4.0496,0.0,0.0,0.0,0.0,0.0,0.0,0.0,3.8788,3.8855,3.8855,3.8991,3.9073,3.9099,3.9075,3.9116,3.9295,3.9185,3.9198,3.9383,3.9104,3.8933,3.8933,3.8781,3.856,3.8238,3.8212,3.8121,0.0,0.0,0.0,0.0,0.0,0.0,0.0,0.0,3.6987,3.7197,3.7518,3.7943,3.8415,3.8906,3.9173,3.9352,3.9896,4.0101,4.0134,4.0397,4.0496,4.0496,4.0496,4.0496,4.0496,4.0496,4.0496,4.0496,4.0496,4.0496,4.0496,4.0496,4.0496,4.0496,4.0496,4.0496,4.0496,4.0496,4.0496,4.0496,4.0496,4.0496,4.04,4.0073,4.0015,3.9919,3.955,0.0,0.0,0.0,0.0,0.0,0.0,0.0,0.0,0.0,0.0,0.0,0.0,0.0,3.9146,3.9977,4.0015,4.0169,4.0496,0.0,4.0496,4.0496,4.0496,4.0496,4.0496,4.0496,4.0496,4.0496,4.0496,4.0496,4.0496,4.0496,4.0496,4.0496,4.0496,4.0496,4.0496,4.0496,4.0496,4.0496,4.0496,4.0496,4.0496,3.9352,0.0,3.9072,0.0,3.9025,3.9056,3.9056,3.925,3.9415,3.9415,3.9415,3.9311,3.9005,3.88,3.8784,3.8975,3.8978,3.9088,3.932,3.9104,3.8978,3.8978,3.8803,0.0,3.8699,3.8699,3.8699,3.8699,3.8898,0.0,0.0,0.0,0.0,0.0,3.7286,3.7507,3.7852,3.7852,3.8232,3.8837,3.9022,3.9105,3.9153,3.9742,3.9943,3.9978,4.0276,4.0422,4.0496,4.0496,4.0496,4.0496,4.0496,4.0496,4.0496,4.0496,4.0496,4.0496,4.0496,4.0496,4.0496,4.0496,4.0496,4.0496,4.0496,4.0496,4.0496,4.0496,4.0496,4.0496,4.0496,4.0496,4.0496,4.0496,0.0,0.0,0.0,0.0,0.0,0.0,4.0496,4.0496,4.0496,4.0496,0.0,0.0,0.0,3.99,4.0477,4.0496,4.0496,0.0,0.0,0.0,4.0496,4.0496,4.0496,4.0496,4.0496,4.0496,4.0496,4.0496,4.0496,4.0496,4.0496,4.0496,4.0496,4.0496,4.0496,4.0496,4.0496,4.0496,4.0496,4.0496,4.0496,4.0535,3.8762,3.8923,3.9027,3.8747,3.9357,3.989,3.989,4.0553,4.1058,4.1058,4.1058,4.0479,3.8872,3.8707,3.8707,3.8707,3.8707,3.8715,3.8715,3.8715,3.8707,0.0,0.0,3.8699,3.8699,3.8699,3.8699,3.8699,0.0,0.0,3.8689,0.0,3.8696,3.867,3.867,3.8689,3.8689,3.8689,3.884,3.9099,3.9105,3.9105,3.9145,3.9487,3.9605,3.9645,3.9968,4.0286,4.0496,4.0496,4.0496,4.0496,4.0496,4.0496,4.0496,4.0496,4.0496,4.0496,4.0496,4.0496,4.0496,4.0496,4.0496,4.0496,4.0496,4.0496,4.0496,4.0496,4.0496,4.0496,4.0496,4.0496,4.0496,4.0496,0.0,0.0,0.0,0.0,0.0,4.0496,4.0496,4.0496,4.0496,4.0496,0.0,0.0,0.0,0.0,0.0,0.0,0.0,4.0496,4.0496,0.0,4.0496,4.0496,4.0496,4.0496,4.0496,4.0496,4.0496,4.0496,4.0496,4.0496,4.0496,4.0496,4.0496,4.0496,4.0496,4.0496,4.0496,4.0496,4.0496,4.0496,4.0496,4.0631,4.0246,4.0399,4.0428,4.0349,4.0553,4.0718,4.0718,4.0938,4.1095,4.1095,4.1095,4.0893,4.0388,4.0333,4.0333,0.0,3.9827,3.9523,0.0,3.9001,3.8699,3.8699,3.8699,3.8699,3.8699,3.8699,3.8699,3.8699,0.0,0.0,0.0,3.8699,3.8699,3.8699,3.8699,3.8699,3.8699,3.8699,3.8739,3.8822,3.8822,3.8822,3.8866,3.9157,3.9251,3.9327,3.9901,4.0153,4.0269,4.0445,4.0496,4.0496,4.0496,4.0496,4.0496,4.0496,4.0496,4.0496,4.0496,4.0496,4.0496,4.0496,4.0496,4.0496,4.0496,4.0496,4.0496,4.0496,4.0496,4.0496,4.0496,4.0496,4.0496,4.0496,4.0496,0.0,4.0496,0.0,4.0496,4.0496,4.0496,4.0496,4.0496,4.0496,0.0,0.0,0.0,0.0,0.0,0.0,0.0,0.0,4.0496,0.0,4.0496,4.0496,4.0496,4.0496,4.0496,4.0496,4.0496,4.0496,4.0496,4.0496,4.0496,4.0496,4.0496,4.0496,4.0496,4.0496,4.0496,4.0496,4.0496,4.0496,4.0877,4.1431,4.1012,4.1095,4.1095,4.1095,4.136,4.1544,4.1544,4.1801,4.2002,4.2002,4.2002,4.2002,4.2002,4.2002,0.0,4.115,4.0645,4.0359,4.0359,3.9874,3.947,3.9166,3.9148,3.9019,3.8707,3.8699,0.0,3.8699,3.8699,3.8699,3.8699,3.8699,3.8699,3.8699,3.8699,3.8699,3.8699,3.8699,3.8699,3.8699,3.8699,3.8699,3.8712,3.8898,3.9001,3.9147,3.9576,3.9891,4.0125,4.0281,4.0429,4.0496,4.0496,4.0496,4.0496,4.0496,4.0496,4.0496,4.0496,4.0496,4.0496,4.0496,4.0496,4.0496,4.0496,4.0496,4.0496,4.0496,4.0496,4.0496,4.0496,4.0496,4.0496,4.0496,4.0496,4.0496,4.0496,0.0,4.0496,0.0,0.0,0.0,0.0,4.0496,4.0496,0.0,0.0,0.0,0.0,0.0,0.0,4.0496,4.0496,4.0496,4.0496,4.0496,4.0496,4.0496,4.0496,4.0496,4.0496,4.0496,4.0496,4.0496,4.0496,4.0496,4.0496,4.0496,4.0496,4.0496,4.0496,4.0496,4.0496,4.0496,4.1046,4.185,4.1268,4.126,4.126,0.0,4.1892,0.0,4.2378,4.3029,4.3506,4.3506,4.3506,4.3506,4.3506,4.3506,4.29,4.1397,0.0,0.0,0.0,4.1132,4.0773,4.0018,3.9981,3.9625,3.8883,3.8865,3.8828,3.8773,3.8718,3.8699,3.8699,3.8699,3.8699,3.8699,3.8699,3.8699,3.8699,3.8699,3.8699,3.8699,3.8699,3.8699,3.8699,3.8699,3.8848,3.9072,3.9099,3.9523,4.0076,4.0091,4.0286,4.0496,4.0496,4.0496,4.0496,4.0496,4.0496,4.0496,4.0496,4.0496,4.0496,4.0496,4.0496,4.0496,4.0496,4.0496,4.0496,4.0496,4.0496,4.0496,4.0496,4.0496,4.0496,4.0496,4.0496,4.0496,4.0496,4.0496,4.0496,0.0,0.0,0.0,4.0496,4.0496,4.0496,0.0,0.0,0.0,0.0,0.0,4.0496,4.0496,4.0496,4.0496,4.0496,4.0496,4.0496,4.0496,4.0496,4.0496,4.0496,4.0496,4.0496,4.0496,4.0496,4.0496,4.0496,4.0496,4.0496,4.0496,4.0496,4.0496,4.0516,4.0573,4.1143,4.2004,0.0,0.0,4.2937,4.2937,4.3084,4.3231,4.3231,4.3378,4.3506,4.3506,4.3506,4.3506,4.3506,4.3506,4.3341,4.2974,4.2378,4.2021,4.2021,4.1434,4.103,4.0828,4.0828,4.0736,4.0534,4.0526,4.0223,3.9625,3.9001,3.8699,3.8699,3.8699,3.8699,3.8699,3.8699,3.8699,3.8699,3.8699,3.8699,3.8699,3.8699,3.8699,3.8699,3.8699,3.875,3.8815,3.9022,3.9364,3.9765,4.0012,4.0286,4.0496,4.0496,4.0496,4.0496,4.0496,4.0496,4.0496,4.0496,4.0496,4.0496,4.0496,4.0496,4.0496,4.0496,4.0496,4.0496,4.0496,4.0496,4.0496,4.0496,4.0496,4.0496,4.0496,4.0496,4.0496,4.0496,4.0496,4.0496,0.0,4.0496,4.0496,4.0496,4.0496,4.0496,0.0,0.0,0.0,4.0496,4.0496,4.0496,4.0496,4.0496,4.0496,4.0496,4.0496,4.0496,4.0496,4.0496,4.0496,4.0496,4.0496,4.0496,4.0496,4.0496,4.0496,4.0496,4.0496,4.0496,4.0496,4.0496,4.0496,4.0573,4.1258,4.2047,4.2912,4.3414,4.3506,4.3506,4.3506,4.3506,4.3506,4.3506,4.3506,4.3506,4.3506,4.3506,4.3506,4.3506,4.3506,4.3506,4.3506,4.3102,4.2845,4.2845,4.2433,4.2029,4.1654,4.1654,4.1489,4.1122,4.1095,4.0883,4.0451,4.0002,3.98,3.98,3.98,3.98,3.98,3.98,3.98,3.98,3.98,3.98,3.98,3.98,3.98,3.98,3.98,3.98,3.9832,3.9963,4.0324,4.0774,4.0953,4.1318,4.1627,4.1223,4.1085,4.1012,4.0631,4.0496,4.0496,4.0496,4.0496,4.0496,4.0496,4.0496,4.0496,4.0496,4.0496,4.0496,4.0496,4.0496,4.0496,4.0496,4.0496,4.0496,4.0496,4.0496,4.0496,4.0496,4.0496,4.0496,4.0496,4.0496,4.0496,4.0496,4.0496,4.0496,4.0496,4.0496,0.0,4.0496,4.0496,4.0496,4.0496,4.0496,4.0496,4.0496,4.0496,4.0496,4.0496,4.0496,4.0496,4.0496,4.0496,4.0496,4.0496,4.0496,4.0496,4.0496,4.0496,4.0723,4.1085,4.1085,4.1339,4.1743,4.222,4.2931,4.3701,4.3506,4.3506,4.3506,4.3506,4.3506,4.3506,4.3506,4.3506,4.3506,4.3506,4.3506,4.3506,4.3506,4.3506,4.3506,4.3506,4.3506,4.3506,4.3506,4.3506,4.3194,4.2506,4.2488,4.2158,4.1489,4.1342,4.1287,4.1287,4.115,4.1095,4.1095,4.1095,4.1095,4.1095,4.1095,4.1095,4.1095,4.1095,4.1095,4.1095,4.1095,4.1095,4.1095,4.1095,4.1095,4.1111,4.1158,4.1577,4.2114,4.2163,4.2588,4.297,4.2235,4.2004,4.185,4.1108,4.09,4.0843,4.0573,4.0496,4.0496,4.0496,4.0496,4.0496,4.0496,4.0496,4.0496,4.0496,4.0496,4.0496,4.0496,4.0496,4.0496,4.0496,4.0496,4.0496,4.0496,0.0,4.0496,4.0496,4.0496,4.0496,4.0496,4.0496,4.0496,4.0496,4.0496,4.0496,4.0496,4.0496,4.0496,4.0496,4.0496,4.0496,4.0496,4.0496,4.0496,4.0496,4.0627,4.0704,4.0704,4.0819,4.09,4.09,4.09,4.09,4.09,4.09,4.1335,4.2004,4.2004,4.2446,4.3104,4.3239,4.3701,4.4316,4.3506,4.3506,4.3506,4.3506,4.3506,4.3506,4.3506,4.3506,4.3506,4.3506,4.3506,4.3506,4.3506,4.3506,4.3506,4.3506,4.3506,4.3506,4.3506,4.3506,4.3433,4.3322,4.3304,4.3267,4.3139,4.2451,4.2113,4.2113,4.1434,4.1095,4.1095,4.1095,4.1095,4.1095,4.1095,4.1095,4.1095,4.1095,4.1095,4.1095,4.1095,4.1095,4.1095,4.1095,4.1095,4.1134,4.1423,4.1759,4.2151,4.2433,4.2776,4.3085,4.2931,4.2893,4.2874,4.2739,4.2701,4.2374,4.09,4.0496,4.0496,4.0496,4.0496,4.0496,4.0496,4.0496,4.0496,4.0496,4.0496,4.0496,4.0496,4.0496,4.0496,4.0496,4.0496,4.0496,4.0496,0.0,4.0496,4.0496,4.0496,4.0496,4.0496,4.0496,4.0496,4.0496,4.0496,4.0496,4.0496,4.0496,4.0496,4.0496,4.0496,4.0496,4.0496,4.0496,4.0496,4.0516,4.1258,4.16,4.1619,4.2354,4.2701,4.2701,4.2701,4.2701,4.2701,4.2701,4.2777,4.2893,4.2893,4.2989,4.3181,4.3855,4.4182,4.4417,4.3506,4.3506,4.3506,4.3506,4.3873,4.4158,4.4158,4.4158,4.4158,4.4158,4.3763,4.3506,4.3506,4.3506,4.3506,4.3506,4.3506,4.3506,4.3506,4.3506,4.3506,4.3506,4.3506,4.3506,4.3506,4.3139,4.2947,4.2947,4.2561,4.2396,4.2396,4.2396,4.2396,4.2396,4.2396,4.2396,4.2396,4.2396,4.2396,4.2396,4.2396,4.2396,4.2403,4.2585,4.2654,4.2709,4.3074,4.3429,4.3738,4.3882,4.4164,4.4359,4.3893,4.3739,4.3662,4.3239,4.2777,4.2216,4.1412,4.0858,4.0496,4.0496,4.0496,4.0496,4.0496,4.0496,4.0496,4.0496,4.0496,4.0496,4.0496,4.0496,4.0496,4.0496,4.0496,0.0,4.0496,4.0496,4.0496,4.0496,4.0496,4.0496,4.0496,4.0496,4.0496,4.0496,4.0496,4.0496,4.0496,4.0496,4.0496,4.0496,4.0496,4.0496,4.0496,4.0973,4.12,4.12,4.2085,4.2504,4.2504,4.2912,4.3104,4.3104,4.3104,4.3104,4.3104,4.3104,4.3355,4.3739,4.3739,4.4028,4.4494,4.4859,4.4994,4.5051,4.3781,4.3928,4.4057,4.4057,4.4562,4.4975,4.4975,4.4975,4.4975,4.4975,4.4433,4.4057,4.4057,4.4057,4.4057,4.4057,4.4142,4.4168,4.4065,4.4151,4.4002,4.3515,4.3506,4.3506,4.3506,4.3506,4.3506,4.3506,4.3506,4.3506,4.3506,4.3506,4.3506,4.3506,4.3506,4.3506,4.3506,4.3506,4.3506,4.3506,4.3506,4.3506,4.3531,4.3788,4.3889,4.3958,4.4433,4.4776,4.5019,4.5156,4.5395,4.5475,4.4801,4.4609,4.4474,4.3855,4.3066,4.2331,4.2158,4.1604,4.1108,4.1108,4.1108,4.105,4.0858,4.08,4.0743,4.0535,4.0496,4.0496,4.0496,4.0496,4.0496,4.0496,0.0,4.0496,4.0496,4.0496,4.0496,4.0496,4.0496,4.0496,4.0496,4.0496,4.0496,4.0496,4.0496,4.0496,4.0496,4.0496,4.0496,4.0496,4.0496,4.0593,4.08,4.147,4.1908,4.21,4.297,4.3374,4.3393,4.3585,4.3682,4.3682,4.3682,4.3682,4.3682,4.3682,4.4051,4.4609,4.4609,4.5013,4.5594,4.5594,4.5594,4.5594,4.4608,4.5204,4.5718,4.5718,4.5773,4.581,4.581,4.581,4.581,4.581,4.5755,4.5718,4.5718,4.5718,4.5718,4.5718,4.6054,4.6121,4.5754,4.6062,4.5453,4.3587,4.3506,4.3506,4.3506,4.3506,4.3506,4.3506,4.3506,4.3506,4.3506,4.3506,4.3506,4.3506,4.3506,4.3506,4.3506,4.3506,4.3506,4.3506,4.3506,4.3506,4.3496,4.3522,4.3539,4.3631,4.4344,4.4624,4.4726,4.5352,4.5577,4.5594,4.5518,4.5494,4.5494,4.5436,4.4801,4.3951,4.3201,4.2951,4.2912,4.2912,4.2912,4.2701,4.1889,4.1696,4.1489,4.0666,4.0496,4.0496,4.0496,4.0496,4.0496,4.0496,0.0,0.0,4.0496,4.0496,4.0496,4.0496,4.0496,4.0496,4.0496,4.0496,4.0496,4.0496,4.0496,4.0496,4.0496,4.0496,4.0496,4.0496,4.0496,4.0896,4.1696,4.1773,4.2216,4.3008,4.3816,4.4201,4.4239,4.5051,4.5417,4.5417,4.5417,4.5417,4.5417,4.5417,4.5455,4.5494,4.5494,4.5537,4.5594,4.5594,4.5594,4.5594,4.5443,4.5681,4.5902,4.5902,4.6296,4.6645,4.6645,4.6645,4.6645,4.6645,4.6214,4.5902,4.5902,4.5902,4.601,4.6249,4.6411,4.6543,4.6644,4.6802,4.631,4.5038,4.4993,4.4745,4.4268,4.425,4.3993,4.3506,4.3506,4.3506,4.3506,4.3506,4.3506,4.3506,4.3506,4.3506,4.3506,4.3506,4.3506,4.3506,4.3506,4.3506,4.3522,4.3734,4.3966,4.4256,4.4732,4.5033,4.5258,4.5513,4.5594,4.5594,4.5594,4.5594,4.5594,4.5594,4.5359,4.5032,4.4724,4.3893,4.3104,4.3104,4.3104,4.3008,4.2681,4.2604,4.2508,4.2181,4.2108,4.1954,4.1412,4.1316,4.1123,4.0593,0.0,4.0496,4.0496,4.0496,4.0496,4.0496,4.0496,4.0496,4.0496,4.0496,4.0496,4.0496,4.0496,4.0496,4.0496,4.1012,4.1316,4.1316,4.1835,4.2008,4.1793,4.2831,4.3528,4.3855,4.4705,4.5109,4.5128,4.5455,4.5594,4.5594,4.5594,4.5594,4.5594,4.5594,4.5594,4.5594,4.5594,4.5594,4.5594,4.5594,4.5594,4.5594,4.6278,4.6489,4.6654,4.6654,4.7104,4.748,4.748,4.748,4.748,4.748,4.6994,4.6654,4.6654,4.6654,4.6818,4.7214,4.7372,4.7552,4.7838,4.784,4.732,4.6141,4.5974,4.5645,4.5085,4.5085,4.4819,4.4259,4.4259,4.4259,4.4259,4.4259,4.4259,4.4259,4.4259,4.4259,4.4259,4.4259,4.4112,4.3883,4.3883,4.3726,4.3539,4.3873,4.4168,4.4462,4.4937,4.5243,4.5452,4.5568,4.5594,4.5594,4.5594,4.5594,4.5594,4.5594,4.5594,4.5594,4.5594,4.4763,4.3897,4.3897,4.3897,4.3816,4.3547,4.347,4.3412,4.3143,4.3104,4.2912,4.2312,4.2216,4.2008,4.1416,4.132,4.1223,4.0954,4.0916,4.08,4.0535,4.0496,4.0496,4.0496,4.0496,4.0496,4.0496,4.0743,4.1031,4.13,4.1873,4.2216,4.2216,4.3028,4.3181,4.2581,4.372,4.4436,4.4724,4.5302,4.5594,4.5594,4.5594,4.5594,4.5594,4.5594,4.5594,4.5594,4.5594,4.5594,4.5594,4.5594,4.5594,4.5594,4.5594,4.5594,4.5594,4.7113,4.7746,4.8296,4.8296,4.8296,4.8296,4.8296,4.8296,4.8296,4.8296,4.8296,4.8296,4.8296,4.8306,4.8477,4.8871,4.9272,4.9522,4.9504,4.9522,4.8608,4.6621,4.6149,4.5929,4.5911,4.5902,4.5902,4.5902,4.5902,4.5902,4.5902,4.5902,4.5902,4.5902,4.5911,4.5892,4.5892,4.5911,4.5452,4.4709,4.4709,4.424,4.3566,4.3899,4.4016,4.4102,4.4861,4.5115,4.5145,4.549,4.5594,4.5594,4.5594,4.5594,4.5594,4.5594,4.5594,4.5594,4.5594,4.5594,4.5594,4.5594,4.5594,4.5359,4.4513,4.4316,4.4085,4.3278,4.3124,4.3124,4.3104,4.3104,4.3104,4.3104,4.3104,4.2797,4.1927,4.1812,4.1485,4.0631,4.0516,4.0516,4.0516,4.0516,4.0516,4.0516,4.1316,4.2196,4.3047,4.3104,4.3104,4.3104,4.3893,4.4316,4.4316,4.4316,4.4744,4.5594,4.5594,4.5594,4.5594,4.5594,4.5594,4.5594,4.5594,4.5594,4.5594,4.5594,4.5594,4.5594,4.5594,4.5594,4.5594,4.5594,4.5594,4.5594,4.7948,4.8131,4.8296,4.8296,4.8296,4.8296,4.8296,4.8296,4.8296,4.8296,4.8296,4.8296,4.8296,4.8541,4.888,4.9288,4.9699,5.0043,5.033,5.0074,4.9657,4.906,4.837,4.7735,4.7186,4.6883,4.6461,4.5902,4.5902,4.5902,4.5902,4.5902,4.5902,4.5902,4.6198,4.6312,4.6337,4.6629,4.6452,4.5992,4.6262,4.607,4.5648,4.6022,4.5946,4.5639,4.586,4.5726,4.5476,4.5568,4.5594,4.5594,4.5594,4.5594,4.5594,4.5594,4.5594,4.5594,4.5594,4.5594,4.5594,4.5594,4.5594,4.5532,4.5263,4.5205,4.5148,4.4898,4.4859,4.4667,4.4047,4.3932,4.3758,4.3181,4.3104,4.3008,4.2758,4.272,4.2624,4.2354,4.2316,4.2316,4.2316,4.2316,4.2316,4.2316,4.2566,4.2835,4.3085,4.3643,4.3932,4.3932,4.4763,4.5205,4.5205,4.5205,4.534,4.5594,4.5594,4.5594,4.5594,4.5594,4.5594,4.5594,4.5594,4.5594,4.5594,4.5594,4.5594,4.5594,4.5594,4.5594,4.5594,4.5594,4.5594,4.5594,4.8296,4.8296,4.8296,4.8296,4.8296,4.8296,4.8296,4.8296,4.8296,4.8296,4.8296,4.8354,4.8523,4.8753,4.9123,4.9699,5.0117,5.0432,5.0678,5.0478,5.0336,5.0336,4.9714,4.899,4.8187,4.7935,4.7491,4.6856,4.6856,4.6856,4.6856,4.6856,4.6856,4.6875,4.7269,4.7457,4.7482,4.7877,4.7725,4.7241,4.7481,4.7149,4.6551,4.7093,4.6992,4.6629,4.6912,4.6829,4.659,4.659,4.659,4.659,4.659,4.659,4.659,4.659,4.636,4.6105,4.6105,4.5859,4.5594,4.5594,4.5594,4.5594,4.5594,4.5594,4.5594,4.5594,4.5594,4.5436,4.4917,4.4801,4.4648,4.4167,4.409,4.3974,4.3624,4.3566,4.3451,4.3143,4.3104,4.3104,4.3104,4.3104,4.3239,4.3547,4.3566,4.372,4.407,4.4551,4.4801,4.4801,4.5321,4.5594,4.5594,4.5594,4.5594,4.5594,4.5594,4.5594,4.5594,4.5594,4.5594,4.5594,4.5594,4.5594,4.5594,4.5594,4.5594,4.5594,4.5594,4.5594,4.5594,4.5594,4.5594,4.5594,4.8296,4.8296,4.8296,4.8296,4.8296,4.8296,4.8296,4.8296,4.8316,4.8345,4.8354,4.8504,4.8913,4.8996,4.9292,5.0043,5.0472,5.0707,5.0707,5.0707,5.0707,5.0707,5.0347,4.98,4.9019,4.8938,4.8709,4.8354,4.8354,4.8344,4.8306,4.8373,4.8392,4.8373,4.8813,4.9021,4.9027,4.9438,4.9162,4.8455,4.8497,4.7834,4.6903,4.7611,4.7591,4.7288,4.7973,4.8159,4.8101,4.8101,4.8101,4.8101,4.8101,4.8101,4.8101,4.8101,4.7582,4.7005,4.7005,4.6432,4.5821,4.5821,4.5763,4.5706,4.5614,4.5594,4.5594,4.5594,4.5594,4.5594,4.5594,4.5594,4.5594,4.5594,4.5594,4.5321,4.4532,4.4417,4.4143,4.3412,4.3316,4.3316,4.3316,4.3316,4.3624,4.4359,4.4417,4.4763,4.5556,4.5594,4.5594,4.5594,4.5594,4.5594,4.5594,4.5594,4.5594,4.5594,4.5594,4.5594,4.5594,4.5594,4.5594,4.5594,4.5594,4.5594,4.5594,4.5594,4.5594,4.5594,4.5594,4.5594,4.5594,4.5594,4.5594,4.5594,4.8296,4.8296,4.8296,4.8296,4.8296,4.8296,4.8296,4.8296,4.8402,4.8736,4.877,4.8922,4.9326,4.9645,4.9917,5.008,5.0472,5.0707,5.0707,5.0707,5.0707,5.0707,5.0614,5.0341,4.9846,4.9215,4.8854,4.877,4.877,4.8613,4.8316,4.8938,4.9059,4.8805,4.9525,4.984,4.9878,5.0272,5.0165,4.9733,5.0043,4.9824,4.9366,4.9849,4.9555,4.8895,4.9067,4.8682,4.8101,4.8101,4.8101,4.8101,4.8101,4.8101,4.8101,4.8101,4.7985,4.7832,4.7832,4.7697,4.7567,4.7567,4.7086,4.6432,4.5763,4.5594,4.5594,4.5594,4.5594,4.5594,4.5594,4.5594,4.5594,4.5594,4.5594,4.5532,4.534,4.5321,4.5244,4.5071,4.5051,4.5051,4.5051,4.5051,4.5128,4.5302,4.5321,4.5398,4.5594,4.5594,4.5594,4.5594,4.5594,4.5594,4.5594,4.5594,4.5594,4.5594,4.5594,4.5594,4.5594,4.5594,4.5594,4.5594,4.5594,4.5594,4.5594,4.5594,4.5594,4.5594,4.5594,4.5594,4.5594,4.5594,4.5594,4.5594,4.8296,4.8296,4.8296,4.8296,4.8296,4.8296,4.8296,4.8449,4.8595,4.8613,4.8947,4.9265,4.9475,4.9853,5.0177,5.0364,5.0589,5.0707,5.0707,5.0707,5.0707,5.0707,5.0707,5.0604,5.0399,4.9793,4.9386,4.9187,4.9187,4.9086,4.8881,4.9295,4.9386,4.921,4.9827,5.0092,5.0135,5.0534,5.0589,5.0405,5.0614,5.0467,5.0147,5.0549,5.0301,4.9756,4.9947,4.9726,4.9336,4.9336,4.9336,4.9336,4.9336,4.9336,4.9336,4.9336,4.9048,4.8721,4.8721,4.8413,4.8101,4.8101,4.7774,4.7255,4.6413,4.5898,4.5594,4.5594,4.5594,4.5594,4.5594,4.5594,4.5594,4.5594,4.5594,4.5594,4.5594,4.5594,4.5594,4.5594,4.5594,4.5594,4.5594,4.5594,4.5594,4.5594,4.5594,4.5594,4.5594,4.5594,4.5594,4.5594,4.5594,4.5594,4.5594,4.5594,4.5594,4.5594,4.5594,4.5594,4.5594,4.5594,4.5594,4.5594,4.5594,4.5594,4.5594,4.5594,4.5594,4.5594,4.5594,4.5594,4.5594,4.5594,4.5594,4.5594,4.8296,4.8296,4.8296,4.8296,4.8296,4.8296,4.8296,4.863,4.8795,4.8541,4.9158,4.9636,4.9699,4.9993,5.0336,5.0668,5.0707,5.0707,5.0707,5.0707,5.0707,5.0707,5.0707,5.0707,5.0707,5.0364,5.0012,4.9596,4.9596,4.9561,4.9496,4.9631,4.9678,4.961,5.0012,5.0195,5.0212,5.0554,5.0707,5.0707,5.0707,5.0493,5.0243,5.0565,5.0488,5.0249,5.057,5.0707,5.0707,5.0707,5.0707,5.0707,5.0707,5.0707,5.0707,5.0707,5.0188,4.963,4.963,4.9086,4.8548,4.8548,4.8432,4.8139,4.7485,4.6547,4.5782,4.5633,4.5594,4.5594,4.5594,4.5594,4.5594,4.5594,4.5594,4.5594,4.5594,4.5594,4.5594,4.5594,4.5594,4.5594,4.5594,4.5594,4.5594,4.5594,4.5594,4.5594,4.5594,4.5594,4.5594,4.5594,4.5594,4.5594,4.5594,4.5594,4.5594,4.5594,4.5594,4.5594,4.5594,4.5594,4.5594,4.5594,4.5594,4.5594,4.5594,4.5594,4.5594,4.5594,4.5594,4.5594,4.5594,4.5594,4.5594,4.5594,4.8296,4.8296,4.8296,4.8296,4.8296,4.8296,4.8296,4.863,4.9013,4.9295,4.974,5.0153,5.0493,5.0594,5.0629,5.0707,5.0707,5.0707,5.0707,5.0707,5.0707,5.0707,5.0707,5.0707,5.0707,5.0653,5.0421,5.0025,5.0025,4.9833,4.9511,5.0201,5.0347,5.0043,5.0432,5.0614,5.0619,5.0673,5.0707,5.0707,5.0707,5.0668,5.0619,5.0678,5.0668,5.0619,5.0678,5.0707,5.0707,5.0707,5.0707,5.0707,5.0707,5.0707,5.0707,5.0707,5.0611,5.0515,5.0515,5.0438,5.0341,5.0341,4.9784,4.9202,4.9086,4.7855,4.6509,4.5763,4.5594,4.5594,4.5594,4.5594,4.5594,4.5594,4.5594,4.5594,4.5594,4.5594,4.5594,4.5594,4.5594,4.5594,4.5594,4.5594,4.5594,4.5594,4.5594,4.5594,4.5594,4.5594,4.5594,4.5594,4.5594,4.5594,4.5594,4.5594,4.5594,4.5594,4.5594,4.5594,4.5594,4.5594,4.5594,4.5594,4.5594,4.5594,4.5594,4.5594,4.5594,4.5594,4.5594,4.5594,4.5594,4.5594,4.5594,4.5594,4.8296,4.8296,4.8296,4.8296,4.8296,4.8383,4.8604,4.898,4.9303,4.9475,5.0049,5.0416,5.0364,5.0559,5.0707,5.0707,5.0707,5.0707,5.0707,5.0707,5.0707,5.0707,5.0707,5.0707,5.0707,5.0707,5.0614,5.0451,5.0451,5.0341,5.0177,5.0539,5.0609,5.0437,5.0619,5.0707,5.0707,5.0707,5.0707,5.0707,5.0707,5.0707,5.0707,5.0707,5.0707,5.0707,5.0707,5.0707,5.0707,5.0707,5.0707,5.0707,5.0707,5.0707,5.0707,5.0707,5.0707,5.0707,5.0707,5.0707,5.0707,5.0707,5.0418,4.9995,4.951,4.8836,4.7913,4.6605,4.6336,4.6182,4.5686,4.5594,4.5594,4.5594,4.5594,4.5594,4.5594,4.5594,4.5594,4.5594,4.5594,4.5594,4.5594,4.5594,4.5594,4.5594,4.5594,4.5594,4.5594,4.5594,4.5594,4.5594,4.5594,4.5594,4.5594,4.5594,4.584,4.6336,4.6336,4.6071,4.5594,4.5594,4.5594,4.5594,4.5594,4.5594,4.5594,4.5594,4.5594,4.5594,4.5594,4.5594,4.5594,4.5594,4.5594,4.5594]}]]